| time (UTC) | temp C | wind direction | speed KPH | gust KPH | rain 1hr cm | rain 24hr cm | rain mn cm | humidity % | barometer mb |
| 20260507201052 | 13 | 271 | 12.9 | 20.9 | 0.00 | 0.00 | 0.00 | 36 | 1011.2 |
| 20260507200907 | 13 | 306 | 8.0 | 19.3 | 0.00 | 0.00 | 0.00 | 34 | 1011.3 |
| 20260507200810 | 13 | 282 | 6.4 | 19.3 | 0.00 | 0.00 | 0.00 | 39 | 1011.3 |
| 20260507200717 | 13 | 360 | 8.0 | 19.3 | 0.00 | 0.00 | 0.00 | 37 | 1011.3 |
| 20260507200619 | 13 | 316 | 11.3 | 19.3 | 0.00 | 0.00 | 0.00 | 36 | 1011.3 |
| 20260507200543 | 13 | 5 | 12.9 | 19.3 | 0.00 | 0.00 | 0.00 | 34 | 1011.3 |
| 20260507200425 | 13 | 10 | 9.7 | 19.3 | 0.00 | 0.00 | 0.00 | 35 | 1011.4 |
| 20260507200330 | 13 | 11 | 9.7 | 19.3 | 0.00 | 0.00 | 0.00 | 34 | 1011.3 |
| 20260507200253 | 13 | 49 | 9.7 | 19.3 | 0.00 | 0.00 | 0.00 | 35 | 1011.4 |
| 20260507200109 | 13 | 47 | 6.4 | 16.1 | 0.00 | 0.00 | 0.00 | 39 | 1011.4 |
| 20260507200017 | 13 | 355 | 6.4 | 16.1 | 0.00 | 0.00 | 0.00 | 33 | 1011.4 |
| 20260507195917 | 13 | 325 | 11.3 | 16.1 | 0.00 | 0.00 | 0.00 | 34 | 1011.3 |
| 20260507195842 | 13 | 321 | 12.9 | 16.1 | 0.00 | 0.00 | 0.00 | 35 | 1011.4 |
| 20260507195724 | 13 | 313 | 9.7 | 16.1 | 0.00 | 0.00 | 0.00 | 36 | 1011.4 |
| 20260507195608 | 13 | 5 | 6.4 | 19.3 | 0.00 | 0.00 | 0.00 | 35 | 1011.4 |
| 20260507195512 | 13 | 17 | 8.0 | 22.5 | 0.00 | 0.00 | 0.00 | 38 | 1011.4 |
| 20260507195420 | 13 | 346 | 8.0 | 22.5 | 0.00 | 0.00 | 0.00 | 37 | 1011.4 |
| 20260507195324 | 13 | 360 | 11.3 | 22.5 | 0.00 | 0.00 | 0.00 | 37 | 1011.5 |
| 20260507195229 | 13 | 288 | 11.3 | 22.5 | 0.00 | 0.00 | 0.00 | 37 | 1011.4 |
| 20260507195153 | 13 | 262 | 12.9 | 22.5 | 0.00 | 0.00 | 0.00 | 35 | 1011.4 |
| 20260507195009 | 13 | 295 | 9.7 | 22.5 | 0.00 | 0.00 | 0.00 | 37 | 1011.5 |
| 20260507194913 | 13 | 282 | 11.3 | 22.5 | 0.00 | 0.00 | 0.00 | 38 | 1011.4 |
| 20260507194817 | 13 | 332 | 14.5 | 22.5 | 0.00 | 0.00 | 0.00 | 36 | 1011.5 |
| 20260507194724 | 13 | 355 | 16.1 | 22.5 | 0.00 | 0.00 | 0.00 | 37 | 1011.7 |
| 20260507194608 | 13 | 300 | 12.9 | 22.5 | 0.00 | 0.00 | 0.00 | 35 | 1011.4 |
| 20260507194512 | 13 | 326 | 14.5 | 22.5 | 0.00 | 0.00 | 0.00 | 35 | 1011.6 |
| 20260507194437 | 13 | 326 | 16.1 | 22.5 | 0.00 | 0.00 | 0.00 | 35 | 1011.6 |
| 20260507194319 | 13 | 310 | 14.5 | 22.5 | 0.00 | 0.00 | 0.00 | 37 | 1011.5 |
| 20260507194222 | 12 | 305 | 11.3 | 22.5 | 0.00 | 0.00 | 0.00 | 39 | 1011.6 |
| 20260507194111 | 12 | 311 | 9.7 | 19.3 | 0.00 | 0.00 | 0.00 | 36 | 1011.5 |
| 20260507194034 | 12 | 350 | 9.7 | 19.3 | 0.00 | 0.00 | 0.00 | 37 | 1011.6 |
| 20260507193915 | 12 | 342 | 9.7 | 19.3 | 0.00 | 0.00 | 0.00 | 37 | 1011.6 |
| 20260507193819 | 12 | 5 | 6.4 | 19.3 | 0.00 | 0.00 | 0.00 | 35 | 1011.6 |
| 20260507193720 | 12 | 284 | 8.0 | 19.3 | 0.00 | 0.00 | 0.00 | 35 | 1011.4 |
| 20260507193622 | 12 | 79 | 11.3 | 19.3 | 0.00 | 0.00 | 0.00 | 39 | 1011.5 |
| 20260507193509 | 12 | 23 | 9.7 | 19.3 | 0.00 | 0.00 | 0.00 | 39 | 1011.7 |
| 20260507193413 | 12 | 13 | 6.4 | 19.3 | 0.00 | 0.00 | 0.00 | 37 | 1011.5 |
| 20260507193317 | 12 | 222 | 3.2 | 14.5 | 0.00 | 0.00 | 0.00 | 37 | 1011.6 |
| 20260507193221 | 12 | 244 | 1.6 | 14.5 | 0.00 | 0.00 | 0.00 | 39 | 1011.5 |
| 20260507193145 | 12 | 264 | 1.6 | 14.5 | 0.00 | 0.00 | 0.00 | 36 | 1011.5 |
| 20260507193046 | 12 | 264 | 3.2 | 16.1 | 0.00 | 0.00 | 0.00 | 37 | 1011.5 |
| 20260507192926 | 11 | 268 | 8.0 | 22.5 | 0.00 | 0.00 | 0.00 | 36 | 1011.6 |
| 20260507192811 | 11 | 292 | 11.3 | 22.5 | 0.00 | 0.00 | 0.00 | 36 | 1011.6 |
| 20260507192712 | 11 | 303 | 8.0 | 22.5 | 0.00 | 0.00 | 0.00 | 36 | 1011.6 |
| 20260507192634 | 11 | 286 | 6.4 | 24.1 | 0.00 | 0.00 | 0.00 | 36 | 1011.7 |
| 20260507192535 | 11 | 306 | 8.0 | 27.4 | 0.00 | 0.00 | 0.00 | 35 | 1011.6 |
| 20260507192415 | 11 | 297 | 11.3 | 27.4 | 0.00 | 0.00 | 0.00 | 36 | 1011.7 |
| 20260507192314 | 12 | 298 | 12.9 | 27.4 | 0.00 | 0.00 | 0.00 | 35 | 1011.8 |
| 20260507192238 | 12 | 315 | 16.1 | 27.4 | 0.00 | 0.00 | 0.00 | 35 | 1011.7 |
| 20260507192118 | 12 | 310 | 16.1 | 27.4 | 0.00 | 0.00 | 0.00 | 36 | 1011.7 |
| 20260507192025 | 12 | 313 | 12.9 | 27.4 | 0.00 | 0.00 | 0.00 | 37 | 1011.7 |
| 20260507191929 | 12 | 306 | 14.5 | 27.4 | 0.00 | 0.00 | 0.00 | 37 | 1011.7 |
| 20260507191813 | 12 | 311 | 14.5 | 27.4 | 0.00 | 0.00 | 0.00 | 36 | 1011.7 |
| 20260507191717 | 12 | 303 | 14.5 | 27.4 | 0.00 | 0.00 | 0.00 | 39 | 1011.7 |
| 20260507191621 | 12 | 289 | 17.7 | 27.4 | 0.00 | 0.00 | 0.00 | 37 | 1011.7 |
| 20260507191525 | 12 | 302 | 17.7 | 27.4 | 0.00 | 0.00 | 0.00 | 40 | 1011.6 |
| 20260507191414 | 12 | 292 | 9.7 | 20.9 | 0.00 | 0.00 | 0.00 | 38 | 1011.7 |
| 20260507191318 | 12 | 267 | 8.0 | 16.1 | 0.00 | 0.00 | 0.00 | 37 | 1011.7 |
| 20260507191222 | 12 | 257 | 8.0 | 16.1 | 0.00 | 0.00 | 0.00 | 40 | 1011.6 |
| 20260507191106 | 12 | 300 | 4.8 | 17.7 | 0.00 | 0.00 | 0.00 | 43 | 1011.7 |
| 20260507191010 | 12 | 327 | 9.7 | 19.3 | 0.00 | 0.00 | 0.00 | 39 | 1011.7 |
| 20260507190935 | 12 | 340 | 12.9 | 20.9 | 0.00 | 0.00 | 0.00 | 38 | 1011.8 |
| 20260507190817 | 12 | 302 | 14.5 | 22.5 | 0.00 | 0.00 | 0.00 | 40 | 1011.8 |
| 20260507190705 | 12 | 295 | 9.7 | 22.5 | 0.00 | 0.00 | 0.00 | 36 | 1011.7 |
| 20260507190630 | 12 | 286 | 8.0 | 22.5 | 0.00 | 0.00 | 0.00 | 36 | 1011.7 |
| 20260507190507 | 12 | 333 | 9.7 | 22.5 | 0.00 | 0.00 | 0.00 | 36 | 1011.7 |
| 20260507190413 | 12 | 33 | 11.3 | 22.5 | 0.00 | 0.00 | 0.00 | 35 | 1011.8 |
| 20260507190317 | 12 | 9 | 12.9 | 22.5 | 0.00 | 0.00 | 0.00 | 37 | 1011.8 |
| 20260507190221 | 12 | 17 | 14.5 | 22.5 | 0.00 | 0.00 | 0.00 | 37 | 1011.7 |
| 20260507190110 | 12 | 331 | 14.5 | 24.1 | 0.00 | 0.00 | 0.00 | 37 | 1011.7 |
| 20260507190035 | 12 | 355 | 14.5 | 24.1 | 0.00 | 0.00 | 0.00 | 37 | 1011.7 |
| 20260507185957 | 12 | 342 | 8.0 | 24.1 | 0.00 | 0.00 | 0.00 | 37 | 1011.7 |
| 20260507185731 | 12 | 45 | 8.0 | 24.1 | 0.00 | 0.00 | 0.00 | 36 | 1011.7 |
| 20260507185635 | 12 | 360 | 9.7 | 24.1 | 0.00 | 0.00 | 0.00 | 37 | 1011.7 |
| 20260507185519 | 12 | 284 | 11.3 | 24.1 | 0.00 | 0.00 | 0.00 | 37 | 1011.7 |
| 20260507185422 | 12 | 267 | 14.5 | 24.1 | 0.00 | 0.00 | 0.00 | 37 | 1011.7 |
| 20260507185310 | 12 | 290 | 14.5 | 24.1 | 0.00 | 0.00 | 0.00 | 37 | 1011.7 |
| 20260507185213 | 12 | 24 | 9.7 | 20.9 | 0.00 | 0.00 | 0.00 | 37 | 1011.7 |
| 20260507185117 | 12 | 331 | 6.4 | 20.9 | 0.00 | 0.00 | 0.00 | 38 | 1011.6 |
| 20260507185022 | 12 | 9 | 4.8 | 25.7 | 0.00 | 0.00 | 0.00 | 37 | 1011.7 |
| 20260507184906 | 12 | 336 | 6.4 | 25.7 | 0.00 | 0.00 | 0.00 | 36 | 1011.8 |
| 20260507184810 | 12 | 314 | 9.7 | 25.7 | 0.00 | 0.00 | 0.00 | 37 | 1011.7 |
| 20260507184714 | 12 | 326 | 12.9 | 25.7 | 0.00 | 0.00 | 0.00 | 40 | 1011.7 |
| 20260507184622 | 12 | 288 | 12.9 | 25.7 | 0.00 | 0.00 | 0.00 | 42 | 1011.7 |
| 20260507184506 | 12 | 301 | 11.3 | 25.7 | 0.00 | 0.00 | 0.00 | 36 | 1011.7 |
| 20260507184411 | 12 | 335 | 14.5 | 25.7 | 0.00 | 0.00 | 0.00 | 37 | 1011.8 |
| 20260507184335 | 12 | 12 | 16.1 | 25.7 | 0.00 | 0.00 | 0.00 | 37 | 1011.8 |
| 20260507184218 | 12 | 336 | 16.1 | 25.7 | 0.00 | 0.00 | 0.00 | 39 | 1011.8 |
| 20260507184124 | 12 | 350 | 16.1 | 25.7 | 0.00 | 0.00 | 0.00 | 38 | 1012.0 |
| 20260507184012 | 12 | 321 | 14.5 | 27.4 | 0.00 | 0.00 | 0.00 | 39 | 1011.8 |
| 20260507183916 | 12 | 349 | 16.1 | 30.6 | 0.00 | 0.00 | 0.00 | 36 | 1011.9 |
| 20260507183818 | 12 | 323 | 14.5 | 30.6 | 0.00 | 0.00 | 0.00 | 39 | 1011.8 |
| 20260507183723 | 12 | 300 | 12.9 | 30.6 | 0.00 | 0.00 | 0.00 | 37 | 1011.9 |
| 20260507183646 | 12 | 11 | 14.5 | 30.6 | 0.00 | 0.00 | 0.00 | 38 | 1011.8 |
| 20260507183510 | 12 | 319 | 8.0 | 30.6 | 0.00 | 0.00 | 0.00 | 39 | 1011.7 |
| 20260507183418 | 12 | 32 | 6.4 | 30.6 | 0.00 | 0.00 | 0.00 | 43 | 1011.8 |
| 20260507183322 | 12 | 342 | 14.5 | 30.6 | 0.00 | 0.00 | 0.00 | 40 | 1011.8 |
| 20260507183207 | 12 | 292 | 22.5 | 30.6 | 0.00 | 0.00 | 0.00 | 39 | 1011.9 |
| 20260507183131 | 12 | 290 | 16.1 | 30.6 | 0.00 | 0.00 | 0.00 | 38 | 1011.8 |
| 20260507183014 | 12 | 296 | 8.0 | 20.9 | 0.00 | 0.00 | 0.00 | 37 | 1011.8 |
| 20260507182939 | 12 | 257 | 4.8 | 20.9 | 0.00 | 0.00 | 0.00 | 39 | 1011.9 |
| 20260507182822 | 12 | 40 | 4.8 | 20.9 | 0.00 | 0.00 | 0.00 | 43 | 1011.8 |
| 20260507182710 | 12 | 277 | 9.7 | 20.9 | 0.00 | 0.00 | 0.00 | 41 | 1011.9 |
| 20260507182615 | 12 | 270 | 11.3 | 20.9 | 0.00 | 0.00 | 0.00 | 39 | 1011.9 |
| 20260507182519 | 12 | 267 | 8.0 | 20.9 | 0.00 | 0.00 | 0.00 | 35 | 1011.9 |
| 20260507182421 | 12 | 298 | 8.0 | 20.9 | 0.00 | 0.00 | 0.00 | 37 | 1012.0 |
| 20260507182324 | 12 | 60 | 11.3 | 20.9 | 0.00 | 0.00 | 0.00 | 34 | 1011.9 |
| 20260507182228 | 12 | 17 | 12.9 | 20.9 | 0.00 | 0.00 | 0.00 | 38 | 1012.0 |
| 20260507182115 | 12 | 351 | 9.7 | 20.9 | 0.00 | 0.00 | 0.00 | 40 | 1012.0 |
| 20260507182018 | 12 | 355 | 6.4 | 20.9 | 0.00 | 0.00 | 0.00 | 41 | 1012.0 |
| 20260507181922 | 12 | 11 | 6.4 | 20.9 | 0.00 | 0.00 | 0.00 | 39 | 1012.0 |
| 20260507181806 | 12 | 37 | 12.9 | 20.9 | 0.00 | 0.00 | 0.00 | 39 | 1012.0 |
| 20260507181710 | 11 | 10 | 14.5 | 20.9 | 0.00 | 0.00 | 0.00 | 38 | 1012.1 |
| 20260507181614 | 11 | 349 | 12.9 | 20.9 | 0.00 | 0.00 | 0.00 | 39 | 1012.0 |
| 20260507181522 | 11 | 20 | 9.7 | 16.1 | 0.00 | 0.00 | 0.00 | 38 | 1012.1 |
| 20260507181406 | 11 | 342 | 8.0 | 16.1 | 0.00 | 0.00 | 0.00 | 41 | 1012.0 |
| 20260507181330 | 11 | 13 | 8.0 | 16.1 | 0.00 | 0.00 | 0.00 | 44 | 1012.0 |
| 20260507181207 | 11 | 337 | 8.0 | 16.1 | 0.00 | 0.00 | 0.00 | 41 | 1012.1 |
| 20260507181111 | 11 | 287 | 11.3 | 16.1 | 0.00 | 0.00 | 0.00 | 40 | 1012.1 |
| 20260507181018 | 11 | 307 | 9.7 | 16.1 | 0.00 | 0.00 | 0.00 | 41 | 1012.0 |
| 20260507180907 | 11 | 304 | 4.8 | 14.5 | 0.00 | 0.00 | 0.00 | 39 | 1012.0 |
| 20260507180831 | 11 | 5 | 8.0 | 17.7 | 0.00 | 0.00 | 0.00 | 39 | 1012.0 |
| 20260507180713 | 11 | 280 | 8.0 | 17.7 | 0.00 | 0.00 | 0.00 | 40 | 1012.1 |
| 20260507180617 | 11 | 301 | 6.4 | 17.7 | 0.00 | 0.00 | 0.00 | 41 | 1012.0 |
| 20260507180522 | 11 | 347 | 8.0 | 17.7 | 0.00 | 0.00 | 0.00 | 41 | 1012.0 |
| 20260507180407 | 11 | 355 | 9.7 | 17.7 | 0.00 | 0.00 | 0.00 | 42 | 1012.1 |
| 20260507180330 | 11 | 63 | 8.0 | 17.7 | 0.00 | 0.00 | 0.00 | 41 | 1012.1 |
| 20260507180217 | 11 | 63 | 8.0 | 24.1 | 0.00 | 0.00 | 0.00 | 41 | 1012.2 |
| 20260507180119 | 11 | 32 | 9.7 | 24.1 | 0.00 | 0.00 | 0.00 | 40 | 1012.1 |
| 20260507180020 | 11 | 59 | 9.7 | 24.1 | 0.00 | 0.00 | 0.00 | 38 | 1012.3 |
| 20260507175921 | 11 | 61 | 9.7 | 24.1 | 0.00 | 0.00 | 0.00 | 38 | 1012.3 |
| 20260507175822 | 11 | 27 | 9.7 | 24.1 | 0.00 | 0.00 | 0.00 | 39 | 1012.3 |
| 20260507175724 | 11 | 39 | 9.7 | 24.1 | 0.00 | 0.00 | 0.00 | 38 | 1012.3 |
| 20260507175630 | 11 | 57 | 12.9 | 24.1 | 0.00 | 0.00 | 0.00 | 38 | 1012.3 |
| 20260507175505 | 11 | 11 | 14.5 | 24.1 | 0.00 | 0.00 | 0.00 | 39 | 1012.4 |
| 20260507175410 | 11 | 14 | 12.9 | 24.1 | 0.00 | 0.00 | 0.00 | 40 | 1012.3 |
| 20260507175314 | 11 | 12 | 11.3 | 20.9 | 0.00 | 0.00 | 0.00 | 38 | 1012.4 |
| 20260507175218 | 11 | 345 | 14.5 | 20.9 | 0.00 | 0.00 | 0.00 | 40 | 1012.3 |
| 20260507175122 | 11 | 337 | 11.3 | 20.9 | 0.00 | 0.00 | 0.00 | 38 | 1012.4 |
| 20260507175011 | 11 | 340 | 4.8 | 20.9 | 0.00 | 0.00 | 0.00 | 39 | 1012.3 |
| 20260507174913 | 11 | 5 | 9.7 | 20.9 | 0.00 | 0.00 | 0.00 | 36 | 1012.3 |
| 20260507174815 | 11 | 360 | 14.5 | 20.9 | 0.00 | 0.00 | 0.00 | 38 | 1012.3 |
| 20260507174721 | 11 | 336 | 12.9 | 20.9 | 0.00 | 0.00 | 0.00 | 39 | 1012.5 |
| 20260507174626 | 11 | 13 | 9.7 | 19.3 | 0.00 | 0.00 | 0.00 | 40 | 1012.4 |
| 20260507174550 | 11 | 355 | 9.7 | 17.7 | 0.00 | 0.00 | 0.00 | 37 | 1012.4 |
| 20260507174415 | 11 | 25 | 8.0 | 17.7 | 0.00 | 0.00 | 0.00 | 40 | 1012.4 |
| 20260507174339 | 11 | 343 | 6.4 | 16.1 | 0.00 | 0.00 | 0.00 | 39 | 1012.4 |
| 20260507174224 | 11 | 355 | 6.4 | 16.1 | 0.00 | 0.00 | 0.00 | 38 | 1012.4 |
| 20260507174109 | 11 | 251 | 8.0 | 17.7 | 0.00 | 0.00 | 0.00 | 37 | 1012.3 |
| 20260507174030 | 11 | 276 | 8.0 | 17.7 | 0.00 | 0.00 | 0.00 | 40 | 1012.3 |
| 20260507173907 | 11 | 343 | 8.0 | 17.7 | 0.00 | 0.00 | 0.00 | 42 | 1012.4 |
| 20260507173810 | 11 | 355 | 6.4 | 17.7 | 0.00 | 0.00 | 0.00 | 39 | 1012.4 |
| 20260507173718 | 11 | 9 | 3.2 | 17.7 | 0.00 | 0.00 | 0.00 | 40 | 1012.4 |
| 20260507173620 | 11 | 278 | 6.4 | 17.7 | 0.00 | 0.00 | 0.00 | 44 | 1012.4 |
| 20260507173524 | 11 | 321 | 8.0 | 17.7 | 0.00 | 0.00 | 0.00 | 42 | 1012.4 |
| 20260507173428 | 11 | 5 | 9.7 | 17.7 | 0.00 | 0.00 | 0.00 | 42 | 1012.5 |
| 20260507173309 | 11 | 306 | 8.0 | 17.7 | 0.00 | 0.00 | 0.00 | 39 | 1012.5 |
| 20260507173213 | 11 | 57 | 9.7 | 16.1 | 0.00 | 0.00 | 0.00 | 39 | 1012.5 |
| 20260507173137 | 11 | 18 | 9.7 | 17.7 | 0.00 | 0.00 | 0.00 | 41 | 1012.5 |
| 20260507173023 | 11 | 11 | 8.0 | 19.3 | 0.00 | 0.00 | 0.00 | 43 | 1012.5 |
| 20260507172908 | 11 | 308 | 4.8 | 19.3 | 0.00 | 0.00 | 0.00 | 43 | 1012.5 |
| 20260507172811 | 11 | 17 | 4.8 | 19.3 | 0.00 | 0.00 | 0.00 | 42 | 1012.4 |
| 20260507172715 | 11 | 15 | 6.4 | 19.3 | 0.00 | 0.00 | 0.00 | 39 | 1012.5 |
| 20260507172637 | 11 | 38 | 8.0 | 19.3 | 0.00 | 0.00 | 0.00 | 38 | 1012.5 |
| 20260507172517 | 11 | 46 | 8.0 | 19.3 | 0.00 | 0.00 | 0.00 | 38 | 1012.6 |
| 20260507172417 | 11 | 36 | 9.7 | 19.3 | 0.00 | 0.00 | 0.00 | 39 | 1012.6 |
| 20260507172323 | 11 | 39 | 11.3 | 19.3 | 0.00 | 0.00 | 0.00 | 41 | 1012.6 |
| 20260507172207 | 10 | 344 | 12.9 | 19.3 | 0.00 | 0.00 | 0.00 | 41 | 1012.6 |
| 20260507172131 | 10 | 360 | 12.9 | 19.3 | 0.00 | 0.00 | 0.00 | 41 | 1012.6 |
| 20260507172007 | 10 | 360 | 9.7 | 19.3 | 0.00 | 0.00 | 0.00 | 44 | 1012.6 |
| 20260507171911 | 10 | 341 | 8.0 | 16.1 | 0.00 | 0.00 | 0.00 | 42 | 1012.5 |
| 20260507171816 | 10 | 21 | 8.0 | 16.1 | 0.00 | 0.00 | 0.00 | 42 | 1012.5 |
| 20260507171724 | 10 | 336 | 9.7 | 17.7 | 0.00 | 0.00 | 0.00 | 43 | 1012.5 |
| 20260507171648 | 10 | 54 | 9.7 | 17.7 | 0.00 | 0.00 | 0.00 | 40 | 1012.6 |
| 20260507171507 | 10 | 32 | 9.7 | 17.7 | 0.00 | 0.00 | 0.00 | 43 | 1012.6 |
| 20260507171432 | 10 | 69 | 6.4 | 17.7 | 0.00 | 0.00 | 0.00 | 41 | 1012.6 |
| 20260507171311 | 10 | 65 | 4.8 | 17.7 | 0.00 | 0.00 | 0.00 | 39 | 1012.5 |
| 20260507171235 | 10 | 121 | 8.0 | 19.3 | 0.00 | 0.00 | 0.00 | 38 | 1012.5 |
| 20260507171116 | 10 | 110 | 9.7 | 19.3 | 0.00 | 0.00 | 0.00 | 40 | 1012.5 |
| 20260507171022 | 10 | 88 | 11.3 | 19.3 | 0.00 | 0.00 | 0.00 | 42 | 1012.6 |
| 20260507170905 | 10 | 65 | 12.9 | 19.3 | 0.00 | 0.00 | 0.00 | 41 | 1012.7 |
| 20260507170829 | 10 | 71 | 11.3 | 19.3 | 0.00 | 0.00 | 0.00 | 39 | 1012.6 |
| 20260507170711 | 10 | 87 | 9.7 | 19.3 | 0.00 | 0.00 | 0.00 | 39 | 1012.6 |
| 20260507170612 | 11 | 77 | 8.0 | 19.3 | 0.00 | 0.00 | 0.00 | 39 | 1012.7 |
| 20260507170533 | 11 | 61 | 9.7 | 19.3 | 0.00 | 0.00 | 0.00 | 39 | 1012.7 |
| 20260507170413 | 11 | 58 | 9.7 | 19.3 | 0.00 | 0.00 | 0.00 | 39 | 1012.8 |
| 20260507170317 | 11 | 71 | 8.0 | 19.3 | 0.00 | 0.00 | 0.00 | 41 | 1012.7 |
| 20260507170222 | 11 | 36 | 9.7 | 19.3 | 0.00 | 0.00 | 0.00 | 40 | 1012.7 |
| 20260507170126 | 11 | 320 | 14.5 | 19.3 | 0.00 | 0.00 | 0.00 | 42 | 1012.7 |
| 20260507170008 | 11 | 22 | 11.3 | 19.3 | 0.00 | 0.00 | 0.00 | 43 | 1012.8 |
| 20260507165932 | 11 | 10 | 9.7 | 19.3 | 0.00 | 0.00 | 0.00 | 42 | 1012.7 |
| 20260507165807 | 11 | 335 | 8.0 | 14.5 | 0.00 | 0.00 | 0.00 | 43 | 1012.7 |
| 20260507165711 | 11 | 42 | 8.0 | 14.5 | 0.00 | 0.00 | 0.00 | 44 | 1012.8 |
| 20260507165620 | 11 | 9 | 6.4 | 14.5 | 0.00 | 0.00 | 0.00 | 43 | 1012.8 |
| 20260507165541 | 10 | 290 | 6.4 | 9.7 | 0.00 | 0.00 | 0.00 | 43 | 1012.8 |
| 20260507165424 | 10 | 16 | 4.8 | 8.0 | 0.00 | 0.00 | 0.00 | 44 | 1012.9 |
| 20260507165347 | 10 | 321 | 4.8 | 8.0 | 0.00 | 0.00 | 0.00 | 45 | 1012.7 |
| 20260507165251 | 10 | 5 | 4.8 | 11.3 | 0.00 | 0.00 | 0.00 | 43 | 1012.8 |
| 20260507165107 | 10 | 166 | 1.6 | 12.9 | 0.00 | 0.00 | 0.00 | 46 | 1012.8 |
| 20260507165011 | 10 | 166 | 1.6 | 12.9 | 0.00 | 0.00 | 0.00 | 45 | 1012.8 |
| 20260507164936 | 10 | 166 | 1.6 | 12.9 | 0.00 | 0.00 | 0.00 | 44 | 1012.8 |
| 20260507164822 | 10 | 166 | 1.6 | 12.9 | 0.00 | 0.00 | 0.00 | 45 | 1012.8 |
| 20260507164726 | 10 | 166 | 1.6 | 17.7 | 0.00 | 0.00 | 0.00 | 41 | 1012.8 |
| 20260507164627 | 10 | 142 | 4.8 | 17.7 | 0.00 | 0.00 | 0.00 | 40 | 1012.7 |
| 20260507164509 | 10 | 142 | 8.0 | 19.3 | 0.00 | 0.00 | 0.00 | 41 | 1012.8 |
| 20260507164433 | 10 | 121 | 6.4 | 19.3 | 0.00 | 0.00 | 0.00 | 41 | 1012.8 |
| 20260507164316 | 10 | 96 | 6.4 | 19.3 | 0.00 | 0.00 | 0.00 | 42 | 1013.0 |
| 20260507164240 | 10 | 67 | 8.0 | 19.3 | 0.00 | 0.00 | 0.00 | 44 | 1013.0 |
| 20260507164107 | 10 | 46 | 8.0 | 19.3 | 0.00 | 0.00 | 0.00 | 42 | 1013.1 |
| 20260507164010 | 10 | 355 | 8.0 | 19.3 | 0.00 | 0.00 | 0.00 | 43 | 1013.0 |
| 20260507163934 | 10 | 344 | 12.9 | 19.3 | 0.00 | 0.00 | 0.00 | 41 | 1013.0 |
| 20260507163817 | 10 | 342 | 14.5 | 19.3 | 0.00 | 0.00 | 0.00 | 40 | 1013.1 |
| 20260507163737 | 10 | 360 | 11.3 | 19.3 | 0.00 | 0.00 | 0.00 | 41 | 1013.1 |
| 20260507163621 | 10 | 360 | 4.8 | 17.7 | 0.00 | 0.00 | 0.00 | 43 | 1013.1 |
| 20260507163508 | 10 | 24 | 4.8 | 17.7 | 0.00 | 0.00 | 0.00 | 45 | 1013.0 |
| 20260507163412 | 10 | 14 | 8.0 | 19.3 | 0.00 | 0.00 | 0.00 | 41 | 1013.1 |
| 20260507163313 | 10 | 355 | 9.7 | 19.3 | 0.00 | 0.00 | 0.00 | 41 | 1013.1 |
| 20260507163215 | 10 | 45 | 12.9 | 19.3 | 0.00 | 0.00 | 0.00 | 41 | 1013.1 |
| 20260507163116 | 10 | 360 | 12.9 | 19.3 | 0.00 | 0.00 | 0.00 | 40 | 1013.1 |
| 20260507163017 | 10 | 360 | 9.7 | 19.3 | 0.00 | 0.00 | 0.00 | 41 | 1013.1 |
| 20260507162938 | 10 | 206 | 6.4 | 19.3 | 0.00 | 0.00 | 0.00 | 39 | 1013.1 |
| 20260507162824 | 10 | 12 | 8.0 | 19.3 | 0.00 | 0.00 | 0.00 | 40 | 1013.0 |
| 20260507162723 | 10 | 26 | 11.3 | 19.3 | 0.00 | 0.00 | 0.00 | 43 | 1013.3 |
| 20260507162627 | 10 | 335 | 11.3 | 19.3 | 0.00 | 0.00 | 0.00 | 41 | 1013.2 |
| 20260507162508 | 10 | 338 | 11.3 | 19.3 | 0.00 | 0.00 | 0.00 | 42 | 1013.2 |
| 20260507162413 | 10 | 332 | 11.3 | 19.3 | 0.00 | 0.00 | 0.00 | 44 | 1013.2 |
| 20260507162337 | 10 | 294 | 8.0 | 17.7 | 0.00 | 0.00 | 0.00 | 46 | 1013.2 |
| 20260507162220 | 10 | 355 | 9.7 | 14.5 | 0.00 | 0.00 | 0.00 | 44 | 1013.2 |
| 20260507162127 | 10 | 63 | 9.7 | 14.5 | 0.00 | 0.00 | 0.00 | 43 | 1013.2 |
| 20260507162011 | 10 | 51 | 6.4 | 14.5 | 0.00 | 0.00 | 0.00 | 45 | 1013.2 |
| 20260507161914 | 10 | 69 | 4.8 | 12.9 | 0.00 | 0.00 | 0.00 | 43 | 1013.2 |
| 20260507161839 | 10 | 25 | 8.0 | 12.9 | 0.00 | 0.00 | 0.00 | 42 | 1013.1 |
| 20260507161719 | 10 | 78 | 9.7 | 16.1 | 0.00 | 0.00 | 0.00 | 41 | 1013.2 |
| 20260507161642 | 10 | 79 | 6.4 | 17.7 | 0.00 | 0.00 | 0.00 | 43 | 1013.2 |
| 20260507161545 | 10 | 92 | 4.8 | 17.7 | 0.00 | 0.00 | 0.00 | 41 | 1013.2 |
| 20260507161411 | 10 | 64 | 4.8 | 17.7 | 0.00 | 0.00 | 0.00 | 44 | 1013.2 |
| 20260507161335 | 10 | 110 | 4.8 | 17.7 | 0.00 | 0.00 | 0.00 | 45 | 1013.2 |
| 20260507161239 | 10 | 71 | 4.8 | 17.7 | 0.00 | 0.00 | 0.00 | 45 | 1013.3 |
| 20260507161124 | 10 | 44 | 6.4 | 17.7 | 0.00 | 0.00 | 0.00 | 44 | 1013.2 |
| 20260507161029 | 10 | 30 | 9.7 | 17.7 | 0.00 | 0.00 | 0.00 | 40 | 1013.3 |
| 20260507160931 | 10 | 70 | 8.0 | 17.7 | 0.00 | 0.00 | 0.00 | 43 | 1013.2 |
| 20260507160808 | 10 | 69 | 6.4 | 16.1 | 0.00 | 0.00 | 0.00 | 42 | 1013.2 |
| 20260507160709 | 10 | 60 | 4.8 | 16.1 | 0.00 | 0.00 | 0.00 | 45 | 1013.2 |
| 20260507160617 | 10 | 76 | 4.8 | 16.1 | 0.00 | 0.00 | 0.00 | 43 | 1013.3 |
| 20260507160521 | 10 | 277 | 8.0 | 17.7 | 0.00 | 0.00 | 0.00 | 42 | 1013.2 |
| 20260507160426 | 10 | 30 | 9.7 | 17.7 | 0.00 | 0.00 | 0.00 | 48 | 1013.3 |
| 20260507160328 | 10 | 338 | 9.7 | 17.7 | 0.00 | 0.00 | 0.00 | 46 | 1013.2 |
| 20260507160211 | 10 | 325 | 11.3 | 20.9 | 0.00 | 0.00 | 0.00 | 45 | 1013.2 |
| 20260507160114 | 9 | 297 | 12.9 | 20.9 | 0.00 | 0.00 | 0.00 | 45 | 1013.2 |
| 20260507160022 | 9 | 280 | 11.3 | 20.9 | 0.00 | 0.00 | 0.00 | 44 | 1013.2 |
| 20260507155946 | 9 | 355 | 11.3 | 20.9 | 0.00 | 0.00 | 0.00 | 46 | 1013.1 |
| 20260507155828 | 9 | 304 | 9.7 | 20.9 | 0.00 | 0.00 | 0.00 | 43 | 1013.3 |
| 20260507155752 | 9 | 338 | 12.9 | 20.9 | 0.00 | 0.00 | 0.00 | 45 | 1013.3 |
| 20260507155608 | 9 | 331 | 12.9 | 20.9 | 0.00 | 0.00 | 0.00 | 45 | 1013.3 |
| 20260507155512 | 9 | 321 | 12.9 | 20.9 | 0.00 | 0.00 | 0.00 | 49 | 1013.2 |
| 20260507155416 | 9 | 305 | 11.3 | 20.9 | 0.00 | 0.00 | 0.00 | 46 | 1013.2 |
| 20260507155324 | 9 | 287 | 9.7 | 17.7 | 0.00 | 0.00 | 0.00 | 45 | 1013.2 |
| 20260507155207 | 9 | 298 | 8.0 | 16.1 | 0.00 | 0.00 | 0.00 | 45 | 1013.2 |
| 20260507155110 | 9 | 311 | 4.8 | 12.9 | 0.00 | 0.00 | 0.00 | 47 | 1013.2 |
| 20260507155014 | 9 | 329 | 4.8 | 14.5 | 0.00 | 0.00 | 0.00 | 49 | 1013.3 |
| 20260507154917 | 9 | 86 | 3.2 | 14.5 | 0.00 | 0.00 | 0.00 | 46 | 1013.3 |
| 20260507154821 | 9 | 57 | 4.8 | 14.5 | 0.00 | 0.00 | 0.00 | 46 | 1013.2 |
| 20260507154729 | 9 | 57 | 6.4 | 14.5 | 0.00 | 0.00 | 0.00 | 46 | 1013.3 |
| 20260507154606 | 9 | 65 | 8.0 | 14.5 | 0.00 | 0.00 | 0.00 | 45 | 1013.3 |
| 20260507154510 | 9 | 71 | 8.0 | 14.5 | 0.00 | 0.00 | 0.00 | 47 | 1013.3 |
| 20260507154433 | 9 | 69 | 6.4 | 14.5 | 0.00 | 0.00 | 0.00 | 48 | 1013.3 |
| 20260507154316 | 9 | 47 | 8.0 | 14.5 | 0.00 | 0.00 | 0.00 | 48 | 1013.2 |
| 20260507154239 | 9 | 360 | 6.4 | 14.5 | 0.00 | 0.00 | 0.00 | 49 | 1013.3 |
| 20260507154123 | 9 | 26 | 4.8 | 8.0 | 0.00 | 0.00 | 0.00 | 48 | 1013.3 |
| 20260507154011 | 8 | 325 | 4.8 | 8.0 | 0.00 | 0.00 | 0.00 | 49 | 1013.2 |
| 20260507153914 | 8 | 319 | 6.4 | 8.0 | 0.00 | 0.00 | 0.00 | 49 | 1013.3 |
| 20260507153818 | 8 | 5 | 6.4 | 8.0 | 0.00 | 0.00 | 0.00 | 48 | 1013.3 |
| 20260507153721 | 8 | 338 | 4.8 | 8.0 | 0.00 | 0.00 | 0.00 | 49 | 1013.3 |
| 20260507153605 | 8 | 327 | 3.2 | 8.0 | 0.00 | 0.00 | 0.00 | 48 | 1013.3 |
| 20260507153509 | 8 | 290 | 3.2 | 14.5 | 0.00 | 0.00 | 0.00 | 47 | 1013.3 |
| 20260507153417 | 8 | 338 | 4.8 | 14.5 | 0.00 | 0.00 | 0.00 | 48 | 1013.3 |
| 20260507153321 | 8 | 336 | 4.8 | 14.5 | 0.00 | 0.00 | 0.00 | 48 | 1013.3 |
| 20260507153225 | 8 | 344 | 4.8 | 14.5 | 0.00 | 0.00 | 0.00 | 49 | 1013.3 |
| 20260507153128 | 8 | 246 | 4.8 | 14.5 | 0.00 | 0.00 | 0.00 | 48 | 1013.3 |
| 20260507153012 | 8 | 247 | 3.2 | 16.1 | 0.00 | 0.00 | 0.00 | 51 | 1013.3 |
| 20260507152933 | 8 | 70 | 4.8 | 16.1 | 0.00 | 0.00 | 0.00 | 48 | 1013.3 |
| 20260507152817 | 8 | 70 | 6.4 | 19.3 | 0.00 | 0.00 | 0.00 | 48 | 1013.3 |
| 20260507152744 | 8 | 30 | 8.0 | 20.9 | 0.00 | 0.00 | 0.00 | 49 | 1013.4 |
| 20260507152608 | 8 | 331 | 6.4 | 20.9 | 0.00 | 0.00 | 0.00 | 50 | 1013.3 |
| 20260507152532 | 8 | 300 | 4.8 | 20.9 | 0.00 | 0.00 | 0.00 | 48 | 1013.4 |
| 20260507152414 | 8 | 279 | 8.0 | 20.9 | 0.00 | 0.00 | 0.00 | 47 | 1013.3 |
| 20260507152318 | 8 | 277 | 9.7 | 20.9 | 0.00 | 0.00 | 0.00 | 49 | 1013.3 |
| 20260507152241 | 8 | 275 | 9.7 | 20.9 | 0.00 | 0.00 | 0.00 | 50 | 1013.4 |
| 20260507152144 | 8 | 32 | 11.3 | 20.9 | 0.00 | 0.00 | 0.00 | 47 | 1013.4 |
| 20260507152010 | 8 | 19 | 9.7 | 20.9 | 0.00 | 0.00 | 0.00 | 48 | 1013.4 |
| 20260507151914 | 8 | 5 | 8.0 | 20.9 | 0.00 | 0.00 | 0.00 | 50 | 1013.4 |
| 20260507151818 | 8 | 30 | 9.7 | 17.7 | 0.00 | 0.00 | 0.00 | 49 | 1013.4 |
| 20260507151723 | 8 | 338 | 8.0 | 20.9 | 0.00 | 0.00 | 0.00 | 50 | 1013.3 |
| 20260507151608 | 8 | 19 | 6.4 | 20.9 | 0.00 | 0.00 | 0.00 | 49 | 1013.3 |
| 20260507151511 | 8 | 322 | 4.8 | 20.9 | 0.00 | 0.00 | 0.00 | 50 | 1013.3 |
| 20260507151434 | 8 | 289 | 6.4 | 20.9 | 0.00 | 0.00 | 0.00 | 49 | 1013.4 |
| 20260507151321 | 8 | 28 | 6.4 | 20.9 | 0.00 | 0.00 | 0.00 | 47 | 1013.4 |
| 20260507151206 | 8 | 338 | 4.8 | 20.9 | 0.00 | 0.00 | 0.00 | 51 | 1013.4 |
| 20260507151109 | 8 | 303 | 6.4 | 20.9 | 0.00 | 0.00 | 0.00 | 51 | 1013.4 |
| 20260507151014 | 8 | 325 | 11.3 | 20.9 | 0.00 | 0.00 | 0.00 | 49 | 1013.4 |
| 20260507150918 | 8 | 290 | 12.9 | 20.9 | 0.00 | 0.00 | 0.00 | 51 | 1013.4 |
| 20260507150841 | 8 | 294 | 6.4 | 17.7 | 0.00 | 0.00 | 0.00 | 50 | 1013.4 |
| 20260507150728 | 8 | 329 | 3.2 | 12.9 | 0.00 | 0.00 | 0.00 | 49 | 1013.4 |
| 20260507150630 | 8 | 288 | 1.6 | 12.9 | 0.00 | 0.00 | 0.00 | 49 | 1013.4 |
| 20260507150506 | 8 | 288 | 4.8 | 14.5 | 0.00 | 0.00 | 0.00 | 51 | 1013.4 |
| 20260507150410 | 8 | 292 | 8.0 | 14.5 | 0.00 | 0.00 | 0.00 | 51 | 1013.4 |
| 20260507150333 | 8 | 298 | 8.0 | 14.5 | 0.00 | 0.00 | 0.00 | 50 | 1013.5 |
| 20260507150236 | 8 | 325 | 4.8 | 14.5 | 0.00 | 0.00 | 0.00 | 51 | 1013.5 |
| 20260507150118 | 8 | 342 | 4.8 | 14.5 | 0.00 | 0.00 | 0.00 | 51 | 1013.4 |
| 20260507150006 | 8 | 285 | 8.0 | 16.1 | 0.00 | 0.00 | 0.00 | 49 | 1013.4 |
| 20260507145929 | 8 | 292 | 11.3 | 16.1 | 0.00 | 0.00 | 0.00 | 50 | 1013.4 |
| 20260507145812 | 8 | 298 | 11.3 | 16.1 | 0.00 | 0.00 | 0.00 | 51 | 1013.3 |
| 20260507145736 | 8 | 273 | 9.7 | 16.1 | 0.00 | 0.00 | 0.00 | 50 | 1013.4 |
| 20260507145620 | 8 | 313 | 8.0 | 16.1 | 0.00 | 0.00 | 0.00 | 52 | 1013.4 |
| 20260507145544 | 8 | 339 | 8.0 | 16.1 | 0.00 | 0.00 | 0.00 | 52 | 1013.4 |
| 20260507145407 | 8 | 9 | 11.3 | 16.1 | 0.00 | 0.00 | 0.00 | 50 | 1013.4 |
| 20260507145309 | 8 | 344 | 9.7 | 16.1 | 0.00 | 0.00 | 0.00 | 50 | 1013.4 |
| 20260507145217 | 8 | 294 | 8.0 | 16.1 | 0.00 | 0.00 | 0.00 | 50 | 1013.4 |
| 20260507145121 | 8 | 292 | 8.0 | 12.9 | 0.00 | 0.00 | 0.00 | 51 | 1013.5 |
| 20260507145024 | 8 | 360 | 8.0 | 12.9 | 0.00 | 0.00 | 0.00 | 52 | 1013.5 |
| 20260507144928 | 8 | 5 | 6.4 | 12.9 | 0.00 | 0.00 | 0.00 | 53 | 1013.5 |
| 20260507144805 | 8 | 44 | 3.2 | 12.9 | 0.00 | 0.00 | 0.00 | 53 | 1013.5 |
| 20260507144709 | 7 | 44 | 3.2 | 12.9 | 0.00 | 0.00 | 0.00 | 54 | 1013.5 |
| 20260507144618 | 7 | 71 | 3.2 | 12.9 | 0.00 | 0.00 | 0.00 | 54 | 1013.5 |
| 20260507144523 | 7 | 72 | 3.2 | 12.9 | 0.00 | 0.00 | 0.00 | 51 | 1013.5 |
| 20260507144407 | 7 | 70 | 3.2 | 12.9 | 0.00 | 0.00 | 0.00 | 53 | 1013.4 |
| 20260507144310 | 7 | 44 | 4.8 | 12.9 | 0.00 | 0.00 | 0.00 | 54 | 1013.5 |
| 20260507144214 | 7 | 40 | 6.4 | 12.9 | 0.00 | 0.00 | 0.00 | 51 | 1013.5 |
| 20260507144118 | 7 | 38 | 8.0 | 12.9 | 0.00 | 0.00 | 0.00 | 51 | 1013.6 |
| 20260507144005 | 7 | 55 | 6.4 | 12.9 | 0.00 | 0.00 | 0.00 | 51 | 1013.5 |
| 20260507143909 | 7 | 30 | 6.4 | 12.9 | 0.00 | 0.00 | 0.00 | 54 | 1013.5 |
| 20260507143831 | 7 | 355 | 4.8 | 9.7 | 0.00 | 0.00 | 0.00 | 54 | 1013.6 |
| 20260507143714 | 7 | 16 | 3.2 | 11.3 | 0.00 | 0.00 | 0.00 | 53 | 1013.5 |
| 20260507143618 | 7 | 20 | 3.2 | 9.7 | 0.00 | 0.00 | 0.00 | 52 | 1013.4 |
| 20260507143521 | 7 | 17 | 4.8 | 9.7 | 0.00 | 0.00 | 0.00 | 52 | 1013.5 |
| 20260507143429 | 7 | 5 | 6.4 | 9.7 | 0.00 | 0.00 | 0.00 | 54 | 1013.4 |
| 20260507143306 | 7 | 360 | 4.8 | 9.7 | 0.00 | 0.00 | 0.00 | 54 | 1013.5 |
| 20260507143209 | 7 | 336 | 3.2 | 8.0 | 0.00 | 0.00 | 0.00 | 54 | 1013.4 |
| 20260507143113 | 7 | 46 | 4.8 | 11.3 | 0.00 | 0.00 | 0.00 | 53 | 1013.4 |
| 20260507143038 | 7 | 26 | 6.4 | 11.3 | 0.00 | 0.00 | 0.00 | 53 | 1013.4 |
| 20260507142919 | 7 | 35 | 4.8 | 11.3 | 0.00 | 0.00 | 0.00 | 56 | 1013.5 |
| 20260507142808 | 7 | 360 | 4.8 | 11.3 | 0.00 | 0.00 | 0.00 | 55 | 1013.5 |
| 20260507142732 | 7 | 290 | 6.4 | 11.3 | 0.00 | 0.00 | 0.00 | 55 | 1013.4 |
| 20260507142615 | 7 | 264 | 4.8 | 11.3 | 0.00 | 0.00 | 0.00 | 57 | 1013.5 |
| 20260507142539 | 7 | 276 | 4.8 | 11.3 | 0.00 | 0.00 | 0.00 | 58 | 1013.4 |
| 20260507142422 | 7 | 273 | 6.4 | 11.3 | 0.00 | 0.00 | 0.00 | 57 | 1013.5 |
| 20260507142326 | 7 | 257 | 6.4 | 11.3 | 0.00 | 0.00 | 0.00 | 56 | 1013.5 |
| 20260507142209 | 7 | 241 | 4.8 | 9.7 | 0.00 | 0.00 | 0.00 | 55 | 1013.5 |
| 20260507142133 | 7 | 276 | 4.8 | 9.7 | 0.00 | 0.00 | 0.00 | 56 | 1013.5 |
| 20260507142020 | 7 | 277 | 6.4 | 9.7 | 0.00 | 0.00 | 0.00 | 56 | 1013.5 |
| 20260507141924 | 7 | 292 | 4.8 | 9.7 | 0.00 | 0.00 | 0.00 | 56 | 1013.5 |
| 20260507141806 | 7 | 295 | 1.6 | 9.7 | 0.00 | 0.00 | 0.00 | 56 | 1013.5 |
| 20260507141709 | 7 | 342 | 1.6 | 9.7 | 0.00 | 0.00 | 0.00 | 55 | 1013.5 |
| 20260507141614 | 7 | 341 | 3.2 | 9.7 | 0.00 | 0.00 | 0.00 | 56 | 1013.5 |
| 20260507141518 | 7 | 340 | 4.8 | 9.7 | 0.00 | 0.00 | 0.00 | 55 | 1013.5 |
| 20260507141406 | 7 | 327 | 4.8 | 9.7 | 0.00 | 0.00 | 0.00 | 55 | 1013.5 |
| 20260507141310 | 7 | 321 | 6.4 | 8.0 | 0.00 | 0.00 | 0.00 | 57 | 1013.5 |
| 20260507141213 | 7 | 321 | 6.4 | 8.0 | 0.00 | 0.00 | 0.00 | 57 | 1013.5 |
| 20260507141137 | 7 | 303 | 3.2 | 8.0 | 0.00 | 0.00 | 0.00 | 58 | 1013.5 |
| 20260507141019 | 7 | 236 | 1.6 | 8.0 | 0.00 | 0.00 | 0.00 | 58 | 1013.6 |
| 20260507140922 | 7 | 238 | 3.2 | 8.0 | 0.00 | 0.00 | 0.00 | 59 | 1013.6 |
| 20260507140826 | 6 | 219 | 3.2 | 12.9 | 0.00 | 0.00 | 0.00 | 59 | 1013.6 |
| 20260507140729 | 6 | 217 | 3.2 | 12.9 | 0.00 | 0.00 | 0.00 | 58 | 1013.6 |
| 20260507140616 | 6 | 355 | 4.8 | 12.9 | 0.00 | 0.00 | 0.00 | 58 | 1013.7 |
| 20260507140540 | 6 | 345 | 4.8 | 12.9 | 0.00 | 0.00 | 0.00 | 59 | 1013.7 |
| 20260507140442 | 6 | 336 | 4.8 | 12.9 | 0.00 | 0.00 | 0.00 | 61 | 1013.8 |
| 20260507140305 | 6 | 287 | 3.2 | 12.9 | 0.00 | 0.00 | 0.00 | 58 | 1013.8 |
| 20260507140210 | 6 | 288 | 4.8 | 12.9 | 0.00 | 0.00 | 0.00 | 59 | 1013.7 |
| 20260507140114 | 6 | 281 | 6.4 | 12.9 | 0.00 | 0.00 | 0.00 | 58 | 1013.7 |
| 20260507140017 | 6 | 301 | 6.4 | 12.9 | 0.00 | 0.00 | 0.00 | 59 | 1013.7 |
| 20260507135925 | 6 | 298 | 6.4 | 12.9 | 0.00 | 0.00 | 0.00 | 59 | 1013.7 |
| 20260507135848 | 6 | 289 | 6.4 | 12.9 | 0.00 | 0.00 | 0.00 | 59 | 1013.7 |
| 20260507135752 | 6 | 302 | 6.4 | 12.9 | 0.00 | 0.00 | 0.00 | 60 | 1013.8 |
| 20260507135605 | 6 | 297 | 8.0 | 12.9 | 0.00 | 0.00 | 0.00 | 60 | 1013.7 |
| 20260507135508 | 6 | 297 | 8.0 | 12.9 | 0.00 | 0.00 | 0.00 | 61 | 1013.7 |
| 20260507135411 | 6 | 264 | 9.7 | 12.9 | 0.00 | 0.00 | 0.00 | 60 | 1013.7 |
| 20260507135334 | 6 | 292 | 9.7 | 12.9 | 0.00 | 0.00 | 0.00 | 61 | 1013.7 |
| 20260507135236 | 6 | 273 | 8.0 | 9.7 | 0.00 | 0.00 | 0.00 | 62 | 1013.7 |
| 20260507135121 | 6 | 281 | 6.4 | 9.7 | 0.00 | 0.00 | 0.00 | 62 | 1013.7 |
| 20260507135005 | 6 | 282 | 6.4 | 11.3 | 0.00 | 0.00 | 0.00 | 61 | 1013.8 |
| 20260507134908 | 6 | 308 | 6.4 | 11.3 | 0.00 | 0.00 | 0.00 | 61 | 1013.8 |
| 20260507134811 | 6 | 290 | 4.8 | 11.3 | 0.00 | 0.00 | 0.00 | 62 | 1013.8 |
| 20260507134714 | 6 | 327 | 4.8 | 9.7 | 0.00 | 0.00 | 0.00 | 63 | 1013.8 |
| 20260507134617 | 6 | 291 | 6.4 | 9.7 | 0.00 | 0.00 | 0.00 | 62 | 1013.8 |
| 20260507134524 | 6 | 313 | 4.8 | 11.3 | 0.00 | 0.00 | 0.00 | 63 | 1013.8 |
| 20260507134426 | 6 | 350 | 3.2 | 9.7 | 0.00 | 0.00 | 0.00 | 63 | 1013.8 |
| 20260507134310 | 6 | 304 | 4.8 | 9.7 | 0.00 | 0.00 | 0.00 | 64 | 1013.7 |
| 20260507134213 | 6 | 325 | 4.8 | 9.7 | 0.00 | 0.00 | 0.00 | 65 | 1013.8 |
| 20260507134117 | 6 | 300 | 4.8 | 9.7 | 0.00 | 0.00 | 0.00 | 65 | 1013.8 |
| 20260507134022 | 6 | 279 | 6.4 | 9.7 | 0.00 | 0.00 | 0.00 | 65 | 1013.8 |
| 20260507133944 | 6 | 293 | 3.2 | 14.5 | 0.00 | 0.00 | 0.00 | 65 | 1013.8 |
| 20260507133851 | 5 | 296 | 3.2 | 14.5 | 0.00 | 0.00 | 0.00 | 66 | 1013.8 |
| 20260507133706 | 5 | 345 | 4.8 | 14.5 | 0.00 | 0.00 | 0.00 | 66 | 1013.8 |
| 20260507133609 | 5 | 344 | 4.8 | 14.5 | 0.00 | 0.00 | 0.00 | 66 | 1013.8 |
| 20260507133513 | 5 | 306 | 4.8 | 14.5 | 0.00 | 0.00 | 0.00 | 67 | 1013.8 |
| 20260507133416 | 5 | 318 | 6.4 | 14.5 | 0.00 | 0.00 | 0.00 | 67 | 1013.8 |
| 20260507133320 | 5 | 298 | 6.4 | 14.5 | 0.00 | 0.00 | 0.00 | 67 | 1013.8 |
| 20260507133208 | 5 | 283 | 9.7 | 14.5 | 0.00 | 0.00 | 0.00 | 67 | 1013.8 |
| 20260507133113 | 5 | 302 | 11.3 | 14.5 | 0.00 | 0.00 | 0.00 | 68 | 1013.8 |
| 20260507133037 | 5 | 294 | 9.7 | 12.9 | 0.00 | 0.00 | 0.00 | 69 | 1013.8 |
| 20260507132921 | 5 | 290 | 6.4 | 12.9 | 0.00 | 0.00 | 0.00 | 70 | 1013.8 |
| 20260507132805 | 5 | 295 | 4.8 | 12.9 | 0.00 | 0.00 | 0.00 | 69 | 1013.9 |
| 20260507132710 | 5 | 304 | 4.8 | 12.9 | 0.00 | 0.00 | 0.00 | 70 | 1013.8 |
| 20260507132619 | 5 | 303 | 6.4 | 12.9 | 0.00 | 0.00 | 0.00 | 71 | 1013.8 |
| 20260507132523 | 5 | 325 | 6.4 | 12.9 | 0.00 | 0.00 | 0.00 | 72 | 1013.8 |
| 20260507132408 | 5 | 302 | 4.8 | 9.7 | 0.00 | 0.00 | 0.00 | 73 | 1013.8 |
| 20260507132311 | 5 | 342 | 3.2 | 9.7 | 0.00 | 0.00 | 0.00 | 73 | 1013.8 |
| 20260507132236 | 5 | 319 | 3.2 | 9.7 | 0.00 | 0.00 | 0.00 | 73 | 1013.8 |
| 20260507132119 | 4 | 331 | 3.2 | 9.7 | 0.00 | 0.00 | 0.00 | 73 | 1013.8 |
| 20260507132005 | 4 | 337 | 4.8 | 9.7 | 0.00 | 0.00 | 0.00 | 72 | 1013.8 |
| 20260507131929 | 4 | 297 | 4.8 | 9.7 | 0.00 | 0.00 | 0.00 | 72 | 1013.9 |
| 20260507131807 | 4 | 300 | 6.4 | 9.7 | 0.00 | 0.00 | 0.00 | 72 | 1013.9 |
| 20260507131731 | 4 | 309 | 8.0 | 9.7 | 0.00 | 0.00 | 0.00 | 72 | 1013.8 |
| 20260507131634 | 4 | 309 | 8.0 | 9.7 | 0.00 | 0.00 | 0.00 | 73 | 1013.8 |
| 20260507131537 | 4 | 317 | 4.8 | 8.0 | 0.00 | 0.00 | 0.00 | 74 | 1013.8 |
| 20260507131420 | 4 | 321 | 4.8 | 6.4 | 0.00 | 0.00 | 0.00 | 75 | 1013.9 |
| 20260507131344 | 4 | 313 | 3.2 | 8.0 | 0.00 | 0.00 | 0.00 | 74 | 1013.9 |
| 20260507131212 | 4 | 350 | 3.2 | 8.0 | 0.00 | 0.00 | 0.00 | 74 | 1013.8 |
| 20260507131115 | 4 | 350 | 3.2 | 8.0 | 0.00 | 0.00 | 0.00 | 74 | 1013.8 |
| 20260507131019 | 3 | 355 | 3.2 | 8.0 | 0.00 | 0.00 | 0.00 | 74 | 1013.8 |
| 20260507130923 | 3 | 342 | 3.2 | 8.0 | 0.00 | 0.00 | 0.00 | 75 | 1013.8 |
| 20260507130828 | 3 | 313 | 4.8 | 8.0 | 0.00 | 0.00 | 0.00 | 75 | 1013.8 |
| 20260507130711 | 3 | 307 | 4.8 | 8.0 | 0.00 | 0.00 | 0.00 | 75 | 1013.8 |
| 20260507130635 | 3 | 304 | 4.8 | 8.0 | 0.00 | 0.00 | 0.00 | 75 | 1013.8 |
| 20260507130523 | 3 | 320 | 6.4 | 8.0 | 0.00 | 0.00 | 0.00 | 76 | 1013.9 |
| 20260507130407 | 3 | 291 | 6.4 | 8.0 | 0.00 | 0.00 | 0.00 | 77 | 1013.8 |
| 20260507130331 | 3 | 293 | 4.8 | 6.4 | 0.00 | 0.00 | 0.00 | 77 | 1013.9 |
| 20260507130208 | 3 | 286 | 1.6 | 6.4 | 0.00 | 0.00 | 0.00 | 79 | 1013.9 |
| 20260507130113 | 3 | 284 | 1.6 | 4.8 | 0.00 | 0.00 | 0.00 | 79 | 1013.9 |
| 20260507130037 | 3 | 284 | 1.6 | 4.8 | 0.00 | 0.00 | 0.00 | 79 | 1013.9 |
| 20260507125920 | 3 | 284 | 1.6 | 4.8 | 0.00 | 0.00 | 0.00 | 79 | 1013.9 |
| 20260507125808 | 3 | 284 | 3.2 | 4.8 | 0.00 | 0.00 | 0.00 | 79 | 1013.9 |
| 20260507125713 | 3 | 284 | 3.2 | 4.8 | 0.00 | 0.00 | 0.00 | 79 | 1013.9 |
| 20260507125617 | 3 | 284 | 3.2 | 4.8 | 0.00 | 0.00 | 0.00 | 79 | 1013.9 |
| 20260507125521 | 3 | 284 | 3.2 | 6.4 | 0.00 | 0.00 | 0.00 | 80 | 1013.9 |
| 20260507125425 | 2 | 284 | 3.2 | 6.4 | 0.00 | 0.00 | 0.00 | 80 | 1013.9 |
| 20260507125313 | 2 | 285 | 3.2 | 6.4 | 0.00 | 0.00 | 0.00 | 80 | 1013.9 |
| 20260507125237 | 2 | 285 | 3.2 | 6.4 | 0.00 | 0.00 | 0.00 | 80 | 1013.9 |
| 20260507125121 | 2 | 285 | 3.2 | 6.4 | 0.00 | 0.00 | 0.00 | 81 | 1013.9 |
| 20260507124910 | 2 | 286 | 3.2 | 6.4 | 0.00 | 0.00 | 0.00 | 81 | 1014.0 |
| 20260507124815 | 2 | 285 | 4.8 | 6.4 | 0.00 | 0.00 | 0.00 | 81 | 1013.9 |
| 20260507124739 | 2 | 285 | 3.2 | 8.0 | 0.00 | 0.00 | 0.00 | 82 | 1013.9 |
| 20260507124607 | 2 | 275 | 3.2 | 8.0 | 0.00 | 0.00 | 0.00 | 83 | 1014.0 |
| 20260507124511 | 2 | 275 | 3.2 | 8.0 | 0.00 | 0.00 | 0.00 | 83 | 1013.9 |
| 20260507124416 | 2 | 275 | 4.8 | 8.0 | 0.00 | 0.00 | 0.00 | 83 | 1014.0 |
| 20260507124320 | 2 | 275 | 3.2 | 8.0 | 0.00 | 0.00 | 0.00 | 84 | 1014.0 |
| 20260507124244 | 2 | 275 | 3.2 | 8.0 | 0.00 | 0.00 | 0.00 | 84 | 1013.9 |
| 20260507124107 | 2 | 284 | 4.8 | 8.0 | 0.00 | 0.00 | 0.00 | 85 | 1013.9 |
| 20260507124031 | 2 | 282 | 4.8 | 8.0 | 0.00 | 0.00 | 0.00 | 85 | 1013.9 |
| 20260507123918 | 2 | 284 | 4.8 | 8.0 | 0.00 | 0.00 | 0.00 | 86 | 1014.0 |
| 20260507123842 | 2 | 269 | 3.2 | 6.4 | 0.00 | 0.00 | 0.00 | 86 | 1014.0 |
| 20260507123706 | 2 | 259 | 3.2 | 6.4 | 0.00 | 0.00 | 0.00 | 87 | 1014.0 |
| 20260507123629 | 1 | 259 | 3.2 | 6.4 | 0.00 | 0.00 | 0.00 | 87 | 1014.0 |
| 20260507123506 | 1 | 259 | 3.2 | 6.4 | 0.00 | 0.00 | 0.00 | 88 | 1014.0 |
| 20260507123430 | 1 | 259 | 3.2 | 6.4 | 0.00 | 0.00 | 0.00 | 88 | 1013.9 |
| 20260507123333 | 1 | 259 | 4.8 | 6.4 | 0.00 | 0.00 | 0.00 | 88 | 1013.9 |
| 20260507123220 | 1 | 258 | 3.2 | 6.4 | 0.00 | 0.00 | 0.00 | 89 | 1013.9 |
| 20260507123125 | 1 | 258 | 3.2 | 6.4 | 0.00 | 0.00 | 0.00 | 89 | 1013.9 |
| 20260507123009 | 1 | 257 | 3.2 | 4.8 | 0.00 | 0.00 | 0.00 | 89 | 1014.0 |
| 20260507122913 | 1 | 257 | 3.2 | 4.8 | 0.00 | 0.00 | 0.00 | 90 | 1014.0 |
| 20260507122818 | 1 | 257 | 3.2 | 4.8 | 0.00 | 0.00 | 0.00 | 90 | 1013.9 |
| 20260507122722 | 1 | 257 | 3.2 | 4.8 | 0.00 | 0.00 | 0.00 | 90 | 1014.0 |
| 20260507122611 | 0 | 257 | 3.2 | 4.8 | 0.00 | 0.00 | 0.00 | 91 | 1013.9 |
| 20260507122515 | 0 | 257 | 3.2 | 4.8 | 0.00 | 0.00 | 0.00 | 91 | 1013.9 |
| 20260507122418 | 0 | 257 | 3.2 | 4.8 | 0.00 | 0.00 | 0.00 | 91 | 1013.9 |
| 20260507122323 | 0 | 257 | 3.2 | 4.8 | 0.00 | 0.00 | 0.00 | 91 | 1013.9 |
| 20260507122208 | 0 | 270 | 3.2 | 4.8 | 0.00 | 0.00 | 0.00 | 90 | 1013.9 |
| 20260507122113 | 0 | 27 | 3.2 | 4.8 | 0.00 | 0.00 | 0.00 | 90 | 1013.9 |
| 20260507122021 | 0 | 35 | 1.6 | 4.8 | 0.00 | 0.00 | 0.00 | 90 | 1013.9 |
| 20260507121906 | 0 | 44 | 1.6 | 4.8 | 0.00 | 0.00 | 0.00 | 91 | 1014.0 |
| 20260507121830 | 0 | 44 | 1.6 | 4.8 | 0.00 | 0.00 | 0.00 | 91 | 1014.0 |
| 20260507121706 | 0 | 44 | 1.6 | 4.8 | 0.00 | 0.00 | 0.00 | 90 | 1014.0 |
| 20260507121610 | 0 | 51 | 3.2 | 4.8 | 0.00 | 0.00 | 0.00 | 90 | 1014.0 |
| 20260507121515 | 0 | 51 | 3.2 | 4.8 | 0.00 | 0.00 | 0.00 | 90 | 1014.0 |
| 20260507121424 | 0 | 51 | 3.2 | 4.8 | 0.00 | 0.00 | 0.00 | 89 | 1013.9 |
| 20260507121327 | 0 | 51 | 3.2 | 4.8 | 0.00 | 0.00 | 0.00 | 90 | 1013.9 |
| 20260507121230 | 0 | 52 | 3.2 | 3.2 | 0.00 | 0.00 | 0.00 | 89 | 1014.0 |
| 20260507121114 | 0 | 52 | 3.2 | 3.2 | 0.00 | 0.00 | 0.00 | 89 | 1013.9 |
| 20260507121019 | 0 | 52 | 3.2 | 3.2 | 0.00 | 0.00 | 0.00 | 90 | 1014.0 |
| 20260507120925 | 0 | 52 | 1.6 | 3.2 | 0.00 | 0.00 | 0.00 | 90 | 1013.9 |
| 20260507120830 | 0 | 52 | 0.0 | 3.2 | 0.00 | 0.00 | 0.00 | 90 | 1013.9 |
| 20260507120738 | 0 | 52 | 0.0 | 0.0 | 0.00 | 0.00 | 0.00 | 90 | 1013.9 |
| 20260507120643 | 0 | 52 | 0.0 | 0.0 | 0.00 | 0.00 | 0.00 | 90 | 1013.9 |
| 20260507120507 | 0 | 52 | 0.0 | 0.0 | 0.00 | 0.00 | 0.00 | 90 | 1014.0 |
| 20260507120432 | 0 | 52 | 0.0 | 0.0 | 0.00 | 0.00 | 0.00 | 90 | 1014.0 |
| 20260507120337 | -1 | 52 | 0.0 | 0.0 | 0.00 | 0.00 | 0.00 | 90 | 1014.0 |
| 20260507120222 | -1 | 52 | 0.0 | 0.0 | 0.00 | 0.00 | 0.00 | 91 | 1014.0 |
| 20260507120127 | -1 | 52 | 0.0 | 0.0 | 0.00 | 0.00 | 0.00 | 91 | 1013.9 |
| 20260507120012 | -1 | 52 | 0.0 | 0.0 | 0.00 | 0.00 | 0.00 | 91 | 1014.0 |
| 20260507115942 | -1 | 52 | 0.0 | 0.0 | 0.00 | 0.00 | 0.00 | 91 | 1013.9 |
| 20260507115806 | -1 | 52 | 0.0 | 0.0 | 0.00 | 0.00 | 0.00 | 91 | 1013.9 |
| 20260507115710 | -1 | 52 | 0.0 | 0.0 | 0.00 | 0.00 | 0.00 | 91 | 1013.9 |
| 20260507115613 | -1 | 52 | 0.0 | 0.0 | 0.00 | 0.00 | 0.00 | 91 | 1013.9 |
| 20260507115532 | -1 | 52 | 0.0 | 0.0 | 0.00 | 0.00 | 0.00 | 91 | 1013.9 |
| 20260507115412 | -1 | 52 | 0.0 | 0.0 | 0.00 | 0.00 | 0.00 | 90 | 1013.9 |
| 20260507115312 | -1 | 52 | 0.0 | 1.6 | 0.00 | 0.00 | 0.00 | 90 | 1013.9 |
| 20260507115217 | -1 | 52 | 0.0 | 1.6 | 0.00 | 0.00 | 0.00 | 90 | 1013.9 |
| 20260507115118 | -1 | 52 | 0.0 | 1.6 | 0.00 | 0.00 | 0.00 | 90 | 1013.9 |
| 20260507115018 | -1 | 52 | 0.0 | 1.6 | 0.00 | 0.00 | 0.00 | 90 | 1013.9 |
| 20260507114939 | -1 | 52 | 0.0 | 1.6 | 0.00 | 0.00 | 0.00 | 90 | 1013.9 |
| 20260507114819 | -1 | 52 | 0.0 | 1.6 | 0.00 | 0.00 | 0.00 | 90 | 1014.0 |
| 20260507114721 | -1 | 52 | 0.0 | 1.6 | 0.00 | 0.00 | 0.00 | 91 | 1013.9 |
| 20260507114642 | -1 | 52 | 0.0 | 1.6 | 0.00 | 0.00 | 0.00 | 91 | 1013.9 |
| 20260507114506 | -1 | 52 | 0.0 | 1.6 | 0.00 | 0.00 | 0.00 | 91 | 1013.9 |
| 20260507114411 | -1 | 70 | 0.0 | 0.0 | 0.00 | 0.00 | 0.00 | 90 | 1013.9 |
| 20260507114314 | -1 | 70 | 0.0 | 0.0 | 0.00 | 0.00 | 0.00 | 90 | 1013.9 |
| 20260507114218 | -1 | 70 | 0.0 | 0.0 | 0.00 | 0.00 | 0.00 | 90 | 1014.0 |
| 20260507114143 | -1 | 70 | 0.0 | 0.0 | 0.00 | 0.00 | 0.00 | 90 | 1014.0 |
| 20260507114005 | -2 | 70 | 0.0 | 0.0 | 0.00 | 0.00 | 0.00 | 90 | 1014.0 |
| 20260507113930 | -2 | 70 | 0.0 | 0.0 | 0.00 | 0.00 | 0.00 | 90 | 1013.9 |
| 20260507113837 | -2 | 70 | 0.0 | 0.0 | 0.00 | 0.00 | 0.00 | 90 | 1014.0 |
| 20260507113721 | -2 | 70 | 0.0 | 0.0 | 0.00 | 0.00 | 0.00 | 90 | 1013.9 |
| 20260507113605 | -2 | 70 | 0.0 | 0.0 | 0.00 | 0.00 | 0.00 | 90 | 1013.9 |
| 20260507113511 | -2 | 70 | 0.0 | 0.0 | 0.00 | 0.00 | 0.00 | 90 | 1014.0 |
| 20260507113414 | -2 | 70 | 0.0 | 0.0 | 0.00 | 0.00 | 0.00 | 90 | 1013.9 |
| 20260507113339 | -2 | 70 | 0.0 | 0.0 | 0.00 | 0.00 | 0.00 | 90 | 1013.9 |
| 20260507113221 | -2 | 70 | 0.0 | 0.0 | 0.00 | 0.00 | 0.00 | 90 | 1013.9 |
| 20260507113109 | -2 | 70 | 0.0 | 0.0 | 0.00 | 0.00 | 0.00 | 89 | 1013.8 |
| 20260507113013 | -2 | 70 | 0.0 | 0.0 | 0.00 | 0.00 | 0.00 | 89 | 1013.8 |
| 20260507112937 | -2 | 70 | 0.0 | 0.0 | 0.00 | 0.00 | 0.00 | 89 | 1013.9 |
| 20260507112819 | -2 | 70 | 0.0 | 0.0 | 0.00 | 0.00 | 0.00 | 89 | 1013.8 |
| 20260507112705 | -2 | 70 | 0.0 | 0.0 | 0.00 | 0.00 | 0.00 | 89 | 1013.9 |
| 20260507112631 | -2 | 70 | 0.0 | 0.0 | 0.00 | 0.00 | 0.00 | 89 | 1013.8 |
| 20260507112520 | -2 | 70 | 0.0 | 0.0 | 0.00 | 0.00 | 0.00 | 89 | 1014.0 |
| 20260507112425 | -2 | 70 | 0.0 | 0.0 | 0.00 | 0.00 | 0.00 | 89 | 1013.8 |
| 20260507112310 | -2 | 70 | 0.0 | 0.0 | 0.00 | 0.00 | 0.00 | 89 | 1013.8 |
| 20260507112215 | -2 | 70 | 0.0 | 0.0 | 0.00 | 0.00 | 0.00 | 89 | 1013.8 |
| 20260507112122 | -2 | 70 | 0.0 | 0.0 | 0.00 | 0.00 | 0.00 | 89 | 1013.8 |
| 20260507112007 | -2 | 70 | 0.0 | 0.0 | 0.00 | 0.00 | 0.00 | 89 | 1013.8 |
| 20260507111914 | -2 | 70 | 0.0 | 0.0 | 0.00 | 0.00 | 0.00 | 89 | 1013.8 |
| 20260507111818 | -2 | 70 | 0.0 | 0.0 | 0.00 | 0.00 | 0.00 | 89 | 1013.8 |
| 20260507111723 | -2 | 70 | 0.0 | 0.0 | 0.00 | 0.00 | 0.00 | 88 | 1013.9 |
| 20260507111607 | -2 | 70 | 0.0 | 0.0 | 0.00 | 0.00 | 0.00 | 88 | 1013.8 |
| 20260507111511 | -2 | 70 | 0.0 | 0.0 | 0.00 | 0.00 | 0.00 | 88 | 1013.9 |
| 20260507111435 | -2 | 70 | 0.0 | 0.0 | 0.00 | 0.00 | 0.00 | 88 | 1013.9 |
| 20260507111322 | -2 | 70 | 0.0 | 0.0 | 0.00 | 0.00 | 0.00 | 88 | 1013.9 |
| 20260507111225 | -2 | 70 | 0.0 | 0.0 | 0.00 | 0.00 | 0.00 | 88 | 1014.0 |
| 20260507111110 | -2 | 70 | 0.0 | 0.0 | 0.00 | 0.00 | 0.00 | 88 | 1014.0 |
| 20260507111013 | -2 | 70 | 0.0 | 0.0 | 0.00 | 0.00 | 0.00 | 88 | 1013.9 |
| 20260507110917 | -2 | 70 | 0.0 | 0.0 | 0.00 | 0.00 | 0.00 | 88 | 1013.9 |
| 20260507110821 | -2 | 70 | 0.0 | 0.0 | 0.00 | 0.00 | 0.00 | 88 | 1014.0 |
| 20260507110708 | -2 | 70 | 0.0 | 0.0 | 0.00 | 0.00 | 0.00 | 88 | 1014.0 |
| 20260507110613 | -2 | 70 | 0.0 | 0.0 | 0.00 | 0.00 | 0.00 | 88 | 1014.0 |
| 20260507110538 | -2 | 70 | 0.0 | 0.0 | 0.00 | 0.00 | 0.00 | 88 | 1014.0 |
| 20260507110422 | -2 | 70 | 0.0 | 0.0 | 0.00 | 0.00 | 0.00 | 88 | 1013.9 |
| 20260507110345 | -2 | 70 | 0.0 | 0.0 | 0.00 | 0.00 | 0.00 | 88 | 1014.0 |
| 20260507110209 | -1 | 70 | 0.0 | 0.0 | 0.00 | 0.00 | 0.00 | 88 | 1014.0 |
| 20260507110132 | -1 | 70 | 0.0 | 0.0 | 0.00 | 0.00 | 0.00 | 88 | 1014.0 |
| 20260507110019 | -1 | 70 | 0.0 | 0.0 | 0.00 | 0.00 | 0.00 | 88 | 1014.0 |
| 20260507105924 | -1 | 70 | 0.0 | 0.0 | 0.00 | 0.00 | 0.00 | 88 | 1014.0 |
| 20260507105827 | -1 | 70 | 0.0 | 1.6 | 0.00 | 0.00 | 0.00 | 88 | 1014.0 |
| 20260507105710 | -1 | 70 | 0.0 | 3.2 | 0.00 | 0.00 | 0.00 | 88 | 1014.0 |
| 20260507105635 | -1 | 360 | 0.0 | 3.2 | 0.00 | 0.00 | 0.00 | 88 | 1014.0 |
| 20260507105517 | -1 | 360 | 0.0 | 3.2 | 0.00 | 0.00 | 0.00 | 88 | 1014.0 |
| 20260507105420 | -1 | 360 | 0.0 | 3.2 | 0.00 | 0.00 | 0.00 | 88 | 1013.9 |
| 20260507105307 | -1 | 51 | 0.0 | 4.8 | 0.00 | 0.00 | 0.00 | 89 | 1013.9 |
| 20260507105231 | -1 | 51 | 0.0 | 4.8 | 0.00 | 0.00 | 0.00 | 89 | 1013.9 |
| 20260507105113 | -1 | 51 | 0.0 | 4.8 | 0.00 | 0.00 | 0.00 | 89 | 1013.9 |
| 20260507105016 | -1 | 51 | 1.6 | 4.8 | 0.00 | 0.00 | 0.00 | 89 | 1014.0 |
| 20260507104920 | -1 | 51 | 1.6 | 4.8 | 0.00 | 0.00 | 0.00 | 89 | 1013.9 |
| 20260507104822 | -1 | 51 | 1.6 | 4.8 | 0.00 | 0.00 | 0.00 | 89 | 1014.0 |
| 20260507104746 | -1 | 51 | 1.6 | 4.8 | 0.00 | 0.00 | 0.00 | 89 | 1013.9 |
| 20260507104632 | -1 | 51 | 1.6 | 4.8 | 0.00 | 0.00 | 0.00 | 89 | 1013.8 |
| 20260507104508 | -1 | 51 | 3.2 | 4.8 | 0.00 | 0.00 | 0.00 | 89 | 1013.9 |
| 20260507104411 | -1 | 51 | 3.2 | 4.8 | 0.00 | 0.00 | 0.00 | 89 | 1013.8 |
| 20260507104314 | -1 | 51 | 4.8 | 4.8 | 0.00 | 0.00 | 0.00 | 89 | 1013.9 |
| 20260507104217 | -1 | 51 | 4.8 | 4.8 | 0.00 | 0.00 | 0.00 | 89 | 1013.8 |
| 20260507104120 | -1 | 51 | 3.2 | 4.8 | 0.00 | 0.00 | 0.00 | 89 | 1013.9 |
| 20260507104006 | -1 | 51 | 3.2 | 4.8 | 0.00 | 0.00 | 0.00 | 89 | 1013.8 |
| 20260507103930 | -1 | 51 | 1.6 | 3.2 | 0.00 | 0.00 | 0.00 | 88 | 1013.8 |
| 20260507103832 | -1 | 51 | 1.6 | 3.2 | 0.00 | 0.00 | 0.00 | 88 | 1013.7 |
| 20260507103708 | -1 | 51 | 1.6 | 3.2 | 0.00 | 0.00 | 0.00 | 89 | 1013.8 |
| 20260507103612 | -1 | 51 | 1.6 | 3.2 | 0.00 | 0.00 | 0.00 | 89 | 1013.8 |
| 20260507103515 | -1 | 51 | 1.6 | 3.2 | 0.00 | 0.00 | 0.00 | 89 | 1013.8 |
| 20260507103438 | -1 | 51 | 1.6 | 3.2 | 0.00 | 0.00 | 0.00 | 89 | 1013.8 |
| 20260507103341 | -1 | 51 | 1.6 | 3.2 | 0.00 | 0.00 | 0.00 | 89 | 1013.8 |
| 20260507103206 | -1 | 51 | 1.6 | 4.8 | 0.00 | 0.00 | 0.00 | 89 | 1013.8 |
| 20260507103109 | -1 | 51 | 1.6 | 4.8 | 0.00 | 0.00 | 0.00 | 89 | 1013.8 |
| 20260507103012 | -1 | 51 | 1.6 | 4.8 | 0.00 | 0.00 | 0.00 | 89 | 1013.8 |
| 20260507102914 | -1 | 51 | 1.6 | 6.4 | 0.00 | 0.00 | 0.00 | 89 | 1013.8 |
| 20260507102817 | -1 | 51 | 1.6 | 6.4 | 0.00 | 0.00 | 0.00 | 89 | 1013.8 |
| 20260507102721 | -1 | 51 | 3.2 | 6.4 | 0.00 | 0.00 | 0.00 | 89 | 1013.8 |
| 20260507102607 | -1 | 51 | 3.2 | 6.4 | 0.00 | 0.00 | 0.00 | 89 | 1013.8 |
| 20260507102530 | -1 | 51 | 3.2 | 6.4 | 0.00 | 0.00 | 0.00 | 89 | 1013.8 |
| 20260507102432 | -1 | 51 | 3.2 | 6.4 | 0.00 | 0.00 | 0.00 | 89 | 1013.9 |
| 20260507102315 | -1 | 51 | 3.2 | 6.4 | 0.00 | 0.00 | 0.00 | 89 | 1013.8 |
| 20260507102238 | -1 | 51 | 4.8 | 6.4 | 0.00 | 0.00 | 0.00 | 89 | 1013.9 |
| 20260507102120 | -1 | 51 | 4.8 | 6.4 | 0.00 | 0.00 | 0.00 | 89 | 1013.8 |
| 20260507102044 | -1 | 51 | 4.8 | 6.4 | 0.00 | 0.00 | 0.00 | 89 | 1013.9 |
| 20260507101910 | -1 | 51 | 4.8 | 6.4 | 0.00 | 0.00 | 0.00 | 89 | 1013.9 |
| 20260507101813 | -1 | 51 | 4.8 | 6.4 | 0.00 | 0.00 | 0.00 | 89 | 1013.9 |
| 20260507101714 | -1 | 51 | 3.2 | 6.4 | 0.00 | 0.00 | 0.00 | 90 | 1013.9 |
| 20260507101615 | -1 | 263 | 0.0 | 3.2 | 0.00 | 0.00 | 0.00 | 89 | 1013.9 |
| 20260507101516 | -1 | 263 | 0.0 | 3.2 | 0.00 | 0.00 | 0.00 | 90 | 1013.9 |
| 20260507101416 | -1 | 263 | 0.0 | 3.2 | 0.00 | 0.00 | 0.00 | 89 | 1013.8 |
| 20260507101320 | -1 | 263 | 0.0 | 3.2 | 0.00 | 0.00 | 0.00 | 89 | 1013.7 |
| 20260507101206 | -1 | 263 | 0.0 | 4.8 | 0.00 | 0.00 | 0.00 | 89 | 1013.8 |
| 20260507101130 | -1 | 263 | 0.0 | 4.8 | 0.00 | 0.00 | 0.00 | 89 | 1013.8 |
| 20260507101006 | -1 | 263 | 1.6 | 4.8 | 0.00 | 0.00 | 0.00 | 89 | 1013.7 |
| 20260507100929 | -1 | 263 | 1.6 | 4.8 | 0.00 | 0.00 | 0.00 | 89 | 1013.8 |
| 20260507100830 | -1 | 263 | 1.6 | 4.8 | 0.00 | 0.00 | 0.00 | 89 | 1013.8 |
| 20260507100714 | -1 | 263 | 1.6 | 4.8 | 0.00 | 0.00 | 0.00 | 89 | 1013.8 |
| 20260507100618 | -1 | 263 | 1.6 | 4.8 | 0.00 | 0.00 | 0.00 | 89 | 1013.8 |
| 20260507100507 | -1 | 263 | 3.2 | 4.8 | 0.00 | 0.00 | 0.00 | 89 | 1013.7 |
| 20260507100430 | -1 | 263 | 3.2 | 4.8 | 0.00 | 0.00 | 0.00 | 89 | 1013.8 |
| 20260507100333 | -1 | 263 | 3.2 | 4.8 | 0.00 | 0.00 | 0.00 | 89 | 1013.8 |
| 20260507100208 | -1 | 263 | 3.2 | 4.8 | 0.00 | 0.00 | 0.00 | 89 | 1013.8 |
| 20260507100111 | -1 | 263 | 3.2 | 4.8 | 0.00 | 0.00 | 0.00 | 89 | 1013.7 |
| 20260507100036 | -1 | 263 | 3.2 | 4.8 | 0.00 | 0.00 | 0.00 | 89 | 1013.8 |
| 20260507095920 | -1 | 263 | 3.2 | 4.8 | 0.00 | 0.00 | 0.00 | 89 | 1013.8 |
| 20260507095809 | -1 | 263 | 3.2 | 4.8 | 0.00 | 0.00 | 0.00 | 89 | 1013.8 |
| 20260507095713 | -1 | 263 | 3.2 | 4.8 | 0.00 | 0.00 | 0.00 | 89 | 1013.8 |
| 20260507095618 | -1 | 263 | 3.2 | 3.2 | 0.00 | 0.00 | 0.00 | 89 | 1013.8 |
| 20260507095521 | -1 | 263 | 1.6 | 3.2 | 0.00 | 0.00 | 0.00 | 89 | 1013.9 |
| 20260507095446 | -1 | 263 | 1.6 | 3.2 | 0.00 | 0.00 | 0.00 | 89 | 1013.9 |
| 20260507095308 | -1 | 263 | 0.0 | 0.0 | 0.00 | 0.00 | 0.00 | 89 | 1013.9 |
| 20260507095237 | -1 | 263 | 0.0 | 0.0 | 0.00 | 0.00 | 0.00 | 89 | 1013.8 |
| 20260507095121 | -1 | 263 | 0.0 | 0.0 | 0.00 | 0.00 | 0.00 | 89 | 1013.9 |
| 20260507095006 | -1 | 263 | 0.0 | 0.0 | 0.00 | 0.00 | 0.00 | 89 | 1013.9 |
| 20260507094911 | -1 | 263 | 0.0 | 0.0 | 0.00 | 0.00 | 0.00 | 89 | 1013.9 |
| 20260507094815 | -1 | 263 | 0.0 | 0.0 | 0.00 | 0.00 | 0.00 | 89 | 1013.9 |
| 20260507094720 | -1 | 263 | 0.0 | 0.0 | 0.00 | 0.00 | 0.00 | 89 | 1013.9 |
| 20260507094608 | -1 | 263 | 0.0 | 0.0 | 0.00 | 0.00 | 0.00 | 89 | 1013.9 |
| 20260507094533 | -1 | 263 | 0.0 | 0.0 | 0.00 | 0.00 | 0.00 | 89 | 1014.0 |
| 20260507094418 | -1 | 263 | 0.0 | 0.0 | 0.00 | 0.00 | 0.00 | 89 | 1014.0 |
| 20260507094342 | -1 | 263 | 0.0 | 0.0 | 0.00 | 0.00 | 0.00 | 89 | 1013.9 |
| 20260507094207 | -1 | 263 | 0.0 | 0.0 | 0.00 | 0.00 | 0.00 | 89 | 1013.9 |
| 20260507094111 | -1 | 263 | 0.0 | 0.0 | 0.00 | 0.00 | 0.00 | 89 | 1014.0 |
| 20260507094035 | -1 | 263 | 0.0 | 0.0 | 0.00 | 0.00 | 0.00 | 89 | 1013.9 |
| 20260507093923 | -1 | 263 | 0.0 | 0.0 | 0.00 | 0.00 | 0.00 | 89 | 1013.9 |
| 20260507093845 | -1 | 263 | 0.0 | 0.0 | 0.00 | 0.00 | 0.00 | 89 | 1013.9 |
| 20260507093710 | -1 | 263 | 0.0 | 0.0 | 0.00 | 0.00 | 0.00 | 89 | 1014.0 |
| 20260507093614 | -1 | 263 | 0.0 | 0.0 | 0.00 | 0.00 | 0.00 | 89 | 1014.0 |
| 20260507093519 | -1 | 263 | 0.0 | 0.0 | 0.00 | 0.00 | 0.00 | 89 | 1013.9 |
| 20260507093444 | -1 | 263 | 0.0 | 0.0 | 0.00 | 0.00 | 0.00 | 89 | 1014.0 |
| 20260507093307 | -1 | 263 | 0.0 | 0.0 | 0.00 | 0.00 | 0.00 | 89 | 1013.9 |
| 20260507093237 | -1 | 263 | 0.0 | 0.0 | 0.00 | 0.00 | 0.00 | 89 | 1013.9 |
| 20260507093118 | -1 | 263 | 0.0 | 0.0 | 0.00 | 0.00 | 0.00 | 89 | 1013.9 |
| 20260507093024 | -1 | 263 | 0.0 | 0.0 | 0.00 | 0.00 | 0.00 | 89 | 1013.9 |
| 20260507092927 | -1 | 263 | 0.0 | 0.0 | 0.00 | 0.00 | 0.00 | 89 | 1013.9 |
| 20260507092811 | -1 | 263 | 0.0 | 0.0 | 0.00 | 0.00 | 0.00 | 90 | 1014.0 |
| 20260507092714 | -1 | 263 | 0.0 | 0.0 | 0.00 | 0.00 | 0.00 | 90 | 1014.0 |
| 20260507092620 | -1 | 263 | 0.0 | 0.0 | 0.00 | 0.00 | 0.00 | 90 | 1014.0 |
| 20260507092508 | -1 | 263 | 0.0 | 0.0 | 0.00 | 0.00 | 0.00 | 90 | 1014.0 |
| 20260507092411 | -1 | 263 | 0.0 | 0.0 | 0.00 | 0.00 | 0.00 | 90 | 1014.0 |
| 20260507092315 | -1 | 263 | 0.0 | 0.0 | 0.00 | 0.00 | 0.00 | 90 | 1014.0 |
| 20260507092220 | -1 | 263 | 0.0 | 0.0 | 0.00 | 0.00 | 0.00 | 90 | 1014.0 |
| 20260507092122 | -1 | 263 | 0.0 | 0.0 | 0.00 | 0.00 | 0.00 | 90 | 1014.0 |
| 20260507092012 | -1 | 263 | 0.0 | 1.6 | 0.00 | 0.00 | 0.00 | 90 | 1013.9 |
| 20260507091915 | -1 | 263 | 0.0 | 1.6 | 0.00 | 0.00 | 0.00 | 90 | 1014.0 |
| 20260507091841 | -1 | 263 | 0.0 | 1.6 | 0.00 | 0.00 | 0.00 | 90 | 1014.0 |
| 20260507091706 | -1 | 263 | 0.0 | 1.6 | 0.00 | 0.00 | 0.00 | 90 | 1014.0 |
| 20260507091632 | -1 | 263 | 0.0 | 1.6 | 0.00 | 0.00 | 0.00 | 90 | 1014.0 |
| 20260507091536 | -1 | 263 | 0.0 | 1.6 | 0.00 | 0.00 | 0.00 | 90 | 1014.0 |
| 20260507091421 | -1 | 263 | 0.0 | 1.6 | 0.00 | 0.00 | 0.00 | 90 | 1014.0 |
| 20260507091311 | -1 | 263 | 0.0 | 1.6 | 0.00 | 0.00 | 0.00 | 90 | 1013.9 |
| 20260507091217 | -1 | 263 | 0.0 | 1.6 | 0.00 | 0.00 | 0.00 | 90 | 1014.0 |
| 20260507091123 | -2 | 263 | 0.0 | 1.6 | 0.00 | 0.00 | 0.00 | 90 | 1014.0 |
| 20260507091007 | -2 | 263 | 0.0 | 0.0 | 0.00 | 0.00 | 0.00 | 90 | 1014.0 |
| 20260507090934 | -2 | 263 | 0.0 | 0.0 | 0.00 | 0.00 | 0.00 | 90 | 1014.0 |
| 20260507090818 | -2 | 263 | 0.0 | 1.6 | 0.00 | 0.00 | 0.00 | 90 | 1013.9 |
| 20260507090706 | -1 | 263 | 0.0 | 1.6 | 0.00 | 0.00 | 0.00 | 90 | 1013.9 |
| 20260507090612 | -2 | 263 | 0.0 | 1.6 | 0.00 | 0.00 | 0.00 | 90 | 1013.9 |
| 20260507090517 | -2 | 263 | 0.0 | 3.2 | 0.00 | 0.00 | 0.00 | 90 | 1014.0 |
| 20260507090424 | -2 | 263 | 0.0 | 3.2 | 0.00 | 0.00 | 0.00 | 90 | 1013.9 |
| 20260507090309 | -2 | 263 | 0.0 | 3.2 | 0.00 | 0.00 | 0.00 | 90 | 1013.9 |
| 20260507090234 | -2 | 263 | 0.0 | 3.2 | 0.00 | 0.00 | 0.00 | 90 | 1013.9 |
| 20260507090137 | -2 | 263 | 0.0 | 3.2 | 0.00 | 0.00 | 0.00 | 90 | 1013.9 |
| 20260507090025 | -2 | 263 | 0.0 | 3.2 | 0.00 | 0.00 | 0.00 | 90 | 1013.9 |
| 20260507085950 | -2 | 263 | 1.6 | 3.2 | 0.00 | 0.00 | 0.00 | 90 | 1013.9 |
| 20260507085806 | -2 | 263 | 1.6 | 4.8 | 0.00 | 0.00 | 0.00 | 90 | 1013.9 |
| 20260507085710 | -2 | 263 | 3.2 | 4.8 | 0.00 | 0.00 | 0.00 | 90 | 1013.9 |
| 20260507085615 | -2 | 263 | 3.2 | 4.8 | 0.00 | 0.00 | 0.00 | 90 | 1014.0 |
| 20260507085520 | -2 | 263 | 3.2 | 4.8 | 0.00 | 0.00 | 0.00 | 90 | 1013.9 |
| 20260507085409 | -2 | 263 | 3.2 | 4.8 | 0.00 | 0.00 | 0.00 | 90 | 1013.8 |
| 20260507085334 | -2 | 263 | 3.2 | 4.8 | 0.00 | 0.00 | 0.00 | 90 | 1013.9 |
| 20260507085218 | -2 | 263 | 3.2 | 4.8 | 0.00 | 0.00 | 0.00 | 90 | 1013.9 |
| 20260507085121 | -2 | 263 | 3.2 | 4.8 | 0.00 | 0.00 | 0.00 | 90 | 1013.9 |
| 20260507085045 | -2 | 263 | 3.2 | 4.8 | 0.00 | 0.00 | 0.00 | 90 | 1013.9 |
| 20260507084929 | -2 | 263 | 3.2 | 4.8 | 0.00 | 0.00 | 0.00 | 90 | 1013.8 |
| 20260507084833 | -2 | 263 | 3.2 | 4.8 | 0.00 | 0.00 | 0.00 | 90 | 1013.8 |
| 20260507084736 | -2 | 263 | 3.2 | 4.8 | 0.00 | 0.00 | 0.00 | 89 | 1013.8 |
| 20260507084619 | -2 | 263 | 3.2 | 4.8 | 0.00 | 0.00 | 0.00 | 89 | 1013.8 |
| 20260507084508 | -2 | 263 | 1.6 | 4.8 | 0.00 | 0.00 | 0.00 | 89 | 1013.8 |
| 20260507084414 | -2 | 263 | 3.2 | 4.8 | 0.00 | 0.00 | 0.00 | 89 | 1013.8 |
| 20260507084338 | -2 | 263 | 3.2 | 4.8 | 0.00 | 0.00 | 0.00 | 89 | 1013.9 |
| 20260507084221 | -2 | 263 | 3.2 | 4.8 | 0.00 | 0.00 | 0.00 | 89 | 1013.9 |
| 20260507084126 | -2 | 263 | 3.2 | 4.8 | 0.00 | 0.00 | 0.00 | 89 | 1013.8 |
| 20260507084031 | -2 | 263 | 3.2 | 4.8 | 0.00 | 0.00 | 0.00 | 89 | 1013.8 |
| 20260507083934 | -2 | 263 | 3.2 | 4.8 | 0.00 | 0.00 | 0.00 | 89 | 1013.8 |
| 20260507083821 | -2 | 263 | 3.2 | 4.8 | 0.00 | 0.00 | 0.00 | 89 | 1013.8 |
| 20260507083705 | -2 | 272 | 3.2 | 4.8 | 0.00 | 0.00 | 0.00 | 89 | 1013.8 |
| 20260507083609 | -2 | 272 | 3.2 | 4.8 | 0.00 | 0.00 | 0.00 | 89 | 1013.8 |
| 20260507083514 | -2 | 272 | 1.6 | 4.8 | 0.00 | 0.00 | 0.00 | 89 | 1013.8 |
| 20260507083438 | -2 | 272 | 1.6 | 4.8 | 0.00 | 0.00 | 0.00 | 89 | 1013.9 |
| 20260507083322 | -2 | 272 | 1.6 | 4.8 | 0.00 | 0.00 | 0.00 | 89 | 1013.9 |
| 20260507083211 | -2 | 272 | 3.2 | 4.8 | 0.00 | 0.00 | 0.00 | 89 | 1013.9 |
| 20260507083114 | -2 | 272 | 3.2 | 4.8 | 0.00 | 0.00 | 0.00 | 89 | 1013.9 |
| 20260507083018 | -2 | 272 | 3.2 | 4.8 | 0.00 | 0.00 | 0.00 | 89 | 1013.9 |
| 20260507082922 | -2 | 272 | 3.2 | 4.8 | 0.00 | 0.00 | 0.00 | 89 | 1013.9 |
| 20260507082806 | -2 | 272 | 1.6 | 3.2 | 0.00 | 0.00 | 0.00 | 88 | 1013.9 |
| 20260507082710 | -2 | 272 | 1.6 | 3.2 | 0.00 | 0.00 | 0.00 | 89 | 1013.9 |
| 20260507082635 | -2 | 272 | 1.6 | 3.2 | 0.00 | 0.00 | 0.00 | 89 | 1013.9 |
| 20260507082522 | -2 | 272 | 1.6 | 3.2 | 0.00 | 0.00 | 0.00 | 89 | 1013.9 |
| 20260507082446 | -2 | 272 | 1.6 | 3.2 | 0.00 | 0.00 | 0.00 | 89 | 1013.9 |
| 20260507082309 | -2 | 272 | 1.6 | 3.2 | 0.00 | 0.00 | 0.00 | 89 | 1013.9 |
| 20260507082212 | -2 | 272 | 1.6 | 3.2 | 0.00 | 0.00 | 0.00 | 88 | 1013.9 |
| 20260507082117 | -2 | 272 | 1.6 | 3.2 | 0.00 | 0.00 | 0.00 | 88 | 1013.9 |
| 20260507082019 | -2 | 272 | 1.6 | 4.8 | 0.00 | 0.00 | 0.00 | 88 | 1013.9 |
| 20260507081929 | -2 | 272 | 1.6 | 4.8 | 0.00 | 0.00 | 0.00 | 88 | 1013.8 |
| 20260507081805 | -2 | 272 | 1.6 | 4.8 | 0.00 | 0.00 | 0.00 | 88 | 1013.9 |
| 20260507081709 | -2 | 272 | 1.6 | 4.8 | 0.00 | 0.00 | 0.00 | 88 | 1013.9 |
| 20260507081613 | -2 | 272 | 1.6 | 4.8 | 0.00 | 0.00 | 0.00 | 88 | 1013.9 |
| 20260507081517 | -2 | 272 | 1.6 | 4.8 | 0.00 | 0.00 | 0.00 | 88 | 1013.9 |
| 20260507081420 | -2 | 272 | 3.2 | 4.8 | 0.00 | 0.00 | 0.00 | 88 | 1013.9 |
| 20260507081329 | -2 | 272 | 3.2 | 4.8 | 0.00 | 0.00 | 0.00 | 88 | 1013.9 |
| 20260507081206 | -2 | 272 | 3.2 | 4.8 | 0.00 | 0.00 | 0.00 | 88 | 1013.9 |
| 20260507081110 | -2 | 272 | 3.2 | 4.8 | 0.00 | 0.00 | 0.00 | 88 | 1013.9 |
| 20260507081012 | -2 | 275 | 3.2 | 3.2 | 0.00 | 0.00 | 0.00 | 88 | 1013.9 |
| 20260507080916 | -2 | 276 | 1.6 | 3.2 | 0.00 | 0.00 | 0.00 | 88 | 1014.0 |
| 20260507080821 | -2 | 276 | 1.6 | 3.2 | 0.00 | 0.00 | 0.00 | 88 | 1013.9 |
| 20260507080729 | -2 | 276 | 1.6 | 3.2 | 0.00 | 0.00 | 0.00 | 88 | 1013.9 |
| 20260507080606 | -2 | 276 | 1.6 | 3.2 | 0.00 | 0.00 | 0.00 | 88 | 1014.0 |
| 20260507080529 | -2 | 276 | 1.6 | 3.2 | 0.00 | 0.00 | 0.00 | 88 | 1014.0 |
| 20260507080412 | -2 | 276 | 3.2 | 3.2 | 0.00 | 0.00 | 0.00 | 88 | 1013.9 |
| 20260507080315 | -2 | 276 | 1.6 | 3.2 | 0.00 | 0.00 | 0.00 | 88 | 1014.0 |
| 20260507080240 | -2 | 276 | 1.6 | 3.2 | 0.00 | 0.00 | 0.00 | 88 | 1013.9 |
| 20260507080122 | -2 | 276 | 1.6 | 3.2 | 0.00 | 0.00 | 0.00 | 88 | 1013.9 |
| 20260507080030 | -2 | 276 | 1.6 | 3.2 | 0.00 | 0.00 | 0.00 | 88 | 1013.9 |
| 20260507075905 | -2 | 276 | 1.6 | 3.2 | 0.00 | 0.00 | 0.00 | 88 | 1013.9 |
| 20260507075829 | -2 | 276 | 1.6 | 3.2 | 0.00 | 0.00 | 0.00 | 88 | 1013.8 |
| 20260507075752 | -2 | 276 | 1.6 | 3.2 | 0.00 | 0.00 | 0.00 | 87 | 1013.9 |
| 20260507075608 | -2 | 276 | 1.6 | 3.2 | 0.00 | 0.00 | 0.00 | 87 | 1013.9 |
| 20260507075510 | -2 | 281 | 0.0 | 0.0 | 0.00 | 0.00 | 0.00 | 87 | 1013.9 |
| 20260507075434 | -2 | 281 | 0.0 | 0.0 | 0.00 | 0.00 | 0.00 | 87 | 1013.8 |
| 20260507075338 | -2 | 281 | 0.0 | 0.0 | 0.00 | 0.00 | 0.00 | 87 | 1013.8 |
| 20260507075225 | -2 | 281 | 0.0 | 0.0 | 0.00 | 0.00 | 0.00 | 87 | 1013.8 |
| 20260507075108 | -2 | 281 | 0.0 | 0.0 | 0.00 | 0.00 | 0.00 | 87 | 1013.8 |
| 20260507075013 | -2 | 281 | 0.0 | 0.0 | 0.00 | 0.00 | 0.00 | 87 | 1013.8 |
| 20260507074916 | -2 | 281 | 0.0 | 0.0 | 0.00 | 0.00 | 0.00 | 86 | 1013.8 |
| 20260507074840 | -2 | 281 | 0.0 | 0.0 | 0.00 | 0.00 | 0.00 | 86 | 1013.8 |
| 20260507074724 | -2 | 281 | 0.0 | 0.0 | 0.00 | 0.00 | 0.00 | 86 | 1013.8 |
| 20260507074613 | -2 | 281 | 0.0 | 0.0 | 0.00 | 0.00 | 0.00 | 86 | 1013.8 |
| 20260507074537 | -2 | 281 | 0.0 | 0.0 | 0.00 | 0.00 | 0.00 | 86 | 1013.8 |
| 20260507074420 | -2 | 281 | 0.0 | 0.0 | 0.00 | 0.00 | 0.00 | 86 | 1013.8 |
| 20260507074305 | -1 | 281 | 0.0 | 0.0 | 0.00 | 0.00 | 0.00 | 86 | 1013.9 |
| 20260507074210 | -1 | 281 | 0.0 | 0.0 | 0.00 | 0.00 | 0.00 | 86 | 1013.8 |
| 20260507074116 | -1 | 281 | 0.0 | 0.0 | 0.00 | 0.00 | 0.00 | 86 | 1013.9 |
| 20260507074024 | -1 | 281 | 0.0 | 0.0 | 0.00 | 0.00 | 0.00 | 86 | 1013.8 |
| 20260507073928 | -1 | 281 | 0.0 | 0.0 | 0.00 | 0.00 | 0.00 | 86 | 1013.8 |
| 20260507073812 | -1 | 281 | 0.0 | 0.0 | 0.00 | 0.00 | 0.00 | 86 | 1013.9 |
| 20260507073717 | -1 | 281 | 0.0 | 0.0 | 0.00 | 0.00 | 0.00 | 86 | 1013.8 |
| 20260507073621 | -1 | 281 | 0.0 | 0.0 | 0.00 | 0.00 | 0.00 | 86 | 1013.8 |
| 20260507073526 | -1 | 281 | 0.0 | 0.0 | 0.00 | 0.00 | 0.00 | 86 | 1013.9 |
| 20260507073408 | -1 | 281 | 0.0 | 0.0 | 0.00 | 0.00 | 0.00 | 86 | 1013.9 |
| 20260507073317 | -1 | 281 | 0.0 | 0.0 | 0.00 | 0.00 | 0.00 | 86 | 1013.9 |
| 20260507073222 | -1 | 281 | 0.0 | 0.0 | 0.00 | 0.00 | 0.00 | 86 | 1013.9 |
| 20260507073107 | -1 | 281 | 0.0 | 0.0 | 0.00 | 0.00 | 0.00 | 86 | 1014.0 |
| 20260507073012 | -1 | 281 | 0.0 | 0.0 | 0.00 | 0.00 | 0.00 | 86 | 1013.9 |
| 20260507072916 | -1 | 281 | 0.0 | 0.0 | 0.00 | 0.00 | 0.00 | 86 | 1014.0 |
| 20260507072820 | -1 | 281 | 0.0 | 0.0 | 0.00 | 0.00 | 0.00 | 86 | 1014.0 |
| 20260507072729 | -1 | 281 | 0.0 | 0.0 | 0.00 | 0.00 | 0.00 | 86 | 1014.1 |
| 20260507072605 | -1 | 281 | 0.0 | 0.0 | 0.00 | 0.00 | 0.00 | 86 | 1014.0 |
| 20260507072528 | -1 | 281 | 0.0 | 0.0 | 0.00 | 0.00 | 0.00 | 86 | 1014.1 |
| 20260507072405 | -1 | 281 | 0.0 | 0.0 | 0.00 | 0.00 | 0.00 | 86 | 1014.1 |
| 20260507072330 | -1 | 281 | 0.0 | 0.0 | 0.00 | 0.00 | 0.00 | 86 | 1014.1 |
| 20260507072214 | -1 | 281 | 0.0 | 0.0 | 0.00 | 0.00 | 0.00 | 86 | 1014.1 |
| 20260507072122 | -1 | 281 | 0.0 | 0.0 | 0.00 | 0.00 | 0.00 | 86 | 1014.1 |
| 20260507072027 | -1 | 281 | 0.0 | 0.0 | 0.00 | 0.00 | 0.00 | 86 | 1014.1 |
| 20260507071910 | -1 | 281 | 0.0 | 0.0 | 0.00 | 0.00 | 0.00 | 85 | 1014.2 |
| 20260507071835 | -1 | 281 | 0.0 | 0.0 | 0.00 | 0.00 | 0.00 | 85 | 1014.2 |
| 20260507071739 | -1 | 281 | 0.0 | 0.0 | 0.00 | 0.00 | 0.00 | 85 | 1014.1 |
| 20260507071623 | -1 | 281 | 0.0 | 0.0 | 0.00 | 0.00 | 0.00 | 85 | 1014.3 |
| 20260507071506 | -1 | 281 | 0.0 | 0.0 | 0.00 | 0.00 | 0.00 | 85 | 1014.2 |
| 20260507071415 | -1 | 281 | 0.0 | 0.0 | 0.00 | 0.00 | 0.00 | 85 | 1014.2 |
| 20260507071318 | -1 | 281 | 0.0 | 0.0 | 0.00 | 0.00 | 0.00 | 85 | 1014.3 |
| 20260507071222 | -1 | 281 | 0.0 | 0.0 | 0.00 | 0.00 | 0.00 | 85 | 1014.3 |
| 20260507071106 | -1 | 281 | 0.0 | 0.0 | 0.00 | 0.00 | 0.00 | 85 | 1014.3 |
| 20260507071010 | -1 | 281 | 0.0 | 0.0 | 0.00 | 0.00 | 0.00 | 85 | 1014.3 |
| 20260507070936 | -1 | 281 | 0.0 | 0.0 | 0.00 | 0.00 | 0.00 | 85 | 1014.3 |
| 20260507070818 | -1 | 281 | 0.0 | 0.0 | 0.00 | 0.00 | 0.00 | 84 | 1014.3 |
| 20260507070707 | -1 | 281 | 0.0 | 0.0 | 0.00 | 0.00 | 0.00 | 84 | 1014.3 |
| 20260507070630 | -1 | 281 | 0.0 | 0.0 | 0.00 | 0.00 | 0.00 | 84 | 1014.4 |
| 20260507070505 | -1 | 281 | 0.0 | 0.0 | 0.00 | 0.00 | 0.00 | 84 | 1014.3 |
| 20260507070409 | -1 | 281 | 0.0 | 0.0 | 0.00 | 0.00 | 0.00 | 84 | 1014.4 |
| 20260507070313 | -1 | 281 | 0.0 | 0.0 | 0.00 | 0.00 | 0.00 | 84 | 1014.4 |
| 20260507070217 | -1 | 281 | 0.0 | 0.0 | 0.00 | 0.00 | 0.00 | 84 | 1014.4 |
| 20260507070144 | -1 | 281 | 0.0 | 0.0 | 0.00 | 0.00 | 0.00 | 84 | 1014.4 |
| 20260507070010 | -1 | 281 | 0.0 | 0.0 | 0.00 | 0.00 | 0.00 | 84 | 1014.4 |
| 20260507065929 | -1 | 281 | 0.0 | 0.0 | 0.00 | 0.00 | 0.00 | 84 | 1014.4 |
| 20260507065831 | -1 | 281 | 0.0 | 0.0 | 0.00 | 0.00 | 0.00 | 84 | 1014.4 |
| 20260507065713 | -1 | 281 | 0.0 | 0.0 | 0.00 | 0.00 | 0.00 | 83 | 1014.4 |
| 20260507065616 | -1 | 281 | 0.0 | 0.0 | 0.00 | 0.00 | 0.00 | 83 | 1014.5 |
| 20260507065519 | -1 | 281 | 0.0 | 0.0 | 0.00 | 0.00 | 0.00 | 83 | 1014.5 |
| 20260507065406 | -1 | 281 | 0.0 | 0.0 | 0.00 | 0.00 | 0.00 | 83 | 1014.5 |
| 20260507065310 | -1 | 281 | 0.0 | 0.0 | 0.00 | 0.00 | 0.00 | 83 | 1014.5 |
| 20260507065235 | -1 | 281 | 0.0 | 0.0 | 0.00 | 0.00 | 0.00 | 83 | 1014.5 |
| 20260507065119 | -1 | 281 | 0.0 | 0.0 | 0.00 | 0.00 | 0.00 | 82 | 1014.5 |
| 20260507065024 | -1 | 281 | 0.0 | 0.0 | 0.00 | 0.00 | 0.00 | 82 | 1014.5 |
| 20260507064928 | 0 | 281 | 0.0 | 0.0 | 0.00 | 0.00 | 0.00 | 81 | 1014.5 |
| 20260507064811 | 0 | 281 | 0.0 | 0.0 | 0.00 | 0.00 | 0.00 | 81 | 1014.5 |
| 20260507064739 | 0 | 281 | 0.0 | 0.0 | 0.00 | 0.00 | 0.00 | 81 | 1014.5 |
| 20260507064622 | 0 | 281 | 0.0 | 0.0 | 0.00 | 0.00 | 0.00 | 81 | 1014.5 |
| 20260507064527 | 0 | 281 | 0.0 | 0.0 | 0.00 | 0.00 | 0.00 | 81 | 1014.6 |
| 20260507064410 | 0 | 281 | 0.0 | 0.0 | 0.00 | 0.00 | 0.00 | 80 | 1014.5 |
| 20260507064316 | 0 | 281 | 0.0 | 0.0 | 0.00 | 0.00 | 0.00 | 81 | 1014.5 |
| 20260507064219 | 0 | 281 | 0.0 | 0.0 | 0.00 | 0.00 | 0.00 | 80 | 1014.5 |
| 20260507064106 | 0 | 281 | 0.0 | 0.0 | 0.00 | 0.00 | 0.00 | 80 | 1014.6 |
| 20260507064009 | 0 | 281 | 0.0 | 0.0 | 0.00 | 0.00 | 0.00 | 80 | 1014.6 |
| 20260507063929 | 0 | 281 | 0.0 | 0.0 | 0.00 | 0.00 | 0.00 | 80 | 1014.5 |
| 20260507063805 | 0 | 281 | 0.0 | 0.0 | 0.00 | 0.00 | 0.00 | 80 | 1014.6 |
| 20260507063709 | 0 | 281 | 0.0 | 0.0 | 0.00 | 0.00 | 0.00 | 80 | 1014.5 |
| 20260507063613 | 0 | 281 | 0.0 | 0.0 | 0.00 | 0.00 | 0.00 | 80 | 1014.5 |
| 20260507063518 | 0 | 281 | 0.0 | 0.0 | 0.00 | 0.00 | 0.00 | 80 | 1014.6 |
| 20260507063407 | 0 | 281 | 0.0 | 0.0 | 0.00 | 0.00 | 0.00 | 80 | 1014.5 |
| 20260507063330 | 0 | 281 | 0.0 | 0.0 | 0.00 | 0.00 | 0.00 | 80 | 1014.5 |
| 20260507063213 | 0 | 281 | 0.0 | 0.0 | 0.00 | 0.00 | 0.00 | 80 | 1014.5 |
| 20260507063117 | 0 | 281 | 0.0 | 0.0 | 0.00 | 0.00 | 0.00 | 80 | 1014.6 |
| 20260507063022 | 0 | 281 | 0.0 | 0.0 | 0.00 | 0.00 | 0.00 | 80 | 1014.6 |
| 20260507062926 | 0 | 281 | 0.0 | 0.0 | 0.00 | 0.00 | 0.00 | 80 | 1014.6 |
| 20260507062813 | 0 | 281 | 0.0 | 0.0 | 0.00 | 0.00 | 0.00 | 80 | 1014.6 |
| 20260507062715 | 0 | 281 | 0.0 | 0.0 | 0.00 | 0.00 | 0.00 | 80 | 1014.6 |
| 20260507062638 | 0 | 281 | 0.0 | 0.0 | 0.00 | 0.00 | 0.00 | 80 | 1014.6 |
| 20260507062521 | 0 | 281 | 0.0 | 0.0 | 0.00 | 0.00 | 0.00 | 80 | 1014.6 |
| 20260507062424 | 0 | 281 | 0.0 | 0.0 | 0.00 | 0.00 | 0.00 | 80 | 1014.6 |
| 20260507062308 | 0 | 281 | 0.0 | 0.0 | 0.00 | 0.00 | 0.00 | 80 | 1014.6 |
| 20260507062209 | 0 | 281 | 0.0 | 0.0 | 0.00 | 0.00 | 0.00 | 80 | 1014.6 |
| 20260507062114 | 0 | 281 | 0.0 | 0.0 | 0.00 | 0.00 | 0.00 | 80 | 1014.6 |
| 20260507062015 | 0 | 281 | 0.0 | 0.0 | 0.00 | 0.00 | 0.00 | 80 | 1014.7 |
| 20260507061914 | 0 | 281 | 0.0 | 1.6 | 0.00 | 0.00 | 0.00 | 80 | 1014.6 |
| 20260507061815 | 0 | 281 | 0.0 | 1.6 | 0.00 | 0.00 | 0.00 | 80 | 1014.7 |
| 20260507061714 | 0 | 281 | 0.0 | 1.6 | 0.00 | 0.00 | 0.00 | 80 | 1014.6 |
| 20260507061615 | 0 | 281 | 0.0 | 1.6 | 0.00 | 0.00 | 0.00 | 80 | 1014.7 |
| 20260507061520 | 0 | 281 | 0.0 | 1.6 | 0.00 | 0.00 | 0.00 | 80 | 1014.7 |
| 20260507061420 | 0 | 281 | 0.0 | 1.6 | 0.00 | 0.00 | 0.00 | 80 | 1014.7 |
| 20260507061321 | 0 | 281 | 0.0 | 1.6 | 0.00 | 0.00 | 0.00 | 80 | 1014.7 |
| 20260507061222 | 0 | 281 | 0.0 | 1.6 | 0.00 | 0.00 | 0.00 | 80 | 1014.7 |
| 20260507061122 | 0 | 281 | 0.0 | 1.6 | 0.00 | 0.00 | 0.00 | 80 | 1014.7 |
| 20260507061042 | 0 | 281 | 0.0 | 0.0 | 0.00 | 0.00 | 0.00 | 80 | 1014.7 |
| 20260507060922 | 0 | 281 | 0.0 | 0.0 | 0.00 | 0.00 | 0.00 | 80 | 1014.7 |
| 20260507060826 | 0 | 281 | 0.0 | 0.0 | 0.00 | 0.00 | 0.00 | 80 | 1014.7 |
| 20260507060727 | 0 | 281 | 0.0 | 1.6 | 0.00 | 0.00 | 0.00 | 80 | 1014.7 |
| 20260507060608 | 0 | 281 | 0.0 | 3.2 | 0.00 | 0.00 | 0.00 | 80 | 1014.7 |
| 20260507060509 | 0 | 281 | 0.0 | 3.2 | 0.00 | 0.00 | 0.00 | 80 | 1014.7 |
| 20260507060409 | 0 | 281 | 0.0 | 3.2 | 0.00 | 0.00 | 0.00 | 80 | 1014.8 |
| 20260507060309 | 0 | 281 | 0.0 | 3.2 | 0.00 | 0.00 | 0.00 | 80 | 1014.7 |
| 20260507060229 | 0 | 281 | 0.0 | 3.2 | 0.00 | 0.00 | 0.00 | 80 | 1014.8 |
| 20260507060158 | 0 | 281 | 0.0 | 3.2 | 0.00 | 0.00 | 0.00 | 79 | 1014.7 |
| 20260507060007 | 0 | 281 | 1.6 | 3.2 | 0.00 | 0.00 | 0.00 | 80 | 1014.8 |
| 20260507055909 | 0 | 281 | 1.6 | 3.2 | 0.00 | 0.00 | 0.00 | 80 | 1014.8 |
| 20260507055813 | 1 | 281 | 1.6 | 3.2 | 0.00 | 0.00 | 0.00 | 80 | 1014.8 |
| 20260507055715 | 1 | 281 | 1.6 | 3.2 | 0.00 | 0.00 | 0.00 | 80 | 1014.8 |
| 20260507055618 | 1 | 281 | 1.6 | 3.2 | 0.00 | 0.00 | 0.00 | 80 | 1014.8 |
| 20260507055505 | 1 | 281 | 1.6 | 3.2 | 0.00 | 0.00 | 0.00 | 80 | 1014.8 |
| 20260507055409 | 1 | 281 | 1.6 | 3.2 | 0.00 | 0.00 | 0.00 | 80 | 1014.8 |
| 20260507055312 | 1 | 281 | 1.6 | 3.2 | 0.00 | 0.00 | 0.00 | 80 | 1014.8 |
| 20260507055215 | 1 | 281 | 1.6 | 3.2 | 0.00 | 0.00 | 0.00 | 80 | 1014.8 |
| 20260507055119 | 1 | 281 | 1.6 | 3.2 | 0.00 | 0.00 | 0.00 | 80 | 1014.8 |
| 20260507055041 | 1 | 281 | 1.6 | 1.6 | 0.00 | 0.00 | 0.00 | 80 | 1014.8 |
| 20260507054907 | 1 | 281 | 1.6 | 1.6 | 0.00 | 0.00 | 0.00 | 80 | 1014.8 |
| 20260507054831 | 1 | 281 | 1.6 | 3.2 | 0.00 | 0.00 | 0.00 | 80 | 1014.8 |
| 20260507054707 | 1 | 281 | 1.6 | 3.2 | 0.00 | 0.00 | 0.00 | 79 | 1014.9 |
| 20260507054610 | 1 | 281 | 1.6 | 3.2 | 0.00 | 0.00 | 0.00 | 78 | 1014.8 |
| 20260507054513 | 1 | 281 | 1.6 | 3.2 | 0.00 | 0.00 | 0.00 | 78 | 1014.8 |
| 20260507054416 | 1 | 281 | 1.6 | 3.2 | 0.00 | 0.00 | 0.00 | 77 | 1014.9 |
| 20260507054319 | 1 | 281 | 1.6 | 3.2 | 0.00 | 0.00 | 0.00 | 77 | 1014.8 |
| 20260507054207 | 1 | 281 | 1.6 | 3.2 | 0.00 | 0.00 | 0.00 | 77 | 1014.9 |
| 20260507054129 | 1 | 281 | 1.6 | 3.2 | 0.00 | 0.00 | 0.00 | 77 | 1014.9 |
| 20260507054011 | 1 | 281 | 1.6 | 3.2 | 0.00 | 0.00 | 0.00 | 77 | 1014.8 |
| 20260507053915 | 1 | 281 | 1.6 | 3.2 | 0.00 | 0.00 | 0.00 | 77 | 1014.9 |
| 20260507053818 | 1 | 281 | 1.6 | 3.2 | 0.00 | 0.00 | 0.00 | 77 | 1014.9 |
| 20260507053721 | 1 | 281 | 1.6 | 3.2 | 0.00 | 0.00 | 0.00 | 77 | 1014.9 |
| 20260507053608 | 1 | 281 | 1.6 | 1.6 | 0.00 | 0.00 | 0.00 | 77 | 1014.9 |
| 20260507053511 | 1 | 281 | 1.6 | 1.6 | 0.00 | 0.00 | 0.00 | 77 | 1014.9 |
| 20260507053414 | 1 | 281 | 0.0 | 1.6 | 0.00 | 0.00 | 0.00 | 77 | 1014.9 |
| 20260507053317 | 1 | 281 | 0.0 | 1.6 | 0.00 | 0.00 | 0.00 | 77 | 1014.9 |
| 20260507053219 | 1 | 281 | 0.0 | 1.6 | 0.00 | 0.00 | 0.00 | 77 | 1014.9 |
| 20260507053122 | 1 | 281 | 0.0 | 3.2 | 0.00 | 0.00 | 0.00 | 78 | 1014.9 |
| 20260507053029 | 1 | 281 | 0.0 | 3.2 | 0.00 | 0.00 | 0.00 | 78 | 1014.8 |
| 20260507052905 | 1 | 281 | 0.0 | 3.2 | 0.00 | 0.00 | 0.00 | 78 | 1014.9 |
| 20260507052808 | 1 | 281 | 0.0 | 4.8 | 0.00 | 0.00 | 0.00 | 79 | 1014.9 |
| 20260507052711 | 1 | 281 | 0.0 | 4.8 | 0.00 | 0.00 | 0.00 | 79 | 1014.8 |
| 20260507052634 | 1 | 281 | 1.6 | 4.8 | 0.00 | 0.00 | 0.00 | 79 | 1014.9 |
| 20260507052515 | 1 | 281 | 1.6 | 4.8 | 0.00 | 0.00 | 0.00 | 79 | 1014.8 |
| 20260507052439 | 1 | 281 | 1.6 | 4.8 | 0.00 | 0.00 | 0.00 | 80 | 1014.8 |
| 20260507052306 | 2 | 281 | 1.6 | 4.8 | 0.00 | 0.00 | 0.00 | 80 | 1014.9 |
| 20260507052208 | 2 | 281 | 3.2 | 4.8 | 0.00 | 0.00 | 0.00 | 80 | 1014.9 |
| 20260507052111 | 2 | 281 | 3.2 | 4.8 | 0.00 | 0.00 | 0.00 | 80 | 1014.9 |
| 20260507052014 | 2 | 281 | 3.2 | 4.8 | 0.00 | 0.00 | 0.00 | 80 | 1014.9 |
| 20260507051917 | 2 | 281 | 3.2 | 4.8 | 0.00 | 0.00 | 0.00 | 80 | 1014.9 |
| 20260507051819 | 2 | 281 | 3.2 | 4.8 | 0.00 | 0.00 | 0.00 | 80 | 1014.9 |
| 20260507051707 | 2 | 281 | 3.2 | 4.8 | 0.00 | 0.00 | 0.00 | 79 | 1014.9 |
| 20260507051609 | 2 | 281 | 3.2 | 4.8 | 0.00 | 0.00 | 0.00 | 79 | 1014.9 |
| 20260507051532 | 2 | 281 | 3.2 | 4.8 | 0.00 | 0.00 | 0.00 | 79 | 1014.9 |
| 20260507051409 | 2 | 281 | 3.2 | 4.8 | 0.00 | 0.00 | 0.00 | 79 | 1014.9 |
| 20260507051332 | 2 | 281 | 3.2 | 4.8 | 0.00 | 0.00 | 0.00 | 78 | 1014.9 |
| 20260507051208 | 2 | 281 | 3.2 | 4.8 | 0.00 | 0.00 | 0.00 | 79 | 1015.0 |
| 20260507051116 | 2 | 280 | 3.2 | 3.2 | 0.00 | 0.00 | 0.00 | 79 | 1014.9 |
| 20260507051020 | 2 | 280 | 3.2 | 3.2 | 0.00 | 0.00 | 0.00 | 79 | 1014.9 |
| 20260507050924 | 2 | 280 | 3.2 | 3.2 | 0.00 | 0.00 | 0.00 | 78 | 1015.0 |
| 20260507050808 | 2 | 280 | 3.2 | 3.2 | 0.00 | 0.00 | 0.00 | 78 | 1015.0 |
| 20260507050733 | 2 | 280 | 3.2 | 3.2 | 0.00 | 0.00 | 0.00 | 78 | 1015.0 |
| 20260507050609 | 2 | 280 | 1.6 | 3.2 | 0.00 | 0.00 | 0.00 | 77 | 1015.0 |
| 20260507050533 | 2 | 280 | 1.6 | 3.2 | 0.00 | 0.00 | 0.00 | 78 | 1015.0 |
| 20260507050420 | 2 | 280 | 1.6 | 3.2 | 0.00 | 0.00 | 0.00 | 78 | 1015.0 |
| 20260507050323 | 2 | 280 | 1.6 | 3.2 | 0.00 | 0.00 | 0.00 | 79 | 1014.9 |
| 20260507050227 | 2 | 280 | 1.6 | 3.2 | 0.00 | 0.00 | 0.00 | 78 | 1015.0 |
| 20260507050130 | 2 | 280 | 1.6 | 3.2 | 0.00 | 0.00 | 0.00 | 78 | 1015.0 |
| 20260507050029 | 2 | 280 | 1.6 | 3.2 | 0.00 | 0.00 | 0.00 | 78 | 1014.9 |
| 20260507045907 | 2 | 280 | 3.2 | 3.2 | 0.00 | 0.00 | 0.00 | 78 | 1015.0 |
| 20260507045831 | 2 | 280 | 3.2 | 3.2 | 0.00 | 0.00 | 0.00 | 78 | 1015.0 |
| 20260507045719 | 2 | 280 | 3.2 | 3.2 | 0.00 | 0.00 | 0.00 | 77 | 1015.0 |
| 20260507045644 | 2 | 280 | 1.6 | 3.2 | 0.00 | 0.00 | 0.00 | 77 | 1015.0 |
| 20260507045508 | 2 | 280 | 1.6 | 3.2 | 0.00 | 0.00 | 0.00 | 77 | 1015.0 |
| 20260507045432 | 2 | 280 | 1.6 | 3.2 | 0.00 | 0.00 | 0.00 | 77 | 1014.9 |
| 20260507045308 | 2 | 280 | 3.2 | 4.8 | 0.00 | 0.00 | 0.00 | 77 | 1015.0 |
| 20260507045232 | 2 | 280 | 3.2 | 4.8 | 0.00 | 0.00 | 0.00 | 77 | 1015.0 |
| 20260507045115 | 2 | 280 | 1.6 | 4.8 | 0.00 | 0.00 | 0.00 | 77 | 1015.0 |
| 20260507045023 | 2 | 280 | 1.6 | 4.8 | 0.00 | 0.00 | 0.00 | 78 | 1015.0 |
| 20260507044927 | 2 | 280 | 1.6 | 4.8 | 0.00 | 0.00 | 0.00 | 77 | 1015.0 |
| 20260507044810 | 2 | 280 | 3.2 | 4.8 | 0.00 | 0.00 | 0.00 | 77 | 1015.0 |
| 20260507044714 | 2 | 280 | 3.2 | 4.8 | 0.00 | 0.00 | 0.00 | 77 | 1015.0 |
| 20260507044617 | 2 | 280 | 3.2 | 4.8 | 0.00 | 0.00 | 0.00 | 78 | 1015.1 |
| 20260507044521 | 2 | 280 | 3.2 | 4.8 | 0.00 | 0.00 | 0.00 | 78 | 1015.0 |
| 20260507044430 | 2 | 281 | 3.2 | 4.8 | 0.00 | 0.00 | 0.00 | 78 | 1015.1 |
| 20260507044314 | 2 | 281 | 3.2 | 4.8 | 0.00 | 0.00 | 0.00 | 78 | 1015.1 |
| 20260507044217 | 2 | 281 | 3.2 | 4.8 | 0.00 | 0.00 | 0.00 | 78 | 1015.1 |
| 20260507044122 | 2 | 281 | 3.2 | 4.8 | 0.00 | 0.00 | 0.00 | 78 | 1015.1 |
| 20260507044005 | 2 | 281 | 3.2 | 4.8 | 0.00 | 0.00 | 0.00 | 78 | 1015.2 |
| 20260507043911 | 2 | 281 | 3.2 | 4.8 | 0.00 | 0.00 | 0.00 | 77 | 1015.1 |
| 20260507043836 | 2 | 280 | 3.2 | 4.8 | 0.00 | 0.00 | 0.00 | 77 | 1015.1 |
| 20260507043743 | 2 | 281 | 1.6 | 4.8 | 0.00 | 0.00 | 0.00 | 76 | 1015.1 |
| 20260507043628 | 2 | 281 | 3.2 | 4.8 | 0.00 | 0.00 | 0.00 | 76 | 1015.1 |
| 20260507043530 | 2 | 280 | 3.2 | 4.8 | 0.00 | 0.00 | 0.00 | 76 | 1015.1 |
| 20260507043406 | 2 | 281 | 3.2 | 4.8 | 0.00 | 0.00 | 0.00 | 77 | 1015.1 |
| 20260507043311 | 2 | 281 | 3.2 | 4.8 | 0.00 | 0.00 | 0.00 | 77 | 1015.1 |
| 20260507043215 | 2 | 281 | 3.2 | 4.8 | 0.00 | 0.00 | 0.00 | 77 | 1015.1 |
| 20260507043118 | 2 | 280 | 3.2 | 4.8 | 0.00 | 0.00 | 0.00 | 76 | 1015.1 |
| 20260507043028 | 2 | 280 | 3.2 | 4.8 | 0.00 | 0.00 | 0.00 | 76 | 1015.1 |
| 20260507042952 | 2 | 281 | 3.2 | 4.8 | 0.00 | 0.00 | 0.00 | 76 | 1015.1 |
| 20260507042808 | 2 | 281 | 3.2 | 4.8 | 0.00 | 0.00 | 0.00 | 76 | 1015.2 |
| 20260507042733 | 2 | 281 | 3.2 | 4.8 | 0.00 | 0.00 | 0.00 | 76 | 1015.1 |
| 20260507042637 | 2 | 280 | 3.2 | 4.8 | 0.00 | 0.00 | 0.00 | 75 | 1015.1 |
| 20260507042519 | 2 | 281 | 3.2 | 4.8 | 0.00 | 0.00 | 0.00 | 75 | 1015.1 |
| 20260507042425 | 2 | 282 | 3.2 | 4.8 | 0.00 | 0.00 | 0.00 | 75 | 1015.1 |
| 20260507042313 | 2 | 282 | 3.2 | 4.8 | 0.00 | 0.00 | 0.00 | 75 | 1015.1 |
| 20260507042217 | 2 | 282 | 3.2 | 4.8 | 0.00 | 0.00 | 0.00 | 75 | 1015.1 |
| 20260507042122 | 2 | 283 | 3.2 | 4.8 | 0.00 | 0.00 | 0.00 | 75 | 1015.1 |
| 20260507042027 | 2 | 284 | 3.2 | 4.8 | 0.00 | 0.00 | 0.00 | 75 | 1015.1 |
| 20260507041952 | 2 | 284 | 3.2 | 4.8 | 0.00 | 0.00 | 0.00 | 75 | 1015.1 |
| 20260507041808 | 2 | 294 | 3.2 | 4.8 | 0.00 | 0.00 | 0.00 | 75 | 1015.1 |
| 20260507041717 | 2 | 294 | 3.2 | 4.8 | 0.00 | 0.00 | 0.00 | 74 | 1015.1 |
| 20260507041620 | 2 | 296 | 3.2 | 3.2 | 0.00 | 0.00 | 0.00 | 74 | 1015.1 |
| 20260507041525 | 2 | 296 | 1.6 | 3.2 | 0.00 | 0.00 | 0.00 | 74 | 1015.1 |
| 20260507041447 | 2 | 296 | 1.6 | 3.2 | 0.00 | 0.00 | 0.00 | 75 | 1015.1 |
| 20260507041309 | 2 | 296 | 1.6 | 3.2 | 0.00 | 0.00 | 0.00 | 74 | 1015.1 |
| 20260507041214 | 2 | 296 | 1.6 | 3.2 | 0.00 | 0.00 | 0.00 | 74 | 1015.1 |
| 20260507041119 | 2 | 296 | 1.6 | 3.2 | 0.00 | 0.00 | 0.00 | 73 | 1015.2 |
| 20260507041007 | 2 | 296 | 1.6 | 3.2 | 0.00 | 0.00 | 0.00 | 73 | 1015.2 |
| 20260507040911 | 2 | 296 | 1.6 | 3.2 | 0.00 | 0.00 | 0.00 | 73 | 1015.1 |
| 20260507040813 | 2 | 296 | 1.6 | 3.2 | 0.00 | 0.00 | 0.00 | 73 | 1015.1 |
| 20260507040717 | 2 | 296 | 1.6 | 3.2 | 0.00 | 0.00 | 0.00 | 73 | 1015.2 |
| 20260507040641 | 3 | 296 | 1.6 | 3.2 | 0.00 | 0.00 | 0.00 | 73 | 1015.1 |
| 20260507040523 | 3 | 296 | 3.2 | 3.2 | 0.00 | 0.00 | 0.00 | 73 | 1015.1 |
| 20260507040412 | 3 | 296 | 3.2 | 3.2 | 0.00 | 0.00 | 0.00 | 73 | 1015.1 |
| 20260507040317 | 3 | 296 | 1.6 | 3.2 | 0.00 | 0.00 | 0.00 | 73 | 1015.2 |
| 20260507040220 | 3 | 296 | 1.6 | 3.2 | 0.00 | 0.00 | 0.00 | 73 | 1015.2 |
| 20260507040144 | 3 | 296 | 1.6 | 3.2 | 0.00 | 0.00 | 0.00 | 73 | 1015.2 |
| 20260507040007 | 3 | 296 | 1.6 | 3.2 | 0.00 | 0.00 | 0.00 | 73 | 1015.2 |
| 20260507035912 | 3 | 296 | 1.6 | 3.2 | 0.00 | 0.00 | 0.00 | 73 | 1015.2 |
| 20260507035816 | 3 | 296 | 0.0 | 3.2 | 0.00 | 0.00 | 0.00 | 73 | 1015.2 |
| 20260507035725 | 3 | 296 | 0.0 | 3.2 | 0.00 | 0.00 | 0.00 | 73 | 1015.2 |
| 20260507035629 | 3 | 296 | 0.0 | 3.2 | 0.00 | 0.00 | 0.00 | 73 | 1015.2 |
| 20260507035534 | 3 | 296 | 0.0 | 3.2 | 0.00 | 0.00 | 0.00 | 73 | 1015.2 |
| 20260507035416 | 3 | 296 | 0.0 | 3.2 | 0.00 | 0.00 | 0.00 | 71 | 1015.2 |
| 20260507035322 | 3 | 296 | 0.0 | 3.2 | 0.00 | 0.00 | 0.00 | 70 | 1015.2 |
| 20260507035245 | 3 | 296 | 0.0 | 3.2 | 0.00 | 0.00 | 0.00 | 70 | 1015.2 |
| 20260507035109 | 3 | 296 | 0.0 | 3.2 | 0.00 | 0.00 | 0.00 | 71 | 1015.2 |
| 20260507035018 | 3 | 296 | 1.6 | 3.2 | 0.00 | 0.00 | 0.00 | 71 | 1015.2 |
| 20260507034922 | 3 | 296 | 1.6 | 3.2 | 0.00 | 0.00 | 0.00 | 72 | 1015.2 |
| 20260507034807 | 3 | 296 | 1.6 | 3.2 | 0.00 | 0.00 | 0.00 | 73 | 1015.3 |
| 20260507034711 | 3 | 296 | 1.6 | 3.2 | 0.00 | 0.00 | 0.00 | 73 | 1015.3 |
| 20260507034616 | 3 | 296 | 1.6 | 3.2 | 0.00 | 0.00 | 0.00 | 73 | 1015.3 |
| 20260507034520 | 3 | 296 | 1.6 | 3.2 | 0.00 | 0.00 | 0.00 | 72 | 1015.3 |
| 20260507034429 | 3 | 296 | 1.6 | 3.2 | 0.00 | 0.00 | 0.00 | 72 | 1015.3 |
| 20260507034305 | 3 | 296 | 1.6 | 3.2 | 0.00 | 0.00 | 0.00 | 71 | 1015.3 |
| 20260507034210 | 3 | 296 | 1.6 | 1.6 | 0.00 | 0.00 | 0.00 | 71 | 1015.3 |
| 20260507034135 | 3 | 296 | 1.6 | 1.6 | 0.00 | 0.00 | 0.00 | 71 | 1015.2 |
| 20260507034020 | 3 | 296 | 1.6 | 1.6 | 0.00 | 0.00 | 0.00 | 71 | 1015.3 |
| 20260507033923 | 3 | 296 | 0.0 | 3.2 | 0.00 | 0.00 | 0.00 | 69 | 1015.3 |
| 20260507033812 | 3 | 296 | 0.0 | 3.2 | 0.00 | 0.00 | 0.00 | 69 | 1015.3 |
| 20260507033716 | 3 | 296 | 0.0 | 3.2 | 0.00 | 0.00 | 0.00 | 69 | 1015.2 |
| 20260507033620 | 3 | 296 | 1.6 | 3.2 | 0.00 | 0.00 | 0.00 | 69 | 1015.3 |
| 20260507033505 | 3 | 296 | 1.6 | 3.2 | 0.00 | 0.00 | 0.00 | 70 | 1015.2 |
| 20260507033430 | 3 | 296 | 1.6 | 3.2 | 0.00 | 0.00 | 0.00 | 70 | 1015.4 |
| 20260507033313 | 3 | 296 | 1.6 | 3.2 | 0.00 | 0.00 | 0.00 | 71 | 1015.3 |
| 20260507033238 | 3 | 296 | 1.6 | 3.2 | 0.00 | 0.00 | 0.00 | 71 | 1015.3 |
| 20260507033145 | 3 | 296 | 1.6 | 3.2 | 0.00 | 0.00 | 0.00 | 71 | 1015.3 |
| 20260507033009 | 3 | 296 | 1.6 | 3.2 | 0.00 | 0.00 | 0.00 | 70 | 1015.4 |
| 20260507032913 | 3 | 296 | 1.6 | 3.2 | 0.00 | 0.00 | 0.00 | 70 | 1015.3 |
| 20260507032837 | 3 | 296 | 3.2 | 3.2 | 0.00 | 0.00 | 0.00 | 69 | 1015.3 |
| 20260507032721 | 3 | 296 | 3.2 | 3.2 | 0.00 | 0.00 | 0.00 | 69 | 1015.3 |
| 20260507032605 | 3 | 296 | 3.2 | 3.2 | 0.00 | 0.00 | 0.00 | 68 | 1015.3 |
| 20260507032513 | 3 | 296 | 3.2 | 3.2 | 0.00 | 0.00 | 0.00 | 68 | 1015.3 |
| 20260507032418 | 3 | 296 | 3.2 | 3.2 | 0.00 | 0.00 | 0.00 | 67 | 1015.4 |
| 20260507032344 | 4 | 296 | 3.2 | 3.2 | 0.00 | 0.00 | 0.00 | 67 | 1015.3 |
| 20260507032227 | 4 | 296 | 3.2 | 3.2 | 0.00 | 0.00 | 0.00 | 66 | 1015.3 |
| 20260507032111 | 4 | 296 | 3.2 | 3.2 | 0.00 | 0.00 | 0.00 | 66 | 1015.3 |
| 20260507032015 | 4 | 296 | 3.2 | 3.2 | 0.00 | 0.00 | 0.00 | 66 | 1015.3 |
| 20260507031937 | 4 | 296 | 3.2 | 3.2 | 0.00 | 0.00 | 0.00 | 65 | 1015.2 |
| 20260507031805 | 4 | 296 | 1.6 | 3.2 | 0.00 | 0.00 | 0.00 | 65 | 1015.2 |
| 20260507031729 | 4 | 296 | 1.6 | 3.2 | 0.00 | 0.00 | 0.00 | 65 | 1015.2 |
| 20260507031606 | 5 | 296 | 0.0 | 0.0 | 0.00 | 0.00 | 0.00 | 65 | 1015.1 |
| 20260507031530 | 5 | 296 | 0.0 | 0.0 | 0.00 | 0.00 | 0.00 | 64 | 1015.2 |
| 20260507031414 | 5 | 296 | 0.0 | 0.0 | 0.00 | 0.00 | 0.00 | 62 | 1015.1 |
| 20260507031318 | 5 | 296 | 0.0 | 3.2 | 0.00 | 0.00 | 0.00 | 62 | 1015.1 |
| 20260507031220 | 5 | 296 | 0.0 | 3.2 | 0.00 | 0.00 | 0.00 | 62 | 1015.1 |
| 20260507031129 | 5 | 296 | 0.0 | 3.2 | 0.00 | 0.00 | 0.00 | 62 | 1015.2 |
| 20260507031005 | 5 | 296 | 0.0 | 3.2 | 0.00 | 0.00 | 0.00 | 62 | 1015.2 |
| 20260507030910 | 5 | 296 | 0.0 | 3.2 | 0.00 | 0.00 | 0.00 | 63 | 1015.2 |
| 20260507030814 | 5 | 296 | 0.0 | 3.2 | 0.00 | 0.00 | 0.00 | 63 | 1015.3 |
| 20260507030737 | 5 | 296 | 0.0 | 3.2 | 0.00 | 0.00 | 0.00 | 64 | 1015.3 |
| 20260507030620 | 5 | 296 | 0.0 | 3.2 | 0.00 | 0.00 | 0.00 | 65 | 1015.3 |
| 20260507030507 | 5 | 296 | 1.6 | 4.8 | 0.00 | 0.00 | 0.00 | 66 | 1015.4 |
| 20260507030430 | 5 | 296 | 1.6 | 4.8 | 0.00 | 0.00 | 0.00 | 66 | 1015.4 |
| 20260507030352 | 5 | 296 | 1.6 | 4.8 | 0.00 | 0.00 | 0.00 | 66 | 1015.4 |
| 20260507030207 | 5 | 296 | 1.6 | 4.8 | 0.00 | 0.00 | 0.00 | 66 | 1015.4 |
| 20260507030132 | 5 | 296 | 1.6 | 4.8 | 0.00 | 0.00 | 0.00 | 66 | 1015.4 |
| 20260507030034 | 5 | 296 | 1.6 | 4.8 | 0.00 | 0.00 | 0.00 | 66 | 1015.5 |
| 20260507025937 | 5 | 296 | 1.6 | 4.8 | 0.00 | 0.00 | 0.00 | 66 | 1015.4 |
| 20260507025840 | 5 | 296 | 3.2 | 4.8 | 0.00 | 0.00 | 0.00 | 66 | 1015.5 |
| 20260507025723 | 5 | 296 | 3.2 | 4.8 | 0.00 | 0.00 | 0.00 | 66 | 1015.5 |
| 20260507025611 | 5 | 296 | 3.2 | 4.8 | 0.00 | 0.00 | 0.00 | 66 | 1015.5 |
| 20260507025535 | 5 | 296 | 3.2 | 4.8 | 0.00 | 0.00 | 0.00 | 65 | 1015.5 |
| 20260507025417 | 5 | 297 | 3.2 | 4.8 | 0.00 | 0.00 | 0.00 | 65 | 1015.4 |
| 20260507025320 | 5 | 306 | 3.2 | 4.8 | 0.00 | 0.00 | 0.00 | 65 | 1015.5 |
| 20260507025224 | 5 | 306 | 3.2 | 4.8 | 0.00 | 0.00 | 0.00 | 65 | 1015.4 |
| 20260507025128 | 5 | 306 | 3.2 | 4.8 | 0.00 | 0.00 | 0.00 | 65 | 1015.5 |
| 20260507025011 | 5 | 306 | 3.2 | 4.8 | 0.00 | 0.00 | 0.00 | 64 | 1015.5 |
| 20260507024920 | 5 | 306 | 3.2 | 4.8 | 0.00 | 0.00 | 0.00 | 65 | 1015.5 |
| 20260507024824 | 5 | 306 | 3.2 | 4.8 | 0.00 | 0.00 | 0.00 | 63 | 1015.5 |
| 20260507024729 | 5 | 306 | 3.2 | 4.8 | 0.00 | 0.00 | 0.00 | 63 | 1015.4 |
| 20260507024630 | 5 | 306 | 3.2 | 4.8 | 0.00 | 0.00 | 0.00 | 64 | 1015.4 |
| 20260507024507 | 5 | 306 | 3.2 | 4.8 | 0.00 | 0.00 | 0.00 | 64 | 1015.4 |
| 20260507024412 | 5 | 306 | 3.2 | 4.8 | 0.00 | 0.00 | 0.00 | 63 | 1015.4 |
| 20260507024321 | 5 | 306 | 3.2 | 4.8 | 0.00 | 0.00 | 0.00 | 62 | 1015.4 |
| 20260507024224 | 5 | 306 | 1.6 | 4.8 | 0.00 | 0.00 | 0.00 | 61 | 1015.4 |
| 20260507024129 | 5 | 306 | 3.2 | 4.8 | 0.00 | 0.00 | 0.00 | 61 | 1015.4 |
| 20260507024005 | 5 | 306 | 3.2 | 6.4 | 0.00 | 0.00 | 0.00 | 60 | 1015.4 |
| 20260507023910 | 6 | 306 | 3.2 | 6.4 | 0.00 | 0.00 | 0.00 | 60 | 1015.3 |
| 20260507023813 | 6 | 306 | 3.2 | 6.4 | 0.00 | 0.00 | 0.00 | 59 | 1015.4 |
| 20260507023722 | 6 | 306 | 3.2 | 8.0 | 0.00 | 0.00 | 0.00 | 59 | 1015.4 |
| 20260507023627 | 6 | 306 | 3.2 | 8.0 | 0.00 | 0.00 | 0.00 | 59 | 1015.4 |
| 20260507023511 | 6 | 307 | 3.2 | 8.0 | 0.00 | 0.00 | 0.00 | 58 | 1015.4 |
| 20260507023416 | 6 | 316 | 3.2 | 8.0 | 0.00 | 0.00 | 0.00 | 57 | 1015.4 |
| 20260507023318 | 6 | 316 | 4.8 | 8.0 | 0.00 | 0.00 | 0.00 | 57 | 1015.4 |
| 20260507023223 | 6 | 315 | 3.2 | 8.0 | 0.00 | 0.00 | 0.00 | 57 | 1015.5 |
| 20260507023109 | 6 | 355 | 4.8 | 8.0 | 0.00 | 0.00 | 0.00 | 57 | 1015.5 |
| 20260507023015 | 6 | 355 | 6.4 | 8.0 | 0.00 | 0.00 | 0.00 | 57 | 1015.4 |
| 20260507022939 | 6 | 355 | 4.8 | 8.0 | 0.00 | 0.00 | 0.00 | 57 | 1015.4 |
| 20260507022823 | 6 | 350 | 3.2 | 8.0 | 0.00 | 0.00 | 0.00 | 57 | 1015.4 |
| 20260507022707 | 6 | 348 | 3.2 | 8.0 | 0.00 | 0.00 | 0.00 | 57 | 1015.5 |
| 20260507022631 | 6 | 355 | 3.2 | 8.0 | 0.00 | 0.00 | 0.00 | 57 | 1015.5 |
| 20260507022508 | 6 | 325 | 3.2 | 9.7 | 0.00 | 0.00 | 0.00 | 56 | 1015.5 |
| 20260507022416 | 6 | 347 | 3.2 | 9.7 | 0.00 | 0.00 | 0.00 | 56 | 1015.4 |
| 20260507022318 | 6 | 338 | 3.2 | 12.9 | 0.00 | 0.00 | 0.00 | 57 | 1015.4 |
| 20260507022222 | 6 | 329 | 4.8 | 12.9 | 0.00 | 0.00 | 0.00 | 57 | 1015.4 |
| 20260507022128 | 6 | 312 | 6.4 | 12.9 | 0.00 | 0.00 | 0.00 | 56 | 1015.5 |
| 20260507022010 | 6 | 312 | 6.4 | 12.9 | 0.00 | 0.00 | 0.00 | 57 | 1015.5 |
| 20260507021914 | 6 | 309 | 6.4 | 12.9 | 0.00 | 0.00 | 0.00 | 57 | 1015.5 |
| 20260507021818 | 6 | 339 | 6.4 | 12.9 | 0.00 | 0.00 | 0.00 | 56 | 1015.5 |
| 20260507021707 | 6 | 324 | 6.4 | 12.9 | 0.00 | 0.00 | 0.00 | 56 | 1015.5 |
| 20260507021631 | 6 | 331 | 6.4 | 12.9 | 0.00 | 0.00 | 0.00 | 56 | 1015.4 |
| 20260507021508 | 6 | 288 | 6.4 | 12.9 | 0.00 | 0.00 | 0.00 | 57 | 1015.5 |
| 20260507021434 | 6 | 300 | 4.8 | 9.7 | 0.00 | 0.00 | 0.00 | 57 | 1015.5 |
| 20260507021316 | 6 | 323 | 3.2 | 9.7 | 0.00 | 0.00 | 0.00 | 57 | 1015.6 |
| 20260507021239 | 6 | 329 | 4.8 | 9.7 | 0.00 | 0.00 | 0.00 | 57 | 1015.5 |
| 20260507021106 | 6 | 302 | 6.4 | 9.7 | 0.00 | 0.00 | 0.00 | 57 | 1015.5 |
| 20260507021030 | 6 | 338 | 4.8 | 9.7 | 0.00 | 0.00 | 0.00 | 57 | 1015.5 |
| 20260507020908 | 6 | 319 | 3.2 | 9.7 | 0.00 | 0.00 | 0.00 | 57 | 1015.5 |
| 20260507020832 | 6 | 305 | 4.8 | 9.7 | 0.00 | 0.00 | 0.00 | 57 | 1015.5 |
| 20260507020734 | 6 | 317 | 3.2 | 9.7 | 0.00 | 0.00 | 0.00 | 57 | 1015.4 |
| 20260507020618 | 6 | 313 | 3.2 | 9.7 | 0.00 | 0.00 | 0.00 | 58 | 1015.5 |
| 20260507020519 | 6 | 311 | 3.2 | 9.7 | 0.00 | 0.00 | 0.00 | 57 | 1015.6 |
| 20260507020408 | 6 | 294 | 4.8 | 9.7 | 0.00 | 0.00 | 0.00 | 57 | 1015.5 |
| 20260507020332 | 6 | 355 | 6.4 | 9.7 | 0.00 | 0.00 | 0.00 | 56 | 1015.5 |
| 20260507020208 | 6 | 297 | 4.8 | 12.9 | 0.00 | 0.00 | 0.00 | 57 | 1015.5 |
| 20260507020113 | 6 | 299 | 3.2 | 12.9 | 0.00 | 0.00 | 0.00 | 57 | 1015.5 |
| 20260507020018 | 6 | 299 | 4.8 | 12.9 | 0.00 | 0.00 | 0.00 | 57 | 1015.5 |
| 20260507015921 | 6 | 298 | 4.8 | 14.5 | 0.00 | 0.00 | 0.00 | 56 | 1015.4 |
| 20260507015810 | 6 | 300 | 4.8 | 14.5 | 0.00 | 0.00 | 0.00 | 56 | 1015.4 |
| 20260507015715 | 6 | 317 | 4.8 | 19.3 | 0.00 | 0.00 | 0.00 | 56 | 1015.4 |
| 20260507015619 | 6 | 302 | 6.4 | 19.3 | 0.00 | 0.00 | 0.00 | 55 | 1015.3 |
| 20260507015544 | 6 | 293 | 8.0 | 19.3 | 0.00 | 0.00 | 0.00 | 55 | 1015.4 |
| 20260507015426 | 6 | 296 | 8.0 | 19.3 | 0.00 | 0.00 | 0.00 | 56 | 1015.4 |
| 20260507015350 | 6 | 319 | 8.0 | 19.3 | 0.00 | 0.00 | 0.00 | 56 | 1015.4 |
| 20260507015252 | 6 | 309 | 8.0 | 19.3 | 0.00 | 0.00 | 0.00 | 56 | 1015.4 |
| 20260507015108 | 6 | 300 | 9.7 | 19.3 | 0.00 | 0.00 | 0.00 | 55 | 1015.4 |
| 20260507015016 | 6 | 298 | 11.3 | 19.3 | 0.00 | 0.00 | 0.00 | 56 | 1015.3 |
| 20260507014921 | 6 | 309 | 11.3 | 19.3 | 0.00 | 0.00 | 0.00 | 55 | 1015.4 |
| 20260507014805 | 6 | 302 | 8.0 | 17.7 | 0.00 | 0.00 | 0.00 | 56 | 1015.4 |
| 20260507014710 | 6 | 308 | 6.4 | 17.7 | 0.00 | 0.00 | 0.00 | 55 | 1015.4 |
| 20260507014613 | 6 | 319 | 8.0 | 17.7 | 0.00 | 0.00 | 0.00 | 55 | 1015.3 |
| 20260507014518 | 6 | 322 | 8.0 | 17.7 | 0.00 | 0.00 | 0.00 | 55 | 1015.3 |
| 20260507014406 | 6 | 290 | 8.0 | 17.7 | 0.00 | 0.00 | 0.00 | 55 | 1015.3 |
| 20260507014330 | 6 | 305 | 8.0 | 17.7 | 0.00 | 0.00 | 0.00 | 55 | 1015.3 |
| 20260507014208 | 6 | 350 | 8.0 | 17.7 | 0.00 | 0.00 | 0.00 | 56 | 1015.3 |
| 20260507014110 | 6 | 307 | 9.7 | 17.7 | 0.00 | 0.00 | 0.00 | 56 | 1015.4 |
| 20260507014015 | 6 | 293 | 9.7 | 17.7 | 0.00 | 0.00 | 0.00 | 55 | 1015.4 |
| 20260507013919 | 6 | 297 | 8.0 | 17.7 | 0.00 | 0.00 | 0.00 | 56 | 1015.4 |
| 20260507013806 | 6 | 329 | 8.0 | 17.7 | 0.00 | 0.00 | 0.00 | 54 | 1015.3 |
| 20260507013730 | 6 | 355 | 8.0 | 17.7 | 0.00 | 0.00 | 0.00 | 54 | 1015.3 |
| 20260507013608 | 6 | 321 | 8.0 | 17.7 | 0.00 | 0.00 | 0.00 | 55 | 1015.4 |
| 20260507013531 | 6 | 290 | 9.7 | 17.7 | 0.00 | 0.00 | 0.00 | 55 | 1015.3 |
| 20260507013433 | 6 | 318 | 9.7 | 17.7 | 0.00 | 0.00 | 0.00 | 54 | 1015.4 |
| 20260507013337 | 6 | 348 | 8.0 | 14.5 | 0.00 | 0.00 | 0.00 | 54 | 1015.3 |
| 20260507013240 | 6 | 306 | 8.0 | 14.5 | 0.00 | 0.00 | 0.00 | 55 | 1015.4 |
| 20260507013143 | 6 | 320 | 8.0 | 14.5 | 0.00 | 0.00 | 0.00 | 55 | 1015.3 |
| 20260507013011 | 6 | 298 | 6.4 | 14.5 | 0.00 | 0.00 | 0.00 | 54 | 1015.3 |
| 20260507012915 | 6 | 309 | 4.8 | 14.5 | 0.00 | 0.00 | 0.00 | 55 | 1015.3 |
| 20260507012840 | 6 | 360 | 6.4 | 14.5 | 0.00 | 0.00 | 0.00 | 54 | 1015.3 |
| 20260507012721 | 6 | 313 | 6.4 | 14.5 | 0.00 | 0.00 | 0.00 | 54 | 1015.3 |
| 20260507012626 | 6 | 319 | 6.4 | 17.7 | 0.00 | 0.00 | 0.00 | 55 | 1015.3 |
| 20260507012509 | 6 | 333 | 4.8 | 17.7 | 0.00 | 0.00 | 0.00 | 55 | 1015.3 |
| 20260507012414 | 6 | 318 | 4.8 | 17.7 | 0.00 | 0.00 | 0.00 | 55 | 1015.4 |
| 20260507012316 | 6 | 325 | 8.0 | 17.7 | 0.00 | 0.00 | 0.00 | 54 | 1015.3 |
| 20260507012241 | 6 | 303 | 9.7 | 17.7 | 0.00 | 0.00 | 0.00 | 54 | 1015.4 |
| 20260507012105 | 6 | 304 | 9.7 | 17.7 | 0.00 | 0.00 | 0.00 | 54 | 1015.3 |
| 20260507012029 | 6 | 306 | 9.7 | 17.7 | 0.00 | 0.00 | 0.00 | 54 | 1015.4 |
| 20260507011906 | 6 | 294 | 8.0 | 17.7 | 0.00 | 0.00 | 0.00 | 54 | 1015.3 |
| 20260507011810 | 6 | 312 | 4.8 | 14.5 | 0.00 | 0.00 | 0.00 | 54 | 1015.3 |
| 20260507011715 | 6 | 335 | 6.4 | 14.5 | 0.00 | 0.00 | 0.00 | 54 | 1015.4 |
| 20260507011624 | 6 | 336 | 6.4 | 14.5 | 0.00 | 0.00 | 0.00 | 54 | 1015.3 |
| 20260507011549 | 6 | 336 | 6.4 | 14.5 | 0.00 | 0.00 | 0.00 | 54 | 1015.3 |
| 20260507011452 | 6 | 306 | 6.4 | 14.5 | 0.00 | 0.00 | 0.00 | 54 | 1015.3 |
| 20260507011308 | 6 | 321 | 8.0 | 14.5 | 0.00 | 0.00 | 0.00 | 54 | 1015.4 |
| 20260507011213 | 6 | 325 | 8.0 | 14.5 | 0.00 | 0.00 | 0.00 | 53 | 1015.5 |
| 20260507011134 | 6 | 321 | 8.0 | 14.5 | 0.00 | 0.00 | 0.00 | 53 | 1015.3 |
| 20260507011008 | 6 | 306 | 6.4 | 9.7 | 0.00 | 0.00 | 0.00 | 54 | 1015.3 |
| 20260507010917 | 6 | 319 | 4.8 | 9.7 | 0.00 | 0.00 | 0.00 | 54 | 1015.4 |
| 20260507010822 | 6 | 350 | 6.4 | 9.7 | 0.00 | 0.00 | 0.00 | 54 | 1015.4 |
| 20260507010727 | 6 | 317 | 6.4 | 9.7 | 0.00 | 0.00 | 0.00 | 54 | 1015.3 |
| 20260507010610 | 6 | 308 | 6.4 | 9.7 | 0.00 | 0.00 | 0.00 | 54 | 1015.3 |
| 20260507010515 | 6 | 319 | 6.4 | 9.7 | 0.00 | 0.00 | 0.00 | 53 | 1015.4 |
| 20260507010437 | 6 | 293 | 4.8 | 9.7 | 0.00 | 0.00 | 0.00 | 54 | 1015.4 |
| 20260507010321 | 6 | 305 | 4.8 | 9.7 | 0.00 | 0.00 | 0.00 | 54 | 1015.4 |
| 20260507010208 | 6 | 321 | 6.4 | 9.7 | 0.00 | 0.00 | 0.00 | 54 | 1015.3 |
| 20260507010113 | 6 | 292 | 4.8 | 9.7 | 0.00 | 0.00 | 0.00 | 54 | 1015.4 |
| 20260507010017 | 6 | 329 | 4.8 | 9.7 | 0.00 | 0.00 | 0.00 | 54 | 1015.3 |
| 20260507005920 | 6 | 344 | 4.8 | 9.7 | 0.00 | 0.00 | 0.00 | 55 | 1015.4 |
| 20260507005824 | 6 | 348 | 4.8 | 12.9 | 0.00 | 0.00 | 0.00 | 54 | 1015.4 |
| 20260507005728 | 6 | 318 | 4.8 | 12.9 | 0.00 | 0.00 | 0.00 | 54 | 1015.4 |
| 20260507005616 | 6 | 311 | 3.2 | 12.9 | 0.00 | 0.00 | 0.00 | 54 | 1015.4 |
| 20260507005520 | 6 | 295 | 3.2 | 12.9 | 0.00 | 0.00 | 0.00 | 55 | 1015.4 |
| 20260507005424 | 6 | 355 | 3.2 | 12.9 | 0.00 | 0.00 | 0.00 | 54 | 1015.4 |
| 20260507005328 | 6 | 321 | 6.4 | 12.9 | 0.00 | 0.00 | 0.00 | 53 | 1015.4 |
| 20260507005211 | 6 | 307 | 6.4 | 12.9 | 0.00 | 0.00 | 0.00 | 54 | 1015.5 |
| 20260507005135 | 6 | 360 | 6.4 | 12.9 | 0.00 | 0.00 | 0.00 | 54 | 1015.4 |
| 20260507005037 | 6 | 312 | 6.4 | 12.9 | 0.00 | 0.00 | 0.00 | 54 | 1015.5 |
| 20260507004920 | 6 | 315 | 4.8 | 12.9 | 0.00 | 0.00 | 0.00 | 53 | 1015.4 |
| 20260507004828 | 6 | 313 | 6.4 | 12.9 | 0.00 | 0.00 | 0.00 | 53 | 1015.4 |
| 20260507004705 | 6 | 355 | 6.4 | 12.9 | 0.00 | 0.00 | 0.00 | 54 | 1015.4 |
| 20260507004608 | 6 | 343 | 4.8 | 16.1 | 0.00 | 0.00 | 0.00 | 53 | 1015.4 |
| 20260507004512 | 6 | 329 | 6.4 | 16.1 | 0.00 | 0.00 | 0.00 | 53 | 1015.4 |
| 20260507004416 | 6 | 351 | 6.4 | 16.1 | 0.00 | 0.00 | 0.00 | 53 | 1015.4 |
| 20260507004305 | 6 | 335 | 8.0 | 17.7 | 0.00 | 0.00 | 0.00 | 53 | 1015.4 |
| 20260507004229 | 6 | 350 | 8.0 | 17.7 | 0.00 | 0.00 | 0.00 | 54 | 1015.4 |
| 20260507004106 | 6 | 334 | 6.4 | 17.7 | 0.00 | 0.00 | 0.00 | 53 | 1015.3 |
| 20260507004030 | 6 | 339 | 8.0 | 17.7 | 0.00 | 0.00 | 0.00 | 53 | 1015.4 |
| 20260507003913 | 6 | 338 | 11.3 | 17.7 | 0.00 | 0.00 | 0.00 | 54 | 1015.4 |
| 20260507003816 | 6 | 349 | 9.7 | 17.7 | 0.00 | 0.00 | 0.00 | 53 | 1015.4 |
| 20260507003720 | 6 | 327 | 8.0 | 17.7 | 0.00 | 0.00 | 0.00 | 54 | 1015.4 |
| 20260507003628 | 6 | 5 | 11.3 | 17.7 | 0.00 | 0.00 | 0.00 | 53 | 1015.4 |
| 20260507003511 | 6 | 316 | 9.7 | 17.7 | 0.00 | 0.00 | 0.00 | 53 | 1015.4 |
| 20260507003415 | 6 | 342 | 8.0 | 17.7 | 0.00 | 0.00 | 0.00 | 52 | 1015.5 |
| 20260507003316 | 6 | 336 | 8.0 | 17.7 | 0.00 | 0.00 | 0.00 | 52 | 1015.5 |
| 20260507003237 | 6 | 350 | 8.0 | 17.7 | 0.00 | 0.00 | 0.00 | 53 | 1015.4 |
| 20260507003140 | 6 | 334 | 9.7 | 17.7 | 0.00 | 0.00 | 0.00 | 53 | 1015.4 |
| 20260507003023 | 6 | 316 | 11.3 | 17.7 | 0.00 | 0.00 | 0.00 | 53 | 1015.4 |
| 20260507002910 | 6 | 339 | 9.7 | 17.7 | 0.00 | 0.00 | 0.00 | 52 | 1015.5 |
| 20260507002812 | 6 | 330 | 9.7 | 17.7 | 0.00 | 0.00 | 0.00 | 52 | 1015.5 |
| 20260507002713 | 6 | 349 | 12.9 | 17.7 | 0.00 | 0.00 | 0.00 | 52 | 1015.5 |
| 20260507002614 | 6 | 355 | 11.3 | 17.7 | 0.00 | 0.00 | 0.00 | 52 | 1015.6 |
| 20260507002514 | 6 | 355 | 9.7 | 16.1 | 0.00 | 0.00 | 0.00 | 53 | 1015.5 |
| 20260507002418 | 6 | 355 | 9.7 | 14.5 | 0.00 | 0.00 | 0.00 | 52 | 1015.5 |
| 20260507002319 | 6 | 309 | 9.7 | 16.1 | 0.00 | 0.00 | 0.00 | 52 | 1015.6 |
| 20260507002224 | 6 | 346 | 8.0 | 16.1 | 0.00 | 0.00 | 0.00 | 53 | 1015.6 |
| 20260507002109 | 6 | 330 | 8.0 | 16.1 | 0.00 | 0.00 | 0.00 | 52 | 1015.5 |
| 20260507002009 | 6 | 336 | 8.0 | 16.1 | 0.00 | 0.00 | 0.00 | 52 | 1015.6 |
| 20260507001910 | 6 | 355 | 8.0 | 17.7 | 0.00 | 0.00 | 0.00 | 53 | 1015.6 |
| 20260507001813 | 6 | 343 | 8.0 | 17.7 | 0.00 | 0.00 | 0.00 | 53 | 1015.6 |
| 20260507001716 | 6 | 360 | 6.4 | 17.7 | 0.00 | 0.00 | 0.00 | 53 | 1015.7 |
| 20260507001624 | 6 | 333 | 9.7 | 17.7 | 0.00 | 0.00 | 0.00 | 53 | 1015.6 |
| 20260507001528 | 6 | 355 | 11.3 | 17.7 | 0.00 | 0.00 | 0.00 | 53 | 1015.7 |
| 20260507001406 | 7 | 319 | 8.0 | 17.7 | 0.00 | 0.00 | 0.00 | 53 | 1015.7 |
| 20260507001331 | 6 | 355 | 8.0 | 17.7 | 0.00 | 0.00 | 0.00 | 53 | 1015.6 |
| 20260507001207 | 6 | 302 | 11.3 | 17.7 | 0.00 | 0.00 | 0.00 | 53 | 1015.7 |
| 20260507001111 | 7 | 355 | 9.7 | 17.7 | 0.00 | 0.00 | 0.00 | 54 | 1015.8 |
| 20260507001039 | 6 | 346 | 6.4 | 14.5 | 0.00 | 0.00 | 0.00 | 54 | 1015.7 |
| 20260507000922 | 6 | 13 | 4.8 | 14.5 | 0.00 | 0.00 | 0.00 | 54 | 1015.8 |
| 20260507000807 | 6 | 309 | 6.4 | 14.5 | 0.00 | 0.00 | 0.00 | 55 | 1015.8 |
| 20260507000730 | 6 | 5 | 6.4 | 14.5 | 0.00 | 0.00 | 0.00 | 54 | 1015.8 |
| 20260507000606 | 6 | 345 | 6.4 | 14.5 | 0.00 | 0.00 | 0.00 | 54 | 1015.8 |
| 20260507000509 | 6 | 5 | 4.8 | 14.5 | 0.00 | 0.00 | 0.00 | 54 | 1015.7 |
| 20260507000413 | 6 | 306 | 4.8 | 14.5 | 0.00 | 0.00 | 0.00 | 54 | 1015.8 |
| 20260507000320 | 6 | 329 | 6.4 | 14.5 | 0.00 | 0.00 | 0.00 | 55 | 1015.8 |
| 20260507000221 | 6 | 325 | 6.4 | 14.5 | 0.00 | 0.00 | 0.00 | 53 | 1015.8 |
| 20260507000123 | 6 | 296 | 8.0 | 14.5 | 0.00 | 0.00 | 0.00 | 53 | 1015.7 |
| 20260507000026 | 6 | 344 | 4.8 | 14.5 | 0.00 | 0.00 | 0.00 | 54 | 1015.7 |
| 20260506235930 | 6 | 351 | 4.8 | 12.9 | 0.00 | 0.00 | 0.00 | 54 | 1015.8 |
| 20260506235812 | 6 | 360 | 4.8 | 14.5 | 0.00 | 0.00 | 0.00 | 53 | 1015.7 |
| 20260506235735 | 6 | 336 | 4.8 | 14.5 | 0.00 | 0.00 | 0.00 | 53 | 1015.8 |
| 20260506235620 | 6 | 341 | 6.4 | 14.5 | 0.00 | 0.00 | 0.00 | 53 | 1015.8 |
| 20260506235543 | 6 | 5 | 4.8 | 14.5 | 0.00 | 0.00 | 0.00 | 53 | 1015.8 |
| 20260506235406 | 6 | 322 | 4.8 | 14.5 | 0.00 | 0.00 | 0.00 | 54 | 1015.7 |
| 20260506235308 | 6 | 15 | 6.4 | 14.5 | 0.00 | 0.00 | 0.00 | 54 | 1015.8 |
| 20260506235211 | 6 | 15 | 8.0 | 16.1 | 0.00 | 0.00 | 0.00 | 53 | 1015.8 |
| 20260506235134 | 6 | 309 | 9.7 | 16.1 | 0.00 | 0.00 | 0.00 | 53 | 1015.8 |
| 20260506235016 | 6 | 348 | 9.7 | 16.1 | 0.00 | 0.00 | 0.00 | 53 | 1015.8 |
| 20260506234940 | 6 | 313 | 9.7 | 16.1 | 0.00 | 0.00 | 0.00 | 53 | 1015.8 |
| 20260506234808 | 6 | 328 | 8.0 | 16.1 | 0.00 | 0.00 | 0.00 | 53 | 1015.8 |
| 20260506234731 | 6 | 333 | 6.4 | 16.1 | 0.00 | 0.00 | 0.00 | 53 | 1015.7 |
| 20260506234607 | 6 | 320 | 6.4 | 16.1 | 0.00 | 0.00 | 0.00 | 54 | 1015.8 |
| 20260506234509 | 6 | 344 | 9.7 | 16.1 | 0.00 | 0.00 | 0.00 | 53 | 1015.7 |
| 20260506234434 | 6 | 348 | 9.7 | 16.1 | 0.00 | 0.00 | 0.00 | 53 | 1015.7 |
| 20260506234315 | 6 | 351 | 9.7 | 16.1 | 0.00 | 0.00 | 0.00 | 53 | 1015.8 |
| 20260506234223 | 6 | 12 | 9.7 | 17.7 | 0.00 | 0.00 | 0.00 | 53 | 1015.7 |
| 20260506234127 | 6 | 355 | 8.0 | 17.7 | 0.00 | 0.00 | 0.00 | 53 | 1015.7 |
| 20260506234009 | 6 | 14 | 6.4 | 17.7 | 0.00 | 0.00 | 0.00 | 53 | 1015.8 |
| 20260506233912 | 7 | 325 | 8.0 | 17.7 | 0.00 | 0.00 | 0.00 | 53 | 1015.9 |
| 20260506233816 | 7 | 313 | 9.7 | 17.7 | 0.00 | 0.00 | 0.00 | 53 | 1015.8 |
| 20260506233718 | 7 | 346 | 9.7 | 17.7 | 0.00 | 0.00 | 0.00 | 52 | 1015.8 |
| 20260506233605 | 7 | 5 | 11.3 | 20.9 | 0.00 | 0.00 | 0.00 | 53 | 1015.9 |
| 20260506233508 | 7 | 9 | 11.3 | 20.9 | 0.00 | 0.00 | 0.00 | 52 | 1015.9 |
| 20260506233431 | 7 | 294 | 11.3 | 20.9 | 0.00 | 0.00 | 0.00 | 52 | 1015.9 |
| 20260506233308 | 7 | 360 | 9.7 | 20.9 | 0.00 | 0.00 | 0.00 | 53 | 1015.8 |
| 20260506233210 | 7 | 342 | 9.7 | 20.9 | 0.00 | 0.00 | 0.00 | 53 | 1015.9 |
| 20260506233134 | 7 | 328 | 9.7 | 20.9 | 0.00 | 0.00 | 0.00 | 53 | 1015.9 |
| 20260506233037 | 7 | 333 | 8.0 | 20.9 | 0.00 | 0.00 | 0.00 | 53 | 1015.9 |
| 20260506232919 | 7 | 5 | 9.7 | 20.9 | 0.00 | 0.00 | 0.00 | 54 | 1016.0 |
| 20260506232805 | 7 | 313 | 14.5 | 20.9 | 0.00 | 0.00 | 0.00 | 52 | 1015.9 |
| 20260506232728 | 7 | 312 | 14.5 | 20.9 | 0.00 | 0.00 | 0.00 | 52 | 1015.9 |
| 20260506232652 | 7 | 347 | 11.3 | 20.9 | 0.00 | 0.00 | 0.00 | 53 | 1015.9 |
| 20260506232507 | 7 | 360 | 8.0 | 16.1 | 0.00 | 0.00 | 0.00 | 52 | 1015.8 |
| 20260506232432 | 7 | 5 | 9.7 | 16.1 | 0.00 | 0.00 | 0.00 | 53 | 1015.8 |
| 20260506232313 | 7 | 345 | 11.3 | 16.1 | 0.00 | 0.00 | 0.00 | 53 | 1015.9 |
| 20260506232217 | 7 | 322 | 8.0 | 19.3 | 0.00 | 0.00 | 0.00 | 53 | 1015.9 |
| 20260506232124 | 7 | 360 | 4.8 | 19.3 | 0.00 | 0.00 | 0.00 | 53 | 1015.9 |
| 20260506232049 | 7 | 11 | 6.4 | 20.9 | 0.00 | 0.00 | 0.00 | 52 | 1015.9 |
| 20260506231906 | 7 | 340 | 8.0 | 20.9 | 0.00 | 0.00 | 0.00 | 53 | 1015.9 |
| 20260506231829 | 7 | 349 | 8.0 | 20.9 | 0.00 | 0.00 | 0.00 | 52 | 1015.8 |
| 20260506231711 | 7 | 312 | 9.7 | 20.9 | 0.00 | 0.00 | 0.00 | 52 | 1015.9 |
| 20260506231615 | 7 | 329 | 11.3 | 20.9 | 0.00 | 0.00 | 0.00 | 52 | 1015.9 |
| 20260506231519 | 7 | 341 | 12.9 | 20.9 | 0.00 | 0.00 | 0.00 | 52 | 1015.8 |
| 20260506231408 | 7 | 341 | 14.5 | 20.9 | 0.00 | 0.00 | 0.00 | 52 | 1015.9 |
| 20260506231311 | 7 | 334 | 14.5 | 20.9 | 0.00 | 0.00 | 0.00 | 52 | 1015.8 |
| 20260506231215 | 7 | 348 | 12.9 | 20.9 | 0.00 | 0.00 | 0.00 | 52 | 1015.8 |
| 20260506231120 | 7 | 331 | 12.9 | 20.9 | 0.00 | 0.00 | 0.00 | 52 | 1015.8 |
| 20260506231005 | 7 | 273 | 11.3 | 20.9 | 0.00 | 0.00 | 0.00 | 52 | 1015.8 |
| 20260506230914 | 7 | 327 | 8.0 | 19.3 | 0.00 | 0.00 | 0.00 | 53 | 1015.9 |
| 20260506230818 | 7 | 355 | 6.4 | 19.3 | 0.00 | 0.00 | 0.00 | 53 | 1015.8 |
| 20260506230722 | 7 | 341 | 9.7 | 19.3 | 0.00 | 0.00 | 0.00 | 53 | 1015.9 |
| 20260506230626 | 7 | 333 | 9.7 | 19.3 | 0.00 | 0.00 | 0.00 | 52 | 1015.9 |
| 20260506230549 | 7 | 340 | 12.9 | 19.3 | 0.00 | 0.00 | 0.00 | 52 | 1015.8 |
| 20260506230406 | 7 | 328 | 14.5 | 22.5 | 0.00 | 0.00 | 0.00 | 52 | 1015.8 |
| 20260506230330 | 7 | 329 | 12.9 | 22.5 | 0.00 | 0.00 | 0.00 | 52 | 1015.8 |
| 20260506230234 | 7 | 345 | 9.7 | 24.1 | 0.00 | 0.00 | 0.00 | 53 | 1015.8 |
| 20260506230120 | 7 | 341 | 8.0 | 24.1 | 0.00 | 0.00 | 0.00 | 54 | 1015.9 |
| 20260506230005 | 7 | 317 | 8.0 | 24.1 | 0.00 | 0.00 | 0.00 | 53 | 1015.8 |
| 20260506225929 | 7 | 325 | 9.7 | 24.1 | 0.00 | 0.00 | 0.00 | 53 | 1015.9 |
| 20260506225805 | 7 | 327 | 11.3 | 24.1 | 0.00 | 0.00 | 0.00 | 53 | 1015.8 |
| 20260506225709 | 7 | 12 | 11.3 | 24.1 | 0.00 | 0.00 | 0.00 | 53 | 1015.8 |
| 20260506225614 | 7 | 5 | 16.1 | 24.1 | 0.00 | 0.00 | 0.00 | 53 | 1015.8 |
| 20260506225541 | 7 | 322 | 16.1 | 24.1 | 0.00 | 0.00 | 0.00 | 53 | 1015.8 |
| 20260506225405 | 7 | 327 | 12.9 | 24.1 | 0.00 | 0.00 | 0.00 | 53 | 1015.8 |
| 20260506225310 | 7 | 304 | 11.3 | 20.9 | 0.00 | 0.00 | 0.00 | 53 | 1015.9 |
| 20260506225214 | 7 | 346 | 12.9 | 20.9 | 0.00 | 0.00 | 0.00 | 52 | 1015.9 |
| 20260506225117 | 7 | 5 | 11.3 | 20.9 | 0.00 | 0.00 | 0.00 | 53 | 1015.9 |
| 20260506225042 | 7 | 5 | 11.3 | 20.9 | 0.00 | 0.00 | 0.00 | 53 | 1015.9 |
| 20260506224908 | 7 | 311 | 14.5 | 20.9 | 0.00 | 0.00 | 0.00 | 52 | 1015.9 |
| 20260506224831 | 7 | 315 | 12.9 | 20.9 | 0.00 | 0.00 | 0.00 | 53 | 1015.9 |
| 20260506224735 | 7 | 329 | 9.7 | 20.9 | 0.00 | 0.00 | 0.00 | 52 | 1015.9 |
| 20260506224616 | 7 | 308 | 11.3 | 20.9 | 0.00 | 0.00 | 0.00 | 53 | 1015.9 |
| 20260506224521 | 7 | 345 | 12.9 | 20.9 | 0.00 | 0.00 | 0.00 | 52 | 1016.0 |
| 20260506224445 | 7 | 345 | 12.9 | 20.9 | 0.00 | 0.00 | 0.00 | 52 | 1016.0 |
| 20260506224309 | 7 | 347 | 9.7 | 20.9 | 0.00 | 0.00 | 0.00 | 53 | 1016.0 |
| 20260506224214 | 7 | 355 | 8.0 | 17.7 | 0.00 | 0.00 | 0.00 | 53 | 1015.9 |
| 20260506224122 | 7 | 5 | 8.0 | 17.7 | 0.00 | 0.00 | 0.00 | 53 | 1016.0 |
| 20260506224027 | 7 | 350 | 6.4 | 22.5 | 0.00 | 0.00 | 0.00 | 54 | 1016.1 |
| 20260506223908 | 7 | 334 | 8.0 | 22.5 | 0.00 | 0.00 | 0.00 | 54 | 1016.0 |
| 20260506223813 | 7 | 308 | 8.0 | 22.5 | 0.00 | 0.00 | 0.00 | 53 | 1016.0 |
| 20260506223717 | 7 | 355 | 8.0 | 22.5 | 0.00 | 0.00 | 0.00 | 53 | 1016.0 |
| 20260506223622 | 7 | 308 | 9.7 | 22.5 | 0.00 | 0.00 | 0.00 | 52 | 1016.1 |
| 20260506223526 | 7 | 360 | 12.9 | 22.5 | 0.00 | 0.00 | 0.00 | 52 | 1016.0 |
| 20260506223412 | 7 | 355 | 11.3 | 22.5 | 0.00 | 0.00 | 0.00 | 53 | 1016.1 |
| 20260506223317 | 7 | 5 | 11.3 | 22.5 | 0.00 | 0.00 | 0.00 | 53 | 1016.0 |
| 20260506223220 | 7 | 337 | 12.9 | 22.5 | 0.00 | 0.00 | 0.00 | 53 | 1016.0 |
| 20260506223125 | 7 | 316 | 12.9 | 20.9 | 0.00 | 0.00 | 0.00 | 53 | 1016.0 |
| 20260506223028 | 7 | 341 | 11.3 | 20.9 | 0.00 | 0.00 | 0.00 | 54 | 1016.0 |
| 20260506222906 | 7 | 329 | 4.8 | 19.3 | 0.00 | 0.00 | 0.00 | 54 | 1016.1 |
| 20260506222815 | 7 | 341 | 4.8 | 19.3 | 0.00 | 0.00 | 0.00 | 54 | 1016.0 |
| 20260506222720 | 7 | 355 | 4.8 | 19.3 | 0.00 | 0.00 | 0.00 | 54 | 1016.1 |
| 20260506222624 | 7 | 5 | 6.4 | 19.3 | 0.00 | 0.00 | 0.00 | 54 | 1016.1 |
| 20260506222508 | 7 | 34 | 11.3 | 19.3 | 0.00 | 0.00 | 0.00 | 53 | 1016.1 |
| 20260506222413 | 7 | 5 | 12.9 | 19.3 | 0.00 | 0.00 | 0.00 | 53 | 1016.2 |
| 20260506222316 | 7 | 328 | 12.9 | 19.3 | 0.00 | 0.00 | 0.00 | 54 | 1016.1 |
| 20260506222225 | 7 | 12 | 12.9 | 19.3 | 0.00 | 0.00 | 0.00 | 54 | 1016.2 |
| 20260506222108 | 7 | 303 | 11.3 | 19.3 | 0.00 | 0.00 | 0.00 | 53 | 1016.0 |
| 20260506222012 | 7 | 338 | 9.7 | 20.9 | 0.00 | 0.00 | 0.00 | 54 | 1016.1 |
| 20260506221917 | 7 | 296 | 11.3 | 20.9 | 0.00 | 0.00 | 0.00 | 54 | 1016.1 |
| 20260506221840 | 7 | 320 | 12.9 | 24.1 | 0.00 | 0.00 | 0.00 | 53 | 1016.1 |
| 20260506221724 | 7 | 360 | 9.7 | 24.1 | 0.00 | 0.00 | 0.00 | 54 | 1016.1 |
| 20260506221612 | 7 | 23 | 9.7 | 24.1 | 0.00 | 0.00 | 0.00 | 55 | 1016.2 |
| 20260506221517 | 7 | 342 | 9.7 | 24.1 | 0.00 | 0.00 | 0.00 | 54 | 1016.2 |
| 20260506221420 | 7 | 360 | 9.7 | 24.1 | 0.00 | 0.00 | 0.00 | 53 | 1016.1 |
| 20260506221324 | 6 | 5 | 11.3 | 24.1 | 0.00 | 0.00 | 0.00 | 53 | 1016.1 |
| 20260506221209 | 6 | 360 | 12.9 | 24.1 | 0.00 | 0.00 | 0.00 | 55 | 1016.1 |
| 20260506221133 | 6 | 329 | 16.1 | 24.1 | 0.00 | 0.00 | 0.00 | 53 | 1016.3 |
| 20260506221017 | 7 | 304 | 16.1 | 24.1 | 0.00 | 0.00 | 0.00 | 53 | 1016.2 |
| 20260506220905 | 7 | 339 | 12.9 | 24.1 | 0.00 | 0.00 | 0.00 | 54 | 1016.1 |
| 20260506220809 | 7 | 302 | 12.9 | 24.1 | 0.00 | 0.00 | 0.00 | 53 | 1016.2 |
| 20260506220732 | 7 | 317 | 14.5 | 24.1 | 0.00 | 0.00 | 0.00 | 53 | 1016.2 |
| 20260506220608 | 7 | 315 | 14.5 | 24.1 | 0.00 | 0.00 | 0.00 | 54 | 1016.2 |
| 20260506220513 | 7 | 321 | 9.7 | 17.7 | 0.00 | 0.00 | 0.00 | 55 | 1016.2 |
| 20260506220418 | 7 | 320 | 6.4 | 17.7 | 0.00 | 0.00 | 0.00 | 54 | 1016.2 |
| 20260506220306 | 7 | 296 | 8.0 | 17.7 | 0.00 | 0.00 | 0.00 | 53 | 1016.2 |
| 20260506220210 | 7 | 360 | 8.0 | 17.7 | 0.00 | 0.00 | 0.00 | 54 | 1016.2 |
| 20260506220112 | 7 | 306 | 6.4 | 17.7 | 0.00 | 0.00 | 0.00 | 56 | 1016.2 |
| 20260506220016 | 7 | 32 | 9.7 | 17.7 | 0.00 | 0.00 | 0.00 | 54 | 1016.2 |
| 20260506215940 | 7 | 15 | 12.9 | 17.7 | 0.00 | 0.00 | 0.00 | 54 | 1016.2 |
| 20260506215824 | 6 | 344 | 9.7 | 17.7 | 0.00 | 0.00 | 0.00 | 55 | 1016.3 |
| 20260506215711 | 6 | 26 | 6.4 | 16.1 | 0.00 | 0.00 | 0.00 | 56 | 1016.2 |
| 20260506215617 | 6 | 355 | 8.0 | 16.1 | 0.00 | 0.00 | 0.00 | 54 | 1016.3 |
| 20260506215521 | 6 | 348 | 8.0 | 16.1 | 0.00 | 0.00 | 0.00 | 54 | 1016.2 |
| 20260506215427 | 6 | 13 | 8.0 | 16.1 | 0.00 | 0.00 | 0.00 | 53 | 1016.3 |
| 20260506215351 | 6 | 5 | 11.3 | 16.1 | 0.00 | 0.00 | 0.00 | 54 | 1016.2 |
| 20260506215206 | 6 | 355 | 9.7 | 16.1 | 0.00 | 0.00 | 0.00 | 54 | 1016.2 |
| 20260506215114 | 6 | 349 | 8.0 | 16.1 | 0.00 | 0.00 | 0.00 | 55 | 1016.3 |
| 20260506215018 | 6 | 286 | 9.7 | 16.1 | 0.00 | 0.00 | 0.00 | 54 | 1016.3 |
| 20260506214922 | 6 | 25 | 8.0 | 17.7 | 0.00 | 0.00 | 0.00 | 55 | 1016.3 |
| 20260506214807 | 6 | 342 | 6.4 | 20.9 | 0.00 | 0.00 | 0.00 | 55 | 1016.2 |
| 20260506214732 | 6 | 315 | 6.4 | 20.9 | 0.00 | 0.00 | 0.00 | 55 | 1016.3 |
| 20260506214607 | 6 | 328 | 8.0 | 20.9 | 0.00 | 0.00 | 0.00 | 55 | 1016.2 |
| 20260506214515 | 6 | 287 | 9.7 | 20.9 | 0.00 | 0.00 | 0.00 | 55 | 1016.2 |
| 20260506214419 | 6 | 318 | 9.7 | 20.9 | 0.00 | 0.00 | 0.00 | 53 | 1016.2 |
| 20260506214323 | 6 | 360 | 11.3 | 20.9 | 0.00 | 0.00 | 0.00 | 54 | 1016.3 |
| 20260506214228 | 6 | 317 | 11.3 | 20.9 | 0.00 | 0.00 | 0.00 | 55 | 1016.3 |
| 20260506214130 | 6 | 306 | 11.3 | 20.9 | 0.00 | 0.00 | 0.00 | 54 | 1016.3 |
| 20260506214007 | 6 | 336 | 12.9 | 20.9 | 0.00 | 0.00 | 0.00 | 55 | 1016.3 |
| 20260506213932 | 6 | 340 | 14.5 | 20.9 | 0.00 | 0.00 | 0.00 | 54 | 1016.3 |
| 20260506213820 | 6 | 321 | 14.5 | 20.9 | 0.00 | 0.00 | 0.00 | 55 | 1016.2 |
| 20260506213705 | 6 | 355 | 14.5 | 20.9 | 0.00 | 0.00 | 0.00 | 54 | 1016.3 |
| 20260506213609 | 6 | 17 | 11.3 | 20.9 | 0.00 | 0.00 | 0.00 | 54 | 1016.4 |
| 20260506213533 | 6 | 349 | 4.8 | 20.9 | 0.00 | 0.00 | 0.00 | 55 | 1016.3 |
| 20260506213413 | 6 | 281 | 6.4 | 20.9 | 0.00 | 0.00 | 0.00 | 55 | 1016.3 |
| 20260506213318 | 6 | 346 | 12.9 | 20.9 | 0.00 | 0.00 | 0.00 | 54 | 1016.3 |
| 20260506213206 | 6 | 327 | 14.5 | 20.9 | 0.00 | 0.00 | 0.00 | 54 | 1016.3 |
| 20260506213129 | 6 | 290 | 11.3 | 19.3 | 0.00 | 0.00 | 0.00 | 55 | 1016.3 |
| 20260506213005 | 6 | 308 | 8.0 | 19.3 | 0.00 | 0.00 | 0.00 | 55 | 1016.3 |
| 20260506212930 | 6 | 279 | 8.0 | 20.9 | 0.00 | 0.00 | 0.00 | 55 | 1016.3 |
| 20260506212807 | 6 | 325 | 8.0 | 20.9 | 0.00 | 0.00 | 0.00 | 56 | 1016.3 |
| 20260506212711 | 6 | 304 | 8.0 | 20.9 | 0.00 | 0.00 | 0.00 | 56 | 1016.4 |
| 20260506212616 | 6 | 283 | 8.0 | 20.9 | 0.00 | 0.00 | 0.00 | 57 | 1016.4 |
| 20260506212524 | 6 | 355 | 6.4 | 20.9 | 0.00 | 0.00 | 0.00 | 57 | 1016.4 |
| 20260506212427 | 6 | 292 | 8.0 | 20.9 | 0.00 | 0.00 | 0.00 | 56 | 1016.4 |
| 20260506212351 | 6 | 323 | 8.0 | 20.9 | 0.00 | 0.00 | 0.00 | 56 | 1016.4 |
| 20260506212206 | 6 | 355 | 12.9 | 20.9 | 0.00 | 0.00 | 0.00 | 57 | 1016.4 |
| 20260506212110 | 6 | 292 | 14.5 | 20.9 | 0.00 | 0.00 | 0.00 | 55 | 1016.4 |
| 20260506212034 | 6 | 284 | 12.9 | 20.9 | 0.00 | 0.00 | 0.00 | 55 | 1016.3 |
| 20260506211917 | 6 | 325 | 11.3 | 20.9 | 0.00 | 0.00 | 0.00 | 57 | 1016.4 |
| 20260506211824 | 6 | 306 | 12.9 | 20.9 | 0.00 | 0.00 | 0.00 | 55 | 1016.4 |
| 20260506211728 | 6 | 315 | 12.9 | 20.9 | 0.00 | 0.00 | 0.00 | 55 | 1016.4 |
| 20260506211606 | 6 | 297 | 12.9 | 20.9 | 0.00 | 0.00 | 0.00 | 53 | 1016.4 |
| 20260506211528 | 6 | 306 | 12.9 | 20.9 | 0.00 | 0.00 | 0.00 | 53 | 1016.4 |
| 20260506211451 | 6 | 317 | 14.5 | 20.9 | 0.00 | 0.00 | 0.00 | 54 | 1016.4 |
| 20260506211307 | 6 | 342 | 14.5 | 20.9 | 0.00 | 0.00 | 0.00 | 55 | 1016.5 |
| 20260506211211 | 6 | 342 | 12.9 | 19.3 | 0.00 | 0.00 | 0.00 | 54 | 1016.4 |
| 20260506211139 | 6 | 342 | 12.9 | 19.3 | 0.00 | 0.00 | 0.00 | 54 | 1016.5 |
| 20260506211021 | 6 | 328 | 9.7 | 19.3 | 0.00 | 0.00 | 0.00 | 55 | 1016.4 |
| 20260506210926 | 6 | 299 | 8.0 | 19.3 | 0.00 | 0.00 | 0.00 | 57 | 1016.4 |
| 20260506210809 | 6 | 309 | 12.9 | 19.3 | 0.00 | 0.00 | 0.00 | 54 | 1016.4 |
| 20260506210713 | 6 | 314 | 14.5 | 19.3 | 0.00 | 0.00 | 0.00 | 55 | 1016.5 |
| 20260506210617 | 6 | 317 | 14.5 | 19.3 | 0.00 | 0.00 | 0.00 | 55 | 1016.4 |
| 20260506210505 | 6 | 300 | 12.9 | 22.5 | 0.00 | 0.00 | 0.00 | 56 | 1016.5 |
| 20260506210429 | 6 | 301 | 11.3 | 22.5 | 0.00 | 0.00 | 0.00 | 57 | 1016.4 |
| 20260506210306 | 6 | 286 | 9.7 | 22.5 | 0.00 | 0.00 | 0.00 | 56 | 1016.6 |
| 20260506210211 | 6 | 307 | 8.0 | 22.5 | 0.00 | 0.00 | 0.00 | 56 | 1016.6 |
| 20260506210114 | 6 | 333 | 11.3 | 22.5 | 0.00 | 0.00 | 0.00 | 57 | 1016.6 |
| 20260506210019 | 6 | 327 | 14.5 | 24.1 | 0.00 | 0.00 | 0.00 | 56 | 1016.6 |
| 20260506205923 | 6 | 294 | 12.9 | 24.1 | 0.00 | 0.00 | 0.00 | 55 | 1016.6 |
| 20260506205828 | 6 | 300 | 12.9 | 24.1 | 0.00 | 0.00 | 0.00 | 56 | 1016.6 |
| 20260506205705 | 6 | 287 | 16.1 | 24.1 | 0.00 | 0.00 | 0.00 | 55 | 1016.6 |
| 20260506205628 | 6 | 297 | 17.7 | 24.1 | 0.00 | 0.00 | 0.00 | 56 | 1016.7 |
| 20260506205505 | 6 | 313 | 12.9 | 24.1 | 0.00 | 0.00 | 0.00 | 56 | 1016.6 |
| 20260506205408 | 6 | 294 | 9.7 | 24.1 | 0.00 | 0.00 | 0.00 | 55 | 1016.6 |
| 20260506205311 | 6 | 332 | 11.3 | 24.1 | 0.00 | 0.00 | 0.00 | 55 | 1016.7 |
| 20260506205219 | 6 | 336 | 12.9 | 24.1 | 0.00 | 0.00 | 0.00 | 54 | 1016.7 |
| 20260506205122 | 6 | 321 | 9.7 | 22.5 | 0.00 | 0.00 | 0.00 | 54 | 1016.6 |
| 20260506205026 | 6 | 308 | 9.7 | 27.4 | 0.00 | 0.00 | 0.00 | 55 | 1016.7 |
| 20260506204908 | 6 | 299 | 11.3 | 27.4 | 0.00 | 0.00 | 0.00 | 54 | 1016.7 |
| 20260506204812 | 6 | 296 | 14.5 | 27.4 | 0.00 | 0.00 | 0.00 | 54 | 1016.7 |
| 20260506204736 | 6 | 355 | 12.9 | 27.4 | 0.00 | 0.00 | 0.00 | 54 | 1016.7 |
| 20260506204619 | 6 | 320 | 9.7 | 27.4 | 0.00 | 0.00 | 0.00 | 55 | 1016.6 |
| 20260506204528 | 6 | 300 | 11.3 | 27.4 | 0.00 | 0.00 | 0.00 | 55 | 1016.7 |
| 20260506204405 | 6 | 340 | 16.1 | 27.4 | 0.00 | 0.00 | 0.00 | 54 | 1016.7 |
| 20260506204309 | 6 | 360 | 17.7 | 27.4 | 0.00 | 0.00 | 0.00 | 54 | 1016.8 |
| 20260506204232 | 6 | 336 | 16.1 | 27.4 | 0.00 | 0.00 | 0.00 | 55 | 1016.7 |
| 20260506204134 | 6 | 339 | 14.5 | 24.1 | 0.00 | 0.00 | 0.00 | 57 | 1016.8 |
| 20260506204016 | 6 | 308 | 14.5 | 24.1 | 0.00 | 0.00 | 0.00 | 58 | 1016.8 |
| 20260506203919 | 6 | 301 | 14.5 | 29.0 | 0.00 | 0.00 | 0.00 | 57 | 1016.7 |
| 20260506203827 | 6 | 301 | 11.3 | 29.0 | 0.00 | 0.00 | 0.00 | 56 | 1016.8 |
| 20260506203711 | 6 | 346 | 6.4 | 29.0 | 0.00 | 0.00 | 0.00 | 57 | 1016.7 |
| 20260506203612 | 6 | 327 | 6.4 | 29.0 | 0.00 | 0.00 | 0.00 | 56 | 1016.6 |
| 20260506203516 | 6 | 355 | 9.7 | 29.0 | 0.00 | 0.00 | 0.00 | 56 | 1016.7 |
| 20260506203418 | 6 | 355 | 12.9 | 29.0 | 0.00 | 0.00 | 0.00 | 54 | 1016.7 |
| 20260506203322 | 6 | 315 | 16.1 | 29.0 | 0.00 | 0.00 | 0.00 | 54 | 1016.7 |
| 20260506203209 | 6 | 299 | 17.7 | 29.0 | 0.00 | 0.00 | 0.00 | 53 | 1016.7 |
| 20260506203132 | 6 | 302 | 17.7 | 29.0 | 0.00 | 0.00 | 0.00 | 54 | 1016.7 |
| 20260506203007 | 6 | 317 | 14.5 | 25.7 | 0.00 | 0.00 | 0.00 | 55 | 1016.7 |
| 20260506202930 | 6 | 326 | 12.9 | 25.7 | 0.00 | 0.00 | 0.00 | 56 | 1016.7 |
| 20260506202812 | 6 | 331 | 11.3 | 22.5 | 0.00 | 0.00 | 0.00 | 56 | 1016.7 |
| 20260506202714 | 6 | 338 | 12.9 | 22.5 | 0.00 | 0.00 | 0.00 | 55 | 1016.7 |
| 20260506202637 | 6 | 343 | 12.9 | 22.5 | 0.00 | 0.00 | 0.00 | 55 | 1016.7 |
| 20260506202520 | 6 | 5 | 11.3 | 22.5 | 0.00 | 0.00 | 0.00 | 56 | 1016.7 |
| 20260506202407 | 6 | 11 | 9.7 | 22.5 | 0.00 | 0.00 | 0.00 | 56 | 1016.7 |
| 20260506202330 | 6 | 355 | 9.7 | 22.5 | 0.00 | 0.00 | 0.00 | 56 | 1016.6 |
| 20260506202213 | 6 | 305 | 9.7 | 22.5 | 0.00 | 0.00 | 0.00 | 56 | 1016.6 |
| 20260506202115 | 6 | 299 | 11.3 | 22.5 | 0.00 | 0.00 | 0.00 | 55 | 1016.6 |
| 20260506202018 | 6 | 43 | 12.9 | 22.5 | 0.00 | 0.00 | 0.00 | 54 | 1016.7 |
| 20260506201942 | 6 | 313 | 9.7 | 19.3 | 0.00 | 0.00 | 0.00 | 54 | 1016.7 |
| 20260506201808 | 6 | 355 | 11.3 | 24.1 | 0.00 | 0.00 | 0.00 | 54 | 1016.7 |
| 20260506201731 | 6 | 333 | 14.5 | 24.1 | 0.00 | 0.00 | 0.00 | 55 | 1016.7 |
| 20260506201607 | 6 | 13 | 16.1 | 24.1 | 0.00 | 0.00 | 0.00 | 54 | 1016.7 |
| 20260506201510 | 6 | 344 | 12.9 | 24.1 | 0.00 | 0.00 | 0.00 | 54 | 1016.7 |
| 20260506201413 | 6 | 309 | 11.3 | 24.1 | 0.00 | 0.00 | 0.00 | 54 | 1016.6 |
| 20260506201316 | 6 | 336 | 11.3 | 24.1 | 0.00 | 0.00 | 0.00 | 55 | 1016.6 |
| 20260506201220 | 6 | 345 | 12.9 | 24.1 | 0.00 | 0.00 | 0.00 | 53 | 1016.7 |